[[{"header":{"parameterUnit":"m.s-1","parameterCategory":1,"la1":31.0,"la2":29.5877,"lo1":-88.7671,"lo2":-86.6584,"dy":0.0162,"dx":0.0185,"nx":115,"ny":88,"refTime":"2023-08-01T00:00:00:Z","depth":0,"parameterNumber":2,"parameterNumberName":"U-component_of_WINDS"},"data":[0.0,0.0,0.0,0.0,0.0,0.0,0.0,0.0,0.0,0.0,0.0,0.0,0.0,0.0,0.0,0.0,0.0,0.0,0.0,0.0,0.0,0.0,0.0,0.0,0.0,0.0,0.0,0.0,0.0,0.0,0.0,0.0,0.0,0.0,0.0,0.0,0.0,0.0,0.0,0.0,0.0,0.0,0.0,0.0,0.0,0.0,0.0,0.0,0.0,0.0,0.0,0.0,0.0,0.0,0.0,0.0,0.0,0.0,0.0,0.0,0.0,0.0,0.0,0.0,0.0,0.0,0.0,0.0,0.0,0.0,0.0,0.0,0.0,0.0,0.0,0.0,0.0,0.0,0.0,0.0,0.0,0.0,0.0,0.0,0.0,0.0,0.0,0.0,0.0,0.0,0.0,0.0,0.0,0.0,0.0,0.0,0.0,0.0,0.0,0.0,0.0,0.0,0.0,0.0,0.0,0.0,0.0,0.0,0.0,0.0,0.0,0.0,0.0,0.0,0.0,0.0,0.0,0.0,0.0,0.0,0.0,0.0,0.0,0.0,0.0,0.0,0.0,0.0,0.0,0.0,0.0,0.0,0.0,0.0,0.0,0.0,0.0,0.0,0.0,0.0,0.0,0.0,0.0,0.0,0.0,0.0,0.0,0.0,0.0,0.0,0.0,0.0,0.0,0.0,0.0,0.0,0.0,0.0,0.0,0.0,0.0,0.0,0.0,0.0,0.0,0.0,0.0,0.0,0.0,0.0,0.0,0.0,0.0,0.0,0.0,0.0,0.0,0.0,0.0,0.0,0.0,0.0,0.0,0.0,0.0,0.0,0.0,0.0,0.0,0.0,0.0,0.0,0.0,0.0,0.0,0.0,0.0,0.0,0.0,0.0,0.0,0.0,0.0,0.0,0.0,0.0,0.0,0.0,0.0,0.0,0.0,0.0,0.0,0.0,0.0,0.0,0.0,0.0,0.0,0.0,0.0,0.0,0.0,0.0,0.0,0.0,0.0,0.0,0.0,0.0,0.0,0.0,0.0,0.0,0.0,0.0,0.0,0.0,0.0,0.0,0.0,0.0,0.0,0.0,0.0,0.0,0.0,0.0,0.0,0.0,0.0,0.0,0.0,0.0,0.0,0.0,0.0,0.0,0.0,0.0,0.0,0.0,0.0,0.0,0.0,0.0,0.0,0.0,0.0,0.0,0.0,0.0,0.0,0.0,0.0,0.0,0.0,0.0,0.0,0.0,0.0,0.0,0.0,0.0,0.0,0.0,0.0,0.0,0.0,0.0,0.0,0.0,0.0,0.0,0.0,0.0,0.0,0.0,0.0,0.0,0.0,0.0,0.0,0.0,0.0,0.0,0.0,0.0,0.0,0.0,0.0,0.0,0.0,0.0,0.0,0.0,0.0,0.0,0.0,0.0,0.0,0.0,0.0,0.0,0.0,0.0,0.0,0.0,0.0,0.0,0.0,0.0,0.0,0.0,0.0,0.0,0.0,0.0,0.0,0.0,0.0,0.0,0.0,0.0,0.0,0.0,0.0,0.0,0.0,0.0,0.0,0.0,0.0,0.0,0.0,0.0,0.0,0.0,0.0,0.0,0.0,0.0,0.0,0.0,0.0,0.0,0.0,0.0,0.0,0.0,0.0,0.0,0.0,0.0,0.0,0.0,0.0,0.0,0.0,0.0,0.0,0.0,0.0,0.0,0.0,0.0,0.0,0.0,0.0,0.0,0.0,0.0,0.0,0.0,0.0,0.0,0.0,0.0,0.0,0.0,0.0,0.0,0.0,0.0,0.0,0.0,0.0,0.0,0.0,0.0,0.0,0.0,0.0,0.0,0.0,0.0,0.0,0.0,0.0,0.0,0.0,0.0,0.0,0.0,0.0,0.0,0.0,0.0,0.0,0.0,0.0,0.0,0.0,0.0,0.0,0.0,0.0,0.0,0.0,0.0,0.0,0.0,0.0,0.0,0.0,0.0,0.0,0.0,0.0,0.0,0.0,0.0,0.0,0.0,0.0,0.0,0.0,0.0,0.0,0.0,0.0,0.0,0.0,0.0,0.0,0.0,0.0,0.0,0.0,0.0,0.0,0.0,0.0,0.0,0.0,0.0,0.0,0.0,0.0,0.0,0.0,0.0,0.0,0.0,0.0,0.0,0.0,0.0,0.0,0.0,0.0,0.0,0.0,0.0,0.0,0.0,0.0,0.0,0.0,0.0,0.0,0.0,0.0,0.0,0.0,0.0,0.0,0.0,0.0,0.0,0.0,0.0,0.0,0.0,0.0,0.0,0.0,0.0,0.0,0.0,0.0,0.0,0.0,0.0,0.0,0.0,0.0,0.0,0.0,0.0,0.0,0.0,0.0,0.0,0.0,0.0,0.0,0.0,0.0,0.0,0.0,0.0,0.0,0.0,0.0,0.0,0.0,0.0,0.0,0.0,0.0,0.0,0.0,0.0,0.0,0.0,0.0,0.0,0.0,0.0,0.0,0.0,0.0,0.0,0.0,0.0,0.0,0.0,0.0,0.0,0.0,0.0,0.0,0.0,0.0,0.0,0.0,0.0,0.0,0.0,0.0,0.0,0.0,0.0,0.0,0.0,0.0,0.0,0.0,0.0,0.0,0.0,0.0,0.0,0.0,0.0,0.0,0.0,0.0,0.0,0.0,0.0,0.0,0.0,0.0,0.0,0.0,0.0,0.0,0.0,0.0,0.0,0.0,0.0,0.0,0.0,0.0,0.0,0.0,0.0,0.0,0.0,0.0,0.0,0.0,0.0,0.0,0.0,0.0,0.0,0.0,0.0,0.0,0.0,0.0,0.0,0.0,0.0,0.0,0.0,0.0,0.0,0.0,0.0,0.0,0.0,0.0,0.0,0.0,0.0,0.0,0.0,0.0,0.0,0.0,0.0,0.0,0.0,0.0,0.0,0.0,0.0,0.0,0.0,0.0,0.0,0.0,0.0,0.0,0.0,0.0,0.0,0.0,0.0,0.0,0.0,0.0,0.0,0.0,0.0,0.0,0.0,0.0,0.0,0.0,0.0,0.0,0.0,0.0,0.0,0.0,0.0,0.0,0.0,0.0,0.0,0.0,0.0,0.0,0.0,0.0,0.0,0.0,0.0,0.0,0.0,0.0,0.0,0.0,0.0,0.0,0.0,0.0,0.0,0.0,0.0,0.0,0.0,0.0,0.0,0.0,0.0,0.0,0.0,0.0,0.0,0.0,0.0,0.0,0.0,0.0,0.0,0.0,0.0,0.0,0.0,0.0,0.0,0.0,0.0,0.0,0.0,0.0,0.0,0.0,0.0,0.0,0.0,0.0,0.0,0.0,0.0,0.0,0.0,0.0,0.0,0.0,0.0,0.0,0.0,0.0,0.0,0.0,0.0,0.0,0.0,0.0,0.0,0.0,0.0,0.0,0.0,0.0,0.0,0.0,0.0,0.0,0.0,0.0,0.0,0.0,0.0,0.0,0.0,0.0,0.0,0.0,0.0,0.0,0.0,0.0,0.0,0.0,0.0,0.0,0.0,0.0,0.0,0.0,0.0,0.0,0.0,0.0,0.0,0.0,0.0,0.0,0.0,0.0,0.0,0.0,0.0,0.0,0.0,0.0,0.0,0.0,0.0,0.0,0.0,0.0,0.0,0.0,0.0,0.0,0.0,0.0,0.0,0.0,0.0,0.0,0.0,0.0,0.0,0.0,0.0,0.0,0.0,0.0,0.0,0.0,0.0,0.0,0.0,0.0,0.0,0.0,0.0,0.0,0.0,0.0,0.0,0.0,0.0,0.0,0.0,0.0,0.0,0.0,0.0,0.0,0.0,0.0,0.0,0.0,0.0,0.0,0.0,0.0,0.0,0.0,0.0,0.0,0.0,0.0,0.0,0.0,0.0,0.0,0.0,0.0,0.0,0.0,0.0,0.0,0.0,0.0,0.0,0.0,0.0,0.0,0.0,0.0,0.0,0.0,0.0,0.0,0.0,0.0,0.0,0.0,0.0,0.0,0.0,0.0,0.0,0.0,0.0,0.0,0.0,0.0,0.0,0.0,0.0,0.0,0.0,0.0,0.0,0.0,0.0,0.0,0.0,0.0,0.0,0.0,0.0,0.0,0.0,0.0,0.0,0.0,0.0,0.0,0.0,0.0,0.0,0.0,0.0,0.0,0.0,0.0,0.0,0.0,0.0,0.0,0.0,0.0,0.0,0.0,0.0,0.0,0.0,0.0,0.0,0.0,0.0,0.0,0.0,0.0,0.0,0.0,0.0,0.0,0.0,0.0,0.0,-3.1977,0.0,0.0,0.0,0.0,0.0,0.0,0.0,0.0,0.0,0.0,0.0,0.0,0.0,0.0,0.0,0.0,0.0,0.0,0.0,0.0,0.0,0.0,0.0,0.0,0.0,0.0,0.0,0.0,0.0,0.0,0.0,0.0,0.0,0.0,0.0,0.0,0.0,0.0,0.0,0.0,0.0,0.0,0.0,0.0,0.0,0.0,0.0,0.0,0.0,0.0,0.0,0.0,0.0,0.0,0.0,0.0,0.0,0.0,0.0,0.0,0.0,0.0,0.0,0.0,0.0,0.0,0.0,0.0,0.0,0.0,0.0,0.0,0.0,0.0,0.0,0.0,0.0,0.0,0.0,0.0,0.0,0.0,0.0,0.0,0.0,0.0,0.0,0.0,0.0,0.0,0.0,0.0,0.0,0.0,0.0,0.0,0.0,0.0,0.0,0.0,0.0,0.0,0.0,0.0,0.0,0.0,0.0,0.0,0.0,0.0,-3.2425,-3.2496,-3.2648,-3.2617,-3.2313,0.0,0.0,0.0,0.0,0.0,0.0,0.0,0.0,0.0,0.0,0.0,0.0,0.0,0.0,0.0,0.0,0.0,0.0,0.0,0.0,0.0,0.0,0.0,0.0,0.0,0.0,0.0,0.0,0.0,0.0,0.0,0.0,0.0,0.0,0.0,0.0,0.0,0.0,0.0,0.0,0.0,0.0,0.0,0.0,0.0,0.0,0.0,0.0,0.0,0.0,0.0,0.0,0.0,0.0,0.0,0.0,0.0,0.0,0.0,0.0,0.0,0.0,0.0,0.0,0.0,0.0,0.0,0.0,0.0,0.0,0.0,0.0,0.0,0.0,0.0,0.0,0.0,0.0,0.0,0.0,0.0,0.0,0.0,0.0,0.0,0.0,0.0,0.0,0.0,0.0,0.0,0.0,0.0,0.0,0.0,0.0,0.0,0.0,0.0,0.0,0.0,0.0,0.0,0.0,0.0,0.0,0.0,0.0,0.0,0.0,0.0,0.0,-3.2523,-3.2544,-3.2358,0.0,0.0,0.0,0.0,0.0,0.0,0.0,0.0,0.0,0.0,0.0,0.0,0.0,0.0,0.0,0.0,0.0,0.0,0.0,0.0,0.0,0.0,0.0,0.0,0.0,0.0,0.0,0.0,0.0,0.0,0.0,0.0,0.0,0.0,0.0,0.0,0.0,0.0,0.0,0.0,0.0,0.0,0.0,0.0,0.0,0.0,0.0,0.0,0.0,0.0,0.0,0.0,0.0,0.0,0.0,0.0,0.0,0.0,0.0,0.0,0.0,0.0,0.0,0.0,0.0,0.0,0.0,0.0,0.0,0.0,0.0,0.0,0.0,0.0,0.0,0.0,0.0,0.0,0.0,0.0,0.0,0.0,0.0,0.0,0.0,0.0,0.0,0.0,0.0,0.0,0.0,0.0,0.0,0.0,0.0,0.0,0.0,0.0,0.0,0.0,0.0,0.0,0.0,0.0,0.0,0.0,0.0,0.0,0.0,0.0,-3.2398,-3.2398,-3.2508,0.0,-3.1738,0.0,0.0,0.0,0.0,0.0,0.0,0.0,0.0,0.0,0.0,0.0,0.0,0.0,0.0,0.0,0.0,0.0,0.0,0.0,0.0,0.0,0.0,0.0,0.0,0.0,0.0,0.0,0.0,0.0,0.0,0.0,0.0,0.0,0.0,0.0,0.0,0.0,0.0,0.0,0.0,0.0,0.0,0.0,0.0,0.0,0.0,0.0,0.0,0.0,0.0,0.0,0.0,0.0,0.0,0.0,0.0,0.0,0.0,0.0,0.0,0.0,0.0,0.0,0.0,0.0,0.0,0.0,0.0,0.0,0.0,0.0,0.0,0.0,0.0,0.0,0.0,0.0,0.0,0.0,0.0,0.0,0.0,0.0,0.0,0.0,0.0,0.0,0.0,0.0,0.0,0.0,0.0,0.0,0.0,0.0,0.0,0.0,0.0,0.0,0.0,0.0,0.0,0.0,0.0,0.0,0.0,0.0,0.0,0.0,0.0,-3.2315,-3.2398,-3.2453,-3.2357,0.0,0.0,0.0,0.0,0.0,0.0,0.0,0.0,0.0,0.0,0.0,0.0,0.0,0.0,0.0,0.0,0.0,0.0,0.0,0.0,0.0,0.0,0.0,0.0,0.0,0.0,0.0,0.0,0.0,0.0,0.0,0.0,0.0,0.0,0.0,0.0,0.0,0.0,0.0,0.0,0.0,0.0,0.0,0.0,0.0,0.0,0.0,0.0,0.0,0.0,0.0,0.0,0.0,0.0,0.0,0.0,0.0,0.0,0.0,0.0,0.0,0.0,0.0,0.0,0.0,0.0,0.0,0.0,0.0,0.0,0.0,0.0,0.0,0.0,0.0,0.0,0.0,0.0,0.0,0.0,0.0,0.0,0.0,0.0,0.0,0.0,0.0,0.0,0.0,0.0,0.0,0.0,0.0,0.0,0.0,0.0,0.0,0.0,0.0,0.0,0.0,0.0,0.0,0.0,0.0,0.0,0.0,0.0,0.0,0.0,-3.2191,-3.2274,-3.2398,-3.2398,-3.2398,-3.2398,0.0,0.0,0.0,0.0,0.0,0.0,0.0,0.0,0.0,0.0,0.0,0.0,0.0,0.0,0.0,0.0,0.0,0.0,0.0,0.0,0.0,0.0,0.0,0.0,0.0,0.0,0.0,0.0,0.0,0.0,0.0,0.0,0.0,0.0,0.0,0.0,0.0,0.0,0.0,0.0,0.0,0.0,0.0,0.0,0.0,0.0,0.0,0.0,0.0,0.0,0.0,0.0,0.0,0.0,0.0,0.0,0.0,0.0,0.0,0.0,0.0,0.0,0.0,0.0,0.0,0.0,0.0,0.0,0.0,0.0,0.0,0.0,0.0,0.0,0.0,0.0,0.0,0.0,0.0,0.0,0.0,0.0,0.0,0.0,0.0,0.0,0.0,0.0,0.0,0.0,0.0,0.0,0.0,0.0,0.0,0.0,0.0,0.0,0.0,0.0,0.0,0.0,0.0,0.0,0.0,0.0,0.0,0.0,-3.2025,-3.2122,-3.2274,-3.2398,-3.2398,-3.2398,0.0,0.0,0.0,0.0,0.0,0.0,0.0,0.0,0.0,0.0,0.0,0.0,0.0,0.0,0.0,0.0,0.0,0.0,0.0,0.0,0.0,0.0,0.0,0.0,0.0,0.0,0.0,0.0,0.0,0.0,0.0,0.0,0.0,0.0,0.0,0.0,0.0,0.0,0.0,0.0,0.0,0.0,0.0,0.0,0.0,0.0,0.0,0.0,0.0,0.0,0.0,0.0,0.0,0.0,0.0,0.0,0.0,0.0,0.0,0.0,0.0,0.0,0.0,0.0,0.0,0.0,0.0,0.0,0.0,0.0,0.0,0.0,0.0,0.0,0.0,0.0,0.0,0.0,0.0,0.0,0.0,0.0,0.0,0.0,0.0,0.0,0.0,0.0,0.0,0.0,0.0,0.0,0.0,0.0,0.0,0.0,0.0,0.0,0.0,0.0,0.0,0.0,0.0,0.0,0.0,0.0,0.0,0.0,0.0,-3.187,-3.2094,-3.2259,-3.2398,-3.2398,-3.2398,0.0,0.0,0.0,0.0,0.0,0.0,0.0,0.0,0.0,0.0,0.0,0.0,0.0,0.0,0.0,0.0,0.0,0.0,0.0,0.0,0.0,0.0,0.0,0.0,0.0,0.0,0.0,0.0,0.0,0.0,0.0,0.0,0.0,0.0,0.0,0.0,0.0,0.0,0.0,0.0,0.0,0.0,0.0,0.0,0.0,0.0,0.0,0.0,0.0,0.0,0.0,0.0,0.0,0.0,0.0,0.0,0.0,0.0,0.0,0.0,0.0,0.0,0.0,0.0,0.0,0.0,0.0,0.0,0.0,0.0,0.0,0.0,0.0,0.0,0.0,0.0,0.0,0.0,0.0,0.0,0.0,0.0,0.0,0.0,0.0,0.0,0.0,0.0,0.0,0.0,0.0,0.0,0.0,0.0,0.0,0.0,0.0,0.0,0.0,0.0,0.0,0.0,0.0,0.0,0.0,0.0,0.0,0.0,0.0,-3.2504,0.0,-3.2918,-3.3059,-3.2844,-3.2721,0.0,0.0,0.0,0.0,0.0,0.0,0.0,0.0,0.0,0.0,0.0,0.0,0.0,0.0,0.0,0.0,0.0,0.0,0.0,0.0,0.0,0.0,0.0,0.0,0.0,0.0,0.0,0.0,0.0,0.0,0.0,0.0,0.0,0.0,0.0,0.0,0.0,0.0,0.0,0.0,0.0,0.0,0.0,0.0,0.0,0.0,0.0,0.0,0.0,0.0,0.0,0.0,0.0,0.0,0.0,0.0,0.0,0.0,0.0,0.0,0.0,0.0,0.0,0.0,0.0,0.0,0.0,0.0,0.0,0.0,0.0,0.0,0.0,0.0,0.0,0.0,0.0,0.0,0.0,0.0,0.0,0.0,0.0,0.0,0.0,0.0,0.0,0.0,0.0,0.0,0.0,0.0,0.0,0.0,0.0,0.0,0.0,0.0,0.0,0.0,0.0,0.0,0.0,0.0,0.0,0.0,0.0,0.0,-3.3155,-3.3939,-3.4104,-3.4267,-3.4489,-3.3798,-3.3429,0.0,0.0,0.0,0.0,0.0,0.0,0.0,0.0,0.0,0.0,0.0,0.0,0.0,0.0,0.0,0.0,0.0,0.0,0.0,0.0,0.0,0.0,0.0,0.0,0.0,0.0,0.0,0.0,0.0,0.0,0.0,0.0,0.0,0.0,0.0,0.0,0.0,0.0,0.0,0.0,0.0,0.0,0.0,0.0,0.0,0.0,0.0,0.0,0.0,0.0,0.0,0.0,0.0,0.0,0.0,0.0,0.0,0.0,0.0,0.0,0.0,0.0,0.0,0.0,0.0,0.0,0.0,0.0,0.0,0.0,0.0,0.0,0.0,0.0,0.0,0.0,0.0,0.0,0.0,0.0,0.0,0.0,0.0,0.0,0.0,0.0,0.0,0.0,0.0,0.0,0.0,0.0,0.0,0.0,0.0,0.0,0.0,0.0,0.0,0.0,0.0,0.0,0.0,0.0,0.0,0.0,0.0,0.0,0.0,-3.4729,-3.4729,-3.4821,-3.4987,-3.4893,-3.4383,0.0,0.0,0.0,0.0,0.0,0.0,0.0,0.0,0.0,0.0,0.0,0.0,0.0,0.0,0.0,0.0,0.0,0.0,0.0,0.0,0.0,0.0,0.0,0.0,0.0,0.0,0.0,0.0,0.0,0.0,0.0,0.0,0.0,0.0,0.0,0.0,0.0,0.0,0.0,0.0,0.0,0.0,0.0,0.0,0.0,0.0,0.0,0.0,0.0,0.0,0.0,0.0,0.0,0.0,0.0,0.0,0.0,0.0,0.0,0.0,0.0,0.0,0.0,0.0,0.0,0.0,0.0,0.0,0.0,0.0,0.0,0.0,0.0,0.0,0.0,0.0,0.0,0.0,0.0,0.0,0.0,0.0,0.0,0.0,0.0,0.0,0.0,0.0,0.0,0.0,0.0,0.0,0.0,0.0,0.0,0.0,0.0,0.0,0.0,0.0,0.0,0.0,0.0,0.0,0.0,0.0,0.0,0.0,0.0,-3.7014,-3.6645,-3.6539,-3.6682,-3.6413,-3.5707,-3.4599,0.0,0.0,0.0,0.0,0.0,0.0,0.0,0.0,0.0,0.0,0.0,0.0,0.0,0.0,0.0,0.0,0.0,0.0,0.0,0.0,0.0,0.0,0.0,0.0,0.0,0.0,0.0,0.0,0.0,0.0,0.0,0.0,0.0,0.0,0.0,0.0,0.0,0.0,0.0,0.0,0.0,0.0,0.0,0.0,0.0,0.0,0.0,0.0,0.0,0.0,0.0,0.0,0.0,0.0,0.0,0.0,0.0,0.0,0.0,0.0,0.0,0.0,0.0,0.0,0.0,0.0,0.0,0.0,0.0,0.0,0.0,0.0,0.0,0.0,0.0,0.0,0.0,0.0,0.0,0.0,0.0,0.0,0.0,0.0,0.0,0.0,0.0,0.0,0.0,0.0,0.0,0.0,0.0,0.0,0.0,0.0,0.0,0.0,0.0,0.0,0.0,0.0,0.0,0.0,0.0,0.0,0.0,0.0,-4.0526,-3.9756,-3.934,-3.9295,-3.8256,-3.7323,0.0,0.0,0.0,0.0,0.0,0.0,0.0,0.0,0.0,0.0,0.0,0.0,0.0,0.0,0.0,0.0,0.0,0.0,0.0,0.0,0.0,0.0,0.0,0.0,0.0,0.0,0.0,0.0,0.0,0.0,0.0,0.0,0.0,0.0,0.0,0.0,0.0,0.0,0.0,0.0,0.0,0.0,0.0,0.0,0.0,0.0,0.0,0.0,0.0,0.0,0.0,0.0,0.0,0.0,0.0,0.0,0.0,0.0,0.0,0.0,0.0,0.0,0.0,0.0,0.0,0.0,0.0,0.0,0.0,0.0,0.0,0.0,0.0,0.0,0.0,0.0,0.0,0.0,0.0,0.0,0.0,0.0,0.0,0.0,0.0,0.0,0.0,0.0,0.0,0.0,0.0,0.0,0.0,0.0,0.0,0.0,0.0,0.0,0.0,0.0,0.0,0.0,0.0,0.0,0.0,0.0,0.0,0.0,0.0,-4.3166,-4.3343,-4.2582,-4.0827,-4.0082,-3.8921,0.0,0.0,0.0,0.0,0.0,0.0,0.0,0.0,0.0,0.0,0.0,0.0,0.0,0.0,0.0,0.0,0.0,0.0,0.0,0.0,0.0,0.0,0.0,0.0,0.0,0.0,0.0,0.0,0.0,0.0,0.0,0.0,0.0,0.0,0.0,0.0,0.0,0.0,0.0,0.0,0.0,0.0,0.0,0.0,0.0,0.0,0.0,0.0,0.0,0.0,0.0,0.0,0.0,0.0,0.0,0.0,0.0,0.0,0.0,0.0,0.0,0.0,0.0,0.0,0.0,0.0,0.0,0.0,0.0,0.0,0.0,0.0,0.0,0.0,0.0,0.0,0.0,0.0,0.0,0.0,0.0,0.0,0.0,0.0,0.0,0.0,0.0,0.0,0.0,0.0,0.0,0.0,0.0,0.0,0.0,0.0,0.0,0.0,0.0,0.0,0.0,0.0,0.0,0.0,0.0,0.0,0.0,0.0,-4.2879,-4.4297,-4.5187,-4.4929,-4.3441,-4.2093,-4.0397,0.0,0.0,0.0,0.0,0.0,0.0,0.0,0.0,0.0,0.0,0.0,0.0,0.0,0.0,0.0,0.0,0.0,0.0,0.0,0.0,0.0,0.0,0.0,0.0,0.0,0.0,0.0,0.0,0.0,0.0,0.0,0.0,0.0,0.0,0.0,0.0,0.0,0.0,0.0,0.0,0.0,0.0,0.0,0.0,0.0,0.0,0.0,0.0,0.0,0.0,0.0,0.0,0.0,0.0,0.0,0.0,0.0,0.0,0.0,0.0,0.0,0.0,0.0,0.0,0.0,0.0,0.0,0.0,0.0,0.0,0.0,0.0,0.0,0.0,0.0,0.0,0.0,0.0,0.0,0.0,0.0,0.0,0.0,0.0,0.0,0.0,0.0,0.0,0.0,0.0,0.0,0.0,0.0,0.0,0.0,0.0,0.0,0.0,0.0,0.0,0.0,0.0,0.0,0.0,0.0,0.0,0.0,0.0,-4.4194,-4.4586,-4.5964,-4.6584,-4.632,-4.4036,-4.1843,0.0,0.0,0.0,0.0,0.0,0.0,0.0,0.0,0.0,0.0,0.0,0.0,0.0,0.0,0.0,0.0,0.0,0.0,0.0,0.0,0.0,0.0,0.0,0.0,0.0,0.0,0.0,0.0,0.0,0.0,0.0,0.0,0.0,0.0,0.0,0.0,0.0,0.0,0.0,0.0,0.0,0.0,0.0,0.0,0.0,0.0,0.0,0.0,0.0,0.0,0.0,0.0,0.0,0.0,0.0,0.0,0.0,0.0,0.0,0.0,0.0,0.0,0.0,0.0,0.0,0.0,0.0,0.0,0.0,0.0,0.0,0.0,0.0,0.0,0.0,0.0,0.0,0.0,0.0,0.0,0.0,0.0,0.0,0.0,0.0,0.0,0.0,0.0,0.0,0.0,0.0,0.0,0.0,0.0,0.0,0.0,0.0,0.0,0.0,0.0,0.0,0.0,0.0,0.0,0.0,0.0,0.0,0.0,-4.5238,-4.6412,-4.7072,-4.7196,-4.6852,-4.4952,-4.3324,0.0,0.0,0.0,0.0,0.0,0.0,0.0,0.0,0.0,0.0,0.0,0.0,0.0,0.0,0.0,0.0,0.0,0.0,0.0,0.0,0.0,0.0,0.0,0.0,0.0,0.0,0.0,0.0,0.0,0.0,0.0,0.0,0.0,0.0,0.0,0.0,0.0,0.0,0.0,0.0,0.0,0.0,0.0,0.0,0.0,0.0,0.0,0.0,-2.8305,0.0,0.0,0.0,0.0,0.0,0.0,0.0,0.0,0.0,0.0,0.0,0.0,0.0,0.0,0.0,0.0,0.0,0.0,0.0,0.0,0.0,0.0,0.0,0.0,0.0,0.0,0.0,0.0,0.0,0.0,0.0,0.0,0.0,0.0,0.0,0.0,0.0,0.0,0.0,0.0,0.0,0.0,0.0,0.0,0.0,0.0,0.0,0.0,0.0,0.0,0.0,0.0,0.0,0.0,0.0,0.0,0.0,0.0,0.0,-4.491,-4.5858,-4.6316,-4.6482,-4.6358,-4.545,-4.4104,0.0,0.0,0.0,0.0,0.0,0.0,0.0,0.0,0.0,0.0,0.0,0.0,0.0,0.0,0.0,0.0,0.0,0.0,0.0,0.0,0.0,0.0,0.0,0.0,0.0,0.0,0.0,0.0,0.0,0.0,0.0,0.0,0.0,0.0,0.0,0.0,0.0,0.0,0.0,0.0,0.0,0.0,0.0,0.0,0.0,0.0,0.0,0.0,0.0,0.0,0.0,0.0,0.0,0.0,0.0,0.0,0.0,0.0,0.0,0.0,0.0,0.0,0.0,0.0,0.0,0.0,0.0,0.0,0.0,0.0,0.0,0.0,0.0,0.0,0.0,0.0,0.0,0.0,0.0,0.0,0.0,0.0,0.0,0.0,0.0,0.0,0.0,0.0,0.0,0.0,0.0,0.0,0.0,0.0,0.0,0.0,0.0,0.0,0.0,0.0,0.0,0.0,0.0,0.0,0.0,0.0,0.0,-4.3503,-4.4295,-4.472,-4.5087,-4.5387,-4.5608,-4.5634,-4.4533,-4.2376,0.0,0.0,0.0,0.0,0.0,0.0,0.0,0.0,0.0,0.0,0.0,0.0,0.0,0.0,0.0,0.0,0.0,0.0,0.0,0.0,0.0,0.0,0.0,0.0,0.0,0.0,0.0,0.0,0.0,0.0,0.0,0.0,0.0,0.0,0.0,0.0,0.0,0.0,-2.5559,-2.6995,0.0,0.0,0.0,0.0,0.0,0.0,0.0,0.0,-3.0321,0.0,0.0,0.0,0.0,0.0,0.0,0.0,0.0,0.0,0.0,0.0,0.0,0.0,0.0,0.0,0.0,0.0,0.0,0.0,0.0,0.0,0.0,0.0,0.0,0.0,0.0,0.0,0.0,0.0,0.0,0.0,0.0,0.0,0.0,0.0,0.0,0.0,0.0,0.0,0.0,0.0,0.0,0.0,0.0,0.0,0.0,0.0,0.0,0.0,0.0,0.0,0.0,0.0,0.0,0.0,0.0,-4.2804,-4.4124,-4.4911,-4.5192,-4.5271,-4.5331,-4.5387,-4.5567,-4.4695,-4.2651,0.0,0.0,0.0,0.0,0.0,0.0,0.0,0.0,0.0,0.0,0.0,0.0,0.0,0.0,0.0,0.0,0.0,0.0,0.0,0.0,0.0,0.0,0.0,0.0,0.0,0.0,0.0,0.0,0.0,0.0,0.0,0.0,0.0,0.0,0.0,0.0,0.0,0.0,0.0,-2.7826,-2.8738,0.0,0.0,0.0,0.0,0.0,0.0,0.0,0.0,-3.0784,0.0,0.0,0.0,0.0,0.0,0.0,0.0,0.0,0.0,0.0,0.0,0.0,0.0,0.0,0.0,0.0,0.0,0.0,0.0,0.0,0.0,0.0,0.0,0.0,0.0,0.0,0.0,0.0,0.0,0.0,0.0,0.0,0.0,0.0,0.0,0.0,0.0,0.0,0.0,0.0,0.0,0.0,0.0,0.0,0.0,0.0,0.0,0.0,0.0,0.0,0.0,0.0,0.0,0.0,0.0,-4.3031,-4.4174,-4.4625,-4.4287,-4.4272,-4.4231,-4.4287,-4.4738,-4.4028,0.0,0.0,0.0,0.0,0.0,0.0,0.0,0.0,0.0,0.0,0.0,0.0,0.0,0.0,0.0,0.0,0.0,0.0,0.0,0.0,0.0,0.0,0.0,0.0,0.0,0.0,0.0,0.0,0.0,0.0,0.0,0.0,0.0,0.0,0.0,0.0,0.0,0.0,0.0,0.0,-2.8726,-2.9683,-3.0681,0.0,0.0,0.0,0.0,0.0,0.0,-3.1915,-3.1161,0.0,0.0,0.0,0.0,0.0,0.0,0.0,0.0,0.0,0.0,0.0,0.0,0.0,0.0,0.0,0.0,0.0,0.0,0.0,0.0,0.0,0.0,0.0,0.0,0.0,0.0,0.0,0.0,0.0,0.0,0.0,0.0,0.0,0.0,0.0,0.0,0.0,0.0,0.0,0.0,0.0,0.0,0.0,0.0,0.0,0.0,0.0,0.0,0.0,0.0,0.0,0.0,0.0,0.0,0.0,-4.3054,-4.3959,-4.4068,-4.3319,-4.3305,-4.3305,-4.3305,-4.3798,-4.3254,0.0,0.0,0.0,0.0,0.0,0.0,0.0,0.0,0.0,0.0,0.0,0.0,0.0,0.0,0.0,0.0,0.0,0.0,0.0,0.0,0.0,0.0,0.0,0.0,0.0,0.0,0.0,0.0,0.0,0.0,0.0,0.0,0.0,0.0,0.0,0.0,0.0,0.0,0.0,0.0,0.0,-3.0446,-3.1526,-3.128,0.0,0.0,0.0,0.0,-3.3216,-3.2511,0.0,0.0,0.0,0.0,0.0,0.0,0.0,0.0,0.0,0.0,0.0,0.0,0.0,0.0,0.0,0.0,0.0,0.0,0.0,0.0,0.0,0.0,0.0,0.0,0.0,0.0,0.0,0.0,0.0,0.0,0.0,0.0,0.0,0.0,0.0,0.0,0.0,0.0,0.0,0.0,0.0,0.0,0.0,0.0,0.0,0.0,0.0,0.0,0.0,0.0,0.0,0.0,0.0,0.0,0.0,0.0,-4.2986,-4.3536,-4.3632,-4.3305,-4.3305,-4.3305,-4.3305,-4.3364,-4.2791,0.0,0.0,0.0,0.0,0.0,0.0,0.0,0.0,0.0,0.0,0.0,0.0,0.0,0.0,0.0,0.0,0.0,0.0,0.0,0.0,0.0,0.0,0.0,0.0,0.0,0.0,0.0,0.0,0.0,0.0,0.0,0.0,0.0,0.0,0.0,0.0,0.0,0.0,0.0,0.0,0.0,-3.0413,-3.2057,-3.2066,-3.188,0.0,0.0,-3.2729,-3.2947,-3.2844,0.0,0.0,0.0,0.0,0.0,0.0,0.0,0.0,0.0,0.0,0.0,0.0,0.0,0.0,0.0,0.0,0.0,0.0,0.0,0.0,0.0,0.0,0.0,0.0,0.0,0.0,0.0,0.0,0.0,0.0,0.0,0.0,0.0,0.0,0.0,0.0,0.0,0.0,0.0,0.0,0.0,0.0,0.0,0.0,0.0,0.0,0.0,0.0,0.0,0.0,0.0,0.0,0.0,0.0,0.0,-4.3335,-4.3578,-4.4278,-4.4173,-4.3334,-4.3648,-4.3843,-4.3843,-4.3858,-4.3449,0.0,0.0,0.0,0.0,0.0,0.0,0.0,0.0,0.0,0.0,0.0,0.0,0.0,0.0,0.0,0.0,0.0,0.0,0.0,0.0,0.0,0.0,0.0,0.0,0.0,0.0,0.0,0.0,0.0,0.0,0.0,0.0,0.0,0.0,0.0,0.0,0.0,0.0,0.0,0.0,0.0,0.0,-3.1827,-3.2207,0.0,0.0,0.0,-3.2855,-3.3286,0.0,0.0,0.0,0.0,0.0,0.0,0.0,0.0,0.0,0.0,0.0,0.0,0.0,0.0,0.0,0.0,0.0,0.0,0.0,0.0,0.0,0.0,0.0,0.0,0.0,0.0,0.0,0.0,0.0,0.0,0.0,0.0,0.0,0.0,0.0,0.0,0.0,0.0,0.0,0.0,0.0,0.0,0.0,0.0,0.0,0.0,0.0,0.0,0.0,0.0,0.0,0.0,0.0,0.0,0.0,0.0,0.0,-4.4152,-4.4925,-4.4811,-4.3843,-4.4302,-4.4571,-4.4556,-4.4556,0.0,0.0,0.0,0.0,0.0,0.0,0.0,0.0,0.0,0.0,0.0,0.0,0.0,0.0,0.0,0.0,0.0,0.0,0.0,0.0,0.0,0.0,0.0,0.0,0.0,0.0,0.0,-2.9224,0.0,0.0,0.0,0.0,0.0,0.0,0.0,0.0,0.0,0.0,0.0,0.0,0.0,0.0,-3.0932,-3.1597,-3.2209,-3.2803,0.0,0.0,-3.2832,-3.345,-3.3085,-3.223,0.0,0.0,0.0,0.0,0.0,0.0,0.0,0.0,0.0,0.0,0.0,0.0,0.0,0.0,0.0,0.0,0.0,0.0,0.0,0.0,0.0,0.0,0.0,0.0,0.0,0.0,0.0,0.0,0.0,0.0,0.0,0.0,0.0,0.0,0.0,0.0,0.0,0.0,0.0,0.0,0.0,0.0,0.0,0.0,0.0,0.0,0.0,0.0,0.0,0.0,0.0,0.0,0.0,0.0,0.0,-4.4534,-4.5053,-4.5259,-4.517,-4.52,-4.5229,-4.5229,-4.5229,-4.4646,0.0,0.0,0.0,0.0,0.0,0.0,0.0,0.0,0.0,0.0,0.0,0.0,0.0,0.0,0.0,0.0,0.0,0.0,0.0,0.0,0.0,0.0,0.0,0.0,0.0,0.0,0.0,0.0,0.0,0.0,0.0,0.0,0.0,0.0,0.0,0.0,0.0,0.0,0.0,0.0,0.0,-3.1077,-3.162,-3.2286,-3.2803,0.0,0.0,-3.2803,-3.3099,-3.3099,-3.2557,-3.1017,0.0,0.0,0.0,0.0,0.0,0.0,0.0,0.0,0.0,0.0,0.0,0.0,0.0,0.0,0.0,0.0,0.0,0.0,0.0,0.0,0.0,0.0,0.0,0.0,0.0,0.0,0.0,0.0,0.0,0.0,0.0,0.0,0.0,0.0,0.0,0.0,0.0,0.0,0.0,0.0,0.0,0.0,0.0,0.0,0.0,0.0,0.0,0.0,0.0,0.0,0.0,0.0,0.0,-4.3877,-4.4609,-4.5447,-4.5723,-4.5334,-4.5708,-4.5933,-4.5933,-4.5933,-4.5651,0.0,0.0,0.0,0.0,0.0,0.0,0.0,0.0,0.0,0.0,0.0,0.0,0.0,0.0,0.0,0.0,0.0,0.0,0.0,0.0,0.0,0.0,0.0,0.0,0.0,0.0,0.0,0.0,-3.1796,-3.1613,-3.0517,0.0,0.0,0.0,0.0,0.0,0.0,0.0,0.0,0.0,0.0,-3.1149,-3.1912,-3.1988,0.0,0.0,-3.2481,-3.222,-3.2766,-3.2736,-3.2259,-3.1071,-3.0206,0.0,0.0,0.0,0.0,0.0,0.0,0.0,0.0,0.0,0.0,0.0,0.0,0.0,0.0,0.0,0.0,0.0,0.0,0.0,0.0,0.0,0.0,0.0,0.0,0.0,0.0,0.0,0.0,0.0,0.0,0.0,0.0,0.0,0.0,0.0,0.0,0.0,0.0,0.0,0.0,0.0,0.0,0.0,0.0,0.0,0.0,0.0,0.0,0.0,0.0,0.0,0.0,-4.4146,-4.4804,-4.6017,-4.6396,-4.5903,-4.6367,-4.6621,-4.6578,-4.6621,-4.6531,0.0,0.0,0.0,0.0,0.0,0.0,0.0,0.0,0.0,0.0,0.0,0.0,0.0,0.0,0.0,0.0,0.0,0.0,0.0,0.0,0.0,0.0,0.0,0.0,0.0,0.0,0.0,0.0,-3.192,-3.1468,-3.0071,0.0,0.0,0.0,0.0,0.0,0.0,0.0,0.0,0.0,0.0,-3.147,-3.1905,-3.1822,-3.1945,-3.2593,-3.2001,-3.1725,-3.232,-3.2288,-3.186,-3.085,0.0,0.0,0.0,0.0,0.0,0.0,0.0,0.0,0.0,0.0,0.0,0.0,0.0,0.0,0.0,0.0,0.0,0.0,0.0,0.0,0.0,0.0,0.0,0.0,0.0,0.0,0.0,0.0,0.0,0.0,-4.0879,0.0,0.0,0.0,0.0,0.0,0.0,0.0,0.0,0.0,0.0,0.0,0.0,0.0,0.0,0.0,0.0,0.0,0.0,0.0,0.0,0.0,0.0,-4.4158,-4.5286,-4.6576,-4.7264,-4.7234,-4.7279,-4.7264,-4.7264,-4.7279,-4.698,-4.6294,0.0,0.0,0.0,0.0,0.0,0.0,0.0,0.0,0.0,0.0,0.0,0.0,0.0,0.0,0.0,0.0,0.0,0.0,0.0,0.0,0.0,0.0,0.0,0.0,0.0,0.0,-3.0294,-3.079,-3.0804,0.0,0.0,0.0,0.0,0.0,0.0,0.0,0.0,0.0,0.0,-3.1185,-3.2009,-3.1607,-3.1791,-3.1869,-3.1773,-3.1484,-3.1395,-3.1673,-3.1705,-3.1327,0.0,0.0,0.0,0.0,0.0,0.0,0.0,0.0,0.0,0.0,0.0,0.0,0.0,0.0,0.0,0.0,0.0,0.0,0.0,0.0,0.0,0.0,0.0,0.0,0.0,0.0,0.0,-4.1775,-4.3824,0.0,0.0,0.0,0.0,0.0,0.0,0.0,0.0,0.0,0.0,0.0,-4.5767,-4.5347,0.0,0.0,0.0,0.0,0.0,0.0,0.0,0.0,0.0,0.0,0.0,0.0,-4.4584,-4.5304,-4.6621,-4.7309,-4.7309,-4.7309,-4.7309,-4.7309,-4.7309,-4.6634,-4.5172,0.0,0.0,0.0,0.0,0.0,0.0,0.0,0.0,0.0,0.0,0.0,0.0,0.0,0.0,0.0,0.0,0.0,0.0,0.0,0.0,0.0,0.0,0.0,0.0,0.0,-3.0888,0.0,0.0,0.0,0.0,0.0,0.0,0.0,0.0,0.0,0.0,0.0,-3.0318,-3.0873,-3.1262,-3.1559,-3.161,-3.0986,-3.0794,0.0,0.0,0.0,0.0,0.0,0.0,0.0,0.0,0.0,0.0,0.0,0.0,0.0,0.0,-2.6824,-2.6206,-2.6213,-2.639,-2.6494,0.0,0.0,0.0,0.0,0.0,0.0,0.0,0.0,0.0,0.0,0.0,0.0,0.0,0.0,0.0,0.0,-4.6969,0.0,0.0,0.0,0.0,0.0,0.0,0.0,0.0,-4.8183,-4.815,-4.7637,-4.698,-4.6054,0.0,-4.4906,-4.4148,0.0,0.0,0.0,0.0,0.0,0.0,0.0,0.0,-4.4847,-4.5648,-4.6741,-4.7309,-4.7309,-4.7309,-4.7309,-4.7309,-4.6975,-4.6212,-4.4961,-4.3853,-4.2179,0.0,0.0,0.0,0.0,0.0,0.0,0.0,0.0,0.0,0.0,0.0,0.0,0.0,0.0,0.0,0.0,0.0,0.0,0.0,0.0,0.0,0.0,0.0,-3.0842,0.0,0.0,0.0,0.0,0.0,0.0,0.0,0.0,0.0,-2.9392,-2.9865,-3.0479,-3.1369,-3.1283,-3.1133,-3.1291,0.0,0.0,0.0,0.0,0.0,0.0,0.0,-2.99,-2.9929,-2.9919,-2.9797,-2.9564,-2.9021,-2.8663,-2.871,0.0,0.0,-2.7173,-2.7144,-2.7377,-2.7545,-2.7631,-2.7746,-2.7907,-2.7921,-2.7921,0.0,0.0,0.0,0.0,0.0,0.0,0.0,0.0,-4.6515,-4.7365,0.0,-4.8995,0.0,0.0,0.0,0.0,0.0,-4.7978,0.0,0.0,-5.0518,-5.0469,-4.9159,-4.8773,-4.783,-4.6342,-4.5843,-4.551,-4.5236,-4.4421,0.0,0.0,0.0,0.0,0.0,0.0,-4.4979,-4.6234,-4.6965,-4.7309,-4.7309,-4.7309,-4.7266,-4.7207,-4.6299,-4.5779,-4.5615,-4.375,-4.238,-4.1686,-3.952,0.0,0.0,0.0,0.0,0.0,0.0,0.0,0.0,0.0,0.0,0.0,0.0,0.0,0.0,0.0,0.0,0.0,0.0,0.0,0.0,-3.0686,0.0,0.0,0.0,0.0,0.0,0.0,0.0,0.0,0.0,0.0,-2.9059,-2.969,-3.0442,-3.1363,0.0,0.0,0.0,0.0,-2.9623,-2.9194,-2.9137,-2.9066,-2.8902,-2.9157,-2.9391,-2.9409,0.0,0.0,-2.974,-2.9513,-2.9416,-2.9416,-2.9516,-2.9321,-2.8169,-2.8189,-2.8348,-2.8369,-2.8557,-2.8638,-2.8659,-2.8659,-2.8659,-4.5887,0.0,0.0,0.0,0.0,-4.3301,-4.5111,-4.8071,-4.8274,-4.9421,-5.1129,-5.1315,0.0,0.0,0.0,0.0,0.0,0.0,-5.0861,-5.0977,-5.0364,-5.0048,-4.9992,-4.8893,-4.7745,-4.6634,-4.7397,-4.7157,-4.6045,-4.6247,-4.5823,-4.4856,0.0,0.0,0.0,0.0,-4.5906,-4.6337,-4.6965,-4.7309,-4.7309,-4.7309,-4.6975,-4.6255,-4.5973,-4.513,-4.3721,-4.3094,-4.2242,-4.109,-4.002,0.0,0.0,0.0,0.0,0.0,0.0,0.0,0.0,0.0,0.0,0.0,0.0,0.0,0.0,0.0,0.0,0.0,0.0,0.0,-3.1084,-3.1193,-3.1113,0.0,0.0,0.0,0.0,0.0,0.0,0.0,0.0,0.0,-2.8871,-2.973,-3.0521,0.0,0.0,-3.0,-2.9577,-2.9427,-2.9295,-2.9306,-2.93,0.0,0.0,-2.9387,-2.9469,-2.9608,-2.9857,-3.0016,-2.9912,-2.9891,-2.9807,-2.9797,-2.987,-2.9808,-2.9496,-2.9464,-2.9496,-2.9528,-2.957,-2.9591,-2.9601,-2.9601,-2.9591,-5.0053,-4.8005,-4.5608,-4.5275,-4.6312,-4.6375,-4.802,-5.0794,-5.0794,-5.1539,-5.2757,-5.2455,-5.1631,-5.0491,-5.014,0.0,0.0,0.0,-5.1353,-5.1302,-5.0396,-5.0,-4.9984,-4.8715,-4.785,-4.7368,-4.7637,-4.7272,-4.6434,-4.7023,-4.6933,-4.6266,0.0,0.0,-4.6112,-4.677,-4.7234,-4.7489,-4.7878,-4.8087,-4.8072,-4.7833,-4.7214,-4.6216,-4.5547,-4.4438,-4.2889,-4.2431,-4.1856,-4.1035,-4.0434,-3.9588,0.0,0.0,0.0,0.0,0.0,0.0,0.0,0.0,0.0,0.0,0.0,-3.118,-3.1117,0.0,0.0,0.0,-3.1599,-3.1584,-3.2001,-3.1851,0.0,0.0,0.0,0.0,0.0,0.0,0.0,-2.8028,-2.8348,-2.8619,-2.8452,-2.9043,-2.9642,-3.009,-2.9757,-2.9322,-2.9146,0.0,-2.9104,-2.9232,-2.9215,-2.9221,-2.9253,-2.9312,-2.9457,-2.9775,-2.9912,-2.9994,-2.9994,-2.9994,-2.9994,-2.9994,-2.9994,-2.9994,-2.9994,-2.9994,-2.9994,-2.9994,-2.9994,-2.9994,-2.9994,-2.9994,-2.9994,-5.3996,-5.3158,-4.7594,-4.6811,-4.9212,-4.9246,-5.0784,-5.3281,-5.3298,-5.3298,-5.323,-5.2537,-5.1822,-5.1146,-5.0344,0.0,-5.1797,-5.0999,-5.0677,-5.071,-5.0499,-5.0118,-4.9575,-4.8455,-4.8091,-4.8297,-4.7084,-4.6536,-4.6719,-4.7081,-4.7294,-4.7309,-4.7354,-4.7384,-4.7414,-4.7982,-4.8655,-4.9299,-4.9284,-4.9299,-4.9284,-4.8566,-4.7718,-4.6674,-4.5057,-4.3687,-4.2695,-4.1782,-4.1311,-4.1298,-4.0788,-4.0239,-3.9664,0.0,0.0,0.0,0.0,0.0,0.0,0.0,0.0,0.0,0.0,0.0,0.0,0.0,0.0,0.0,-3.2374,0.0,-3.3031,-3.2554,0.0,0.0,0.0,-3.1276,-3.103,-3.0229,-2.9501,-2.8966,0.0,0.0,-2.7902,-2.7989,-2.8322,-2.9255,-2.8983,-2.8769,-2.9064,-2.9042,-2.904,-2.9061,-2.9092,-2.9003,-2.8927,-2.9186,-2.9538,-2.9932,-2.9994,-2.9994,-2.9994,-2.9994,-2.9994,-2.9994,-2.9994,-2.9994,-2.9994,-2.9994,-2.9994,-2.9994,-2.9994,-2.9994,-2.9994,-2.9994,-2.9994,-5.3749,-5.2908,-5.1279,-5.0994,-5.1507,-5.1507,-5.1574,-5.1663,-5.168,-5.168,-5.1643,-5.1496,-5.1618,-5.1974,-5.1789,-5.1893,-5.2148,-5.1361,-5.0976,-5.0906,-4.9745,-4.9371,-4.9628,-4.8801,-4.8255,-4.798,-4.8208,-4.7985,-4.7398,-4.7306,-4.7381,-4.7525,-4.789,-4.8057,-4.8057,-4.8207,-4.8611,-4.9299,-4.9299,-4.9299,-4.9254,-4.7907,-4.6674,-4.5652,-4.4054,-4.266,-4.1696,-4.1411,-4.1311,-4.1311,-4.118,-4.084,-4.0239,-3.8998,0.0,0.0,0.0,0.0,0.0,0.0,0.0,0.0,0.0,-3.2898,-3.2782,0.0,-3.2571,0.0,-3.2923,-3.293,-3.3099,-3.2554,0.0,0.0,-3.1725,-3.1005,-3.0055,-3.0301,-2.984,-2.8128,-2.8433,-2.8368,-2.7511,-2.7568,-2.782,-2.8226,-2.8529,-2.879,-2.9014,-2.9157,-2.9247,-2.9278,-2.9528,-2.9715,-2.9642,-2.9746,-2.986,-2.9973,-2.9994,-2.9994,-2.9994,-2.9994,-2.9994,-2.9994,-2.9994,-2.9994,-2.9994,-2.9994,-2.9994,-2.9994,-2.9994,-2.9994,-2.9994,-2.9994,-2.9994,-5.3782,-5.294,-5.2733,-5.2117,-5.1401,-5.1659,-5.1337,-5.0638,-5.0962,-5.0751,-5.0184,-5.0102,-5.0306,-5.0765,-5.1106,-5.1438,-5.1696,-5.0935,-5.0378,-5.0019,-4.9143,-4.8914,-4.927,-4.8725,-4.8562,-4.8747,-4.8569,-4.8271,-4.7794,-4.7681,-4.7581,-4.7596,-4.7871,-4.8158,-4.8458,-4.8655,-4.894,-4.9299,-4.9299,-4.9073,-4.8619,-4.7437,-4.6117,-4.465,-4.3444,-4.2333,-4.1311,-4.1311,-4.1311,-4.1311,-4.1311,-4.1167,-4.0814,-3.973,-3.8553,0.0,0.0,0.0,0.0,0.0,0.0,0.0,0.0,0.0,0.0,0.0,-3.36,-3.3784,-3.3208,-3.2783,-3.2783,-3.1874,-3.1298,-3.1298,-3.1033,-3.0594,-2.9933,-2.985,-2.9385,-2.8252,-2.8223,-2.8032,-2.7331,-2.7557,-2.7862,-2.8173,-2.8648,-2.8987,-2.9159,-2.9424,-2.9611,-2.9622,-2.9829,-2.9994,-2.9994,-2.9994,-2.9994,-2.9994,-2.9994,-2.9994,-2.9994,-2.9994,-2.9994,-2.9994,-2.9994,-2.9994,-2.9994,-2.9994,-2.9994,-2.9994,-2.9994,-2.9994,-2.9994,-2.9994,-2.9994,-5.3765,-5.2836,-5.2612,-5.161,-5.012,-5.0631,-5.0435,-4.9871,-5.0515,-5.0097,-4.8932,-4.8958,-4.8959,-4.899,-4.9623,-5.0283,-5.0881,-5.0088,-4.9363,-4.8773,-4.8639,-4.8674,-4.8757,-4.8476,-4.8811,-4.9646,-4.8563,-4.8049,-4.8049,-4.8007,-4.788,-4.7666,-4.7639,-4.7882,-4.8454,-4.8864,-4.9134,-4.9299,-4.9269,-4.8786,-4.7864,-4.6975,-4.5681,-4.3933,-4.302,-4.2199,-4.1361,-4.1311,-4.1311,-4.1311,-4.1311,-4.1311,-4.1285,-4.0305,-3.9416,0.0,-3.722,0.0,0.0,0.0,0.0,0.0,0.0,0.0,0.0,-3.5175,-3.4906,-3.452,-3.3268,-3.2466,-3.2466,-3.12,-3.0422,-3.05,-3.0352,-3.0193,-2.9988,-2.9222,-2.8678,-2.8549,-2.7862,-2.7392,-2.7413,-2.7738,-2.8183,-2.8638,-2.899,-2.931,-2.9415,-2.9725,-2.9963,-2.9994,-2.9994,-2.9994,-2.9994,-2.9994,-2.9994,-2.9994,-2.9994,-2.9994,-2.9994,-2.9994,-2.9994,-2.9994,-2.9994,-2.9994,-2.9994,-2.9994,-2.9994,-2.9994,-2.9994,-2.9994,-2.9994,-2.9994,-2.9994,-5.2768,-5.1475,-5.1273,-5.0515,-4.9461,-4.9396,-4.9181,-4.8879,-4.9019,-4.8926,-4.8749,-4.9402,-4.9702,-4.9718,-4.9844,-4.9986,-5.0065,-4.9244,-4.8774,-4.8666,-4.8641,-4.8625,-4.8651,-4.8584,-4.8578,-4.8563,-4.837,-4.8244,-4.8244,-4.8091,-4.8049,-4.8175,-4.7794,-4.7641,-4.7776,0.0,0.0,0.0,-4.8862,-4.8481,-4.805,-4.6116,-4.474,-4.4094,-4.2471,0.0,-4.1311,-4.1311,-4.1311,-4.1311,-4.1311,0.0,0.0,0.0,0.0,0.0,0.0,0.0,0.0,0.0,0.0,0.0,-3.5481,-3.5212,-3.5372,-3.4996,-3.4384,-3.3499,-3.3126,-3.2973,-3.2973,-3.195,-3.1448,-3.1912,-3.1169,-3.0237,-2.915,-2.8828,-2.8445,-2.7631,-2.7717,-2.779,-2.7821,-2.8204,-2.8649,-2.9073,-2.9249,-2.9456,-2.9808,-2.9932,-2.9994,-2.9994,-2.9994,-2.9994,-2.9994,-2.9994,-2.9994,-2.9994,-2.9994,-2.9994,-2.9994,-2.9994,-2.9994,-2.9994,-2.9994,-2.9994,-2.9994,-2.9994,-2.9994,-2.9994,-2.9994,-2.9994,-2.9994,-2.9994,-2.9994,-5.2489,0.0,-5.0876,-5.026,0.0,-4.9159,-4.8898,-4.8816,-4.8661,-4.8419,-4.8153,-4.8584,-4.8785,-4.88,-4.9128,-4.9244,-4.9244,-4.8769,-4.8604,-4.8604,-4.8604,-4.8604,-4.8604,-4.8604,-4.8578,-4.8453,-4.8469,-4.8412,-4.8286,-4.8286,-4.8286,-4.8286,-4.7964,-4.7794,-4.7794,-4.7467,-4.739,-4.7553,-4.7328,-4.6659,-4.5572,-4.4325,-4.3413,-4.2802,0.0,0.0,0.0,0.0,0.0,0.0,0.0,0.0,0.0,0.0,0.0,-3.922,-3.8619,-3.7913,-3.7077,-3.6985,-3.6953,-3.6805,-3.6353,-3.5862,-3.5517,-3.503,-3.4513,-3.3958,-3.2804,-3.2018,-3.1959,-3.0849,-3.018,-3.0454,-3.005,-2.9386,-2.8759,-2.863,-2.8448,-2.8091,-2.8121,-2.8266,-2.8276,-2.8669,-2.9021,-2.928,-2.9508,-2.9725,-2.9942,-2.9994,-2.9994,-2.9994,-2.9994,-2.9994,-2.9994,-2.9994,-2.9994,-2.9994,-2.9994,-2.9994,-2.9994,-2.9994,-2.9994,-2.9994,-2.9994,-2.9994,-2.9994,-2.9994,-2.9994,-2.9994,-2.9994,-2.9994,-2.9994,-2.9994,-2.9994,-5.2186,-5.0892,-5.0701,-5.0237,-4.9573,-4.9225,-4.8996,-4.8898,0.0,0.0,0.0,-4.7788,-4.7773,-4.7819,-4.8373,-4.8604,-4.8604,-4.8604,-4.8604,-4.8604,-4.8604,-4.8604,-4.8604,-4.8604,-4.8604,-4.8604,-4.8604,-4.8537,-4.837,-4.8537,-4.8521,-4.8328,-4.8175,-4.7907,-4.7651,-4.7221,-4.6447,-4.5358,-4.5553,-4.4748,-4.295,-4.2757,-4.2284,-4.1411,-4.1311,-4.1311,-4.1311,-4.1311,-4.1311,-4.1311,-4.1311,-4.1311,-4.1298,-4.084,-4.0331,-3.9782,-3.9194,-3.8632,-3.8083,-3.7965,-3.7795,-3.7505,-3.7074,-3.6485,-3.5705,-3.5123,-3.4775,-3.4775,-3.2651,-3.1324,-3.1263,-3.001,-2.9105,-2.9042,-2.8821,-2.87,-2.8618,-2.8618,-2.8566,-2.8618,-2.8669,-2.8742,-2.8752,-2.9135,-2.9425,-2.9477,-2.9746,-2.9994,-2.9994,-2.9994,-2.9994,-2.9994,-2.9994,-2.9994,-2.9994,-2.9994,-2.9994,-2.9994,-2.9994,-2.9994,-2.9994,-2.9994,-2.9994,-2.9994,-2.9994,-2.9994,-2.9994,-2.9994,-2.9994,-2.9994,-2.9994,-2.9994,-2.9994,-2.9994,-2.9994,-5.0876,-5.0073,-5.0034,-4.9876,-4.9597,-4.9356,-4.9031,-4.8676,-4.862,-4.8558,-4.8481,-4.844,-4.8466,-4.8481,-4.8573,-4.8604,-4.8604,-4.8604,-4.8604,0.0,-4.8604,-4.8604,-4.8604,-4.8604,-4.8604,-4.8604,-4.8604,-4.8578,-4.8563,-4.8563,-4.8563,-4.8537,-4.837,-4.7606,-4.6432,-4.6137,-4.5084,-4.3307,-4.4531,-4.4513,-4.317,-4.2506,-4.2029,-4.1647,-4.1411,-4.1311,-4.1311,-4.1311,-4.1311,-4.1311,-4.1311,-4.1311,-4.1311,-4.1182,-4.0932,-4.0331,-3.9782,-3.922,-3.8632,-3.8161,-3.7795,-3.7505,-3.7201,-3.6837,-3.6304,-3.5378,-3.4775,-3.4727,-3.3444,-3.2887,-3.2837,-3.1743,-3.0867,-3.0521,-2.9745,-2.9052,-2.8711,-2.8669,-2.868,-2.869,-2.898,-2.9208,-2.9249,-2.9601,-2.986,-2.9891,-2.9932,-2.9994,-2.9994,-2.9994,-2.9994,-2.9994,-2.9994,-2.9994,-2.9994,-2.9994,-2.9994,-2.9994,-2.9994,-2.9994,-2.9994,-2.9994,-2.9994,-2.9994,-2.9994,-2.9994,-2.9994,-2.9994,-2.9994,-2.9994,-2.9994,-2.9994,-2.9994,-2.9994,-2.9994,-5.064,-4.9916,-4.9916,-4.9836,-4.9717,-4.9437,-4.9128,-4.88,-4.8661,-4.8604,-4.8604,-4.8604,-4.8604,-4.8604,-4.8604,-4.8604,-4.8604,-4.8604,-4.8604,-4.8604,-4.8604,-4.8604,-4.8604,-4.8604,-4.8604,-4.8604,-4.8604,-4.8604,-4.8604,-4.8604,-4.8604,-4.8563,-4.8412,-4.7563,-4.6196,-4.5988,-4.4932,-4.2889,-4.3497,-4.3321,-4.2213,-4.1845,-4.1597,-4.1511,-4.1361,-4.1311,-4.1311,-4.1311,-4.1311,-4.1311,-4.1311,-4.1311,-4.1311,-4.1311,-4.105,-4.0448,-3.9913,-3.9337,-3.8749,-3.8048,-3.7564,-3.7307,-3.7062,-3.6722,-3.6417,-3.4872,-3.3685,-3.3078,-3.2095,-3.1454,-3.1505,-3.1534,-3.1294,-3.0487,-3.0466,-3.0227,-2.9507,-2.9363,-2.9352,-2.9384,-2.9549,-2.9673,-2.9684,-2.986,-2.9994,-2.9994,-2.9994,-2.9994,-2.9994,-2.9994,-2.9994,-2.9994,-2.9994,-2.9994,-2.9994,-2.9994,-2.9994,-2.9994,-2.9994,-2.9994,-2.9994,-2.9994,-2.9994,-2.9994,-2.9994,-2.9994,-2.9994,-2.9994,-2.9994,-2.9994,-2.9994,-2.9994,-2.9994,-2.9994,-2.9994,-5.0486,-4.9916,-4.9916,-4.9876,-4.9812,-4.9517,-4.921,-4.8996,-4.8759,-4.8661,-4.8604,-4.8604,-4.8604,-4.8604,-4.8604,-4.8604,-4.8604,-4.8604,-4.8604,-4.8604,-4.8604,-4.8604,-4.8604,-4.8604,-4.8604,-4.8604,-4.8604,-4.8604,-4.8604,-4.8604,-4.8604,-4.8521,-4.8187,-4.7291,-4.587,-4.56,-4.4456,-4.2598,-4.2466,-4.2101,-4.1324,-4.1311,-4.1311,-4.1311,-4.1311,-4.1311,-4.1311,-4.1311,-4.1311,-4.1311,-4.1311,-4.1311,-4.1311,-4.1311,-4.1115,-4.0618,-3.9978,-3.9285,-3.8579,-3.795,-3.7459,-3.7201,-3.6956,-3.6615,-3.6061,-3.4581,-3.3239,-3.2387,-3.1545,-3.0744,-3.064,-3.1135,-3.1187,-3.0193,-3.0733,-3.0753,-3.0141,-2.9994,-2.9994,-2.9994,-2.9994,-2.9984,-2.9994,-2.9994,-2.9994,-2.9994,-2.9994,-2.9994,-2.9994,-2.9994,-2.9994,-2.9994,-2.9994,-2.9994,-2.9994,-2.9994,-2.9994,-2.9994,-2.9994,-2.9994,-2.9994,-2.9994,-2.9994,-2.9994,-2.9994,-2.9994,-2.9994,-2.9994,-2.9994,-2.9994,-2.9994,-2.9994,-2.9994,-2.9994,-2.9994,-4.9955,-4.9916,-4.9916,-4.9797,-4.9637,-4.9597,-4.9372,-4.9037,-4.8955,-4.88,-4.8604,-4.8604,-4.8604,-4.8604,-4.8604,-4.8604,-4.8604,-4.8604,-4.8604,-4.8604,-4.8604,-4.8604,-4.8604,-4.8604,-4.8604,-4.8604,-4.8604,-4.8604,-4.8604,-4.8604,-4.8563,-4.848,-4.7578,-4.6373,-4.5118,-4.405,-4.2819,-4.1498,-4.1461,-4.1411,-4.1311,-4.1311,-4.1311,-4.1311,-4.1311,-4.1311,-4.1311,-4.1311,-4.1311,-4.1311,-4.1311,-4.1311,-4.1311,-4.1311,-4.1285,-4.118,-4.0213,-3.9141,-3.8135,-3.788,-3.7749,-3.7459,-3.7214,-3.6581,-3.5463,-3.4933,-3.4629,-3.4129,-3.3388,-3.2297,-3.1575,-3.1524,-3.1135,-3.0193,-3.0193,-3.0088,-3.0047,-2.9994,-2.9994,-2.9994,-2.9994,-2.9994,-2.9994,-2.9994,-2.9994,-2.9994,-2.9994,-2.9994,-2.9994,-2.9994,-2.9994,-2.9994,-2.9994,-2.9994,-2.9994,-2.9994,-2.9994,-2.9994,-2.9994,-2.9994,-2.9994,-2.9994,-2.9994,-2.9994,-2.9994,-2.9994,-2.9994,-2.9994,-2.9994,-2.9994,-2.9994,-2.9994,-2.9994,-2.9994,-2.9994,-4.9916,-4.9916,-4.9916,-4.9836,-4.9757,-4.9637,-4.9452,-4.9169,-4.9021,-4.8857,-4.862,-4.8604,-4.8604,-4.8604,-4.8604,-4.8604,-4.8604,-4.8604,-4.8604,-4.8604,-4.8604,-4.8604,-4.8604,-4.8604,-4.8604,-4.8604,-4.8604,-4.8604,-4.8604,-4.8604,-4.8313,-4.7776,-4.7291,-4.6093,-4.4242,-4.3612,-4.2709,-4.1361,-4.1311,-4.1311,-4.1311,-4.1311,-4.1311,-4.1311,-4.1311,-4.1311,-4.1311,-4.1311,-4.1311,-4.1311,-4.1311,-4.1311,-4.1311,-4.1311,-4.1311,-4.1246,-4.0252,-3.9246,-3.8436,-3.8083,-3.7703,-3.7307,-3.7168,-3.6487,-3.5174,-3.5427,-3.5017,-3.3178,-3.2488,-3.1779,-3.0888,-3.1227,-3.1187,-3.0339,-3.0547,-3.0692,-3.0047,-2.9994,-2.9994,-2.9994,-2.9994,-2.9994,-2.9994,-2.9994,-2.9994,-2.9994,-2.9994,-2.9994,-2.9994,-2.9994,-2.9994,-2.9994,-2.9994,-2.9994,-2.9994,-2.9994,-2.9994,-2.9994,-2.9994,-2.9994,-2.9994,-2.9994,-2.9994,-2.9994,-2.9994,-2.9994,-2.9994,-2.9994,-2.9994,-2.9994,-2.9994,-2.9994,-2.9994,-2.9994,-2.9994,-5.0216,-5.0168,-5.001,-4.9916,-4.9876,-4.9757,-4.9573,-4.9403,-4.9371,-4.9218,-4.898,-4.8912,-4.8912,-4.8881,-4.8712,-4.8604,-4.8604,-4.8604,-4.8604,-4.8604,-4.8604,-4.8604,-4.8604,-4.8604,-4.8604,-4.8604,-4.8604,-4.8604,-4.8604,-4.8604,-4.813,-4.7291,-4.6973,-4.5735,-4.3801,-4.3341,-4.255,-4.1498,-4.1361,-4.1311,-4.1311,-4.1311,-4.1311,-4.1311,-4.1311,-4.1311,-4.1311,-4.1311,-4.1311,-4.1311,-4.1311,-4.1311,-4.1311,-4.1311,-4.1246,-4.1036,-4.0305,-3.9573,-3.8985,-3.8593,-3.8018,-3.7333,-3.7428,-3.6784,-3.5441,-3.5685,-3.4784,-3.2334,-3.1662,-3.1187,-3.0297,-3.0681,-3.0744,-3.0151,-3.0733,-3.0785,-3.0099,-2.9994,-2.9994,-2.9994,-2.9994,-2.9994,-2.9994,-2.9994,-2.9994,-2.9994,-2.9994,-2.9994,-2.9994,-2.9994,-2.9994,-2.9994,-2.9994,-2.9994,-2.9994,-2.9994,-2.9994,-2.9994,-2.9994,-2.9994,-2.9994,-2.9994,-2.9994,-2.9994,-2.9994,-2.9994,-2.9994,-2.9994,-2.9994,-2.9994,-2.9994,-2.9994,-2.9994,-2.9994,-2.9994,-5.0967,-5.0816,-5.02,-4.9963,-4.9931,-4.9923,-4.9804,-4.9705,-5.0075,-5.0108,-4.9888,-4.9674,-4.962,-4.9543,-4.8912,-4.8604,-4.8604,-4.8604,-4.8604,-4.8604,-4.8604,-4.8604,-4.8604,-4.8604,-4.8604,-4.8604,-4.8604,-4.8604,-4.8604,-4.8563,-4.813,-4.7204,-4.6314,-4.5175,-4.3843,-4.2771,-4.2029,-4.171,-4.1461,-4.1311,-4.1311,-4.1311,-4.1311,-4.1311,-4.1311,-4.1311,-4.1311,-4.1311,-4.1311,-4.1311,-4.1311,-4.1311,-4.1311,-4.1311,-4.1076,-4.0579,-4.0422,-4.0135,-3.9651,-3.9481,-3.8875,-3.779,-3.8057,-3.7592,-3.5081,-3.5272,-3.452,-3.2419,-3.1873,-3.1232,-3.0245,-3.0162,-3.0193,-3.0047,-3.0047,-3.0099,-3.0047,-2.9994,-2.9994,-2.9994,-2.9994,-2.9994,-2.9994,-2.9994,-2.9994,-2.9994,-2.9994,-2.9994,-2.9994,-2.9994,-2.9994,-2.9994,-2.9994,-2.9994,-2.9994,-2.9994,-2.9994,-2.9994,-2.9994,-2.9994,-2.9994,-2.9994,-2.9994,-2.9994,-2.9994,-2.9994,-2.9994,-2.9994,-2.9994,-2.9994,-2.9994,-2.9994,-2.9994,-2.9994,-2.9994,-5.1369,-5.0958,-5.0706,-5.0595,-5.0595,-5.0595,-5.063,-5.0725,-5.0835,-5.0749,-5.0379,-4.9924,-4.9739,-4.9651,-4.8927,-4.8604,-4.8604,-4.8604,-4.8604,-4.8604,-4.8604,-4.8604,-4.8604,-4.8604,-4.8604,-4.8604,-4.8604,-4.8604,-4.8521,-4.8003,-4.7233,-4.63,-4.5312,-4.4233,-4.3122,-4.2582,-4.2141,-4.1746,-4.161,-4.1448,-4.1311,-4.1311,-4.1311,-4.1311,-4.1311,-4.1311,-4.1311,-4.1311,-4.1311,-4.1311,-4.1311,-4.1311,-4.1311,-4.1311,-4.1232,-4.0997,-4.0631,-4.0331,-4.0122,-3.9808,-3.8933,-3.7494,-3.7506,-3.6604,-3.445,-3.4313,-3.4014,-3.2318,-3.2264,-3.1837,-3.0736,-3.018,-3.0005,-2.9994,-2.9994,-2.9994,-2.9994,-2.9994,-2.9994,-2.9994,-2.9994,-2.9994,-2.9963,-2.9994,-2.9994,-2.9994,-2.9994,-2.9994,-2.9994,-2.9994,-2.9994,-2.9994,-2.9994,-2.9994,-2.9994,-2.9994,-2.9994,-2.9994,-2.9994,-2.9994,-2.9994,-2.9994,-2.9994,-2.9994,-2.9994,-2.9994,-2.9994,-2.9994,-2.9994,-2.9994,-2.9994,-2.9994,-2.9994,-2.9994,-2.9994,-5.1954,-5.1369,-5.1306,-5.1306,-5.1306,-5.129,-5.1411,-5.1518,-5.161,-5.1507,-5.1141,-5.0398,-5.002,-4.9851,-4.9035,-4.8604,-4.8604,-4.8604,-4.8604,-4.8604,-4.8604,-4.8604,-4.8604,-4.8604,-4.8604,-4.8604,-4.8604,-4.848,-4.8088,-4.7505,-4.6535,-4.5326,-4.4577,-4.3776,-4.2776,-4.2547,-4.2253,-4.1895,-4.1746,-4.1547,-4.1311,-4.1311,-4.1311,-4.1311,-4.1311,-4.1311,-4.1311,-4.1311,-4.1311,-4.1311,-4.1311,-4.1311,-4.1311,-4.1311,-4.1311,-4.1259,-4.0932,-4.0697,-4.0671,-4.037,-3.9338,-3.7458,-3.7458,-3.6355,-3.3529,-3.3774,-3.3278,-3.2249,-3.1992,-3.1932,-3.1206,-3.0626,-3.0325,-3.0087,-2.9994,-2.9994,-2.9994,-2.9994,-2.9911,-2.9787,-2.9735,-2.9756,-2.9766,-2.9766,-2.9839,-2.9963,-2.9994,-2.9994,-2.9994,-2.9994,-2.9994,-2.9994,-2.9994,-2.9994,-2.9994,-2.9994,-2.9994,-2.9994,-2.9994,-2.9994,-2.9994,-2.9994,-2.9994,-2.9994,-2.9994,-2.9994,-2.9994,-2.9994,-2.9994,-2.9994,-2.9994,-2.9994,-2.9994,-2.9994,-2.9994,-5.2681,-5.2049,-5.2001,-5.197,-5.2001,-5.1938,-5.1944,-5.2088,-5.2316,-5.2352,-5.2144,-5.1175,-5.059,-5.0374,-4.9204,-4.8604,-4.8604,-4.8604,-4.8604,-4.8604,-4.8604,-4.8604,-4.8604,-4.8604,-4.8604,-4.8604,-4.8604,-4.8115,-4.7463,-4.7146,-4.6167,-4.4716,-4.4312,-4.3695,-4.2873,-4.2609,-4.2351,-4.2079,-4.1845,-4.1597,-4.1324,-4.1311,-4.1311,-4.1311,-4.1311,-4.1311,-4.1311,-4.1311,-4.1311,-4.1311,-4.1311,-4.1311,-4.1311,-4.1311,-4.1311,-4.1311,-4.1285,-4.1285,-4.1272,-4.1156,-4.0007,-3.7972,-3.8174,-3.6873,-3.3907,-3.3492,-3.3277,-3.226,-3.1788,-3.1477,-3.1467,-3.134,-3.0967,-3.0191,-3.0077,-3.0077,-3.0005,-2.9994,-2.9829,-2.9466,-2.9384,-2.9321,-2.9321,-2.9384,-2.9549,-2.9891,-2.9994,-2.9994,-2.9994,-2.9994,-2.9994,-2.9994,-2.9994,-2.9994,-2.9994,-2.9994,-2.9994,-2.9994,-2.9994,-2.9994,-2.9994,-2.9994,-2.9994,-2.9994,-2.9994,-2.9994,-2.9994,-2.9994,-2.9994,-2.9994,-2.9994,-2.9994,-2.9994,-2.9994,-2.9942,-5.3392,-5.2728,-5.2207,-5.2317,-5.2649,-5.2238,-5.2439,-5.3184,-5.3149,-5.2994,-5.2632,-5.132,-5.0697,-5.0374,-4.9235,-4.8604,-4.8604,-4.8604,-4.8604,-4.8604,-4.8604,-4.8604,-4.8604,-4.8604,-4.8604,-4.8604,-4.8604,-4.8453,-4.7961,-4.6857,-4.5869,-4.5235,-4.3965,-4.3245,-4.2922,-4.2644,-4.24,-4.2079,-4.1845,-4.1547,-4.1311,-4.1311,-4.1311,-4.1311,-4.1311,-4.1311,-4.1311,-4.1311,-4.1311,-4.1311,-4.1311,-4.1311,-4.1311,-4.1311,-4.1311,-4.1311,-4.1311,-4.1311,-4.1311,-4.1211,-4.0122,-3.7918,-3.7494,-3.5999,-3.3434,-3.2989,-3.2931,-3.2499,-3.2375,-3.2209,-3.1919,-3.1836,-3.1443,-3.0574,-3.047,-3.0305,-3.0036,-2.9984,-2.9777,-2.9404,-2.9311,-2.9311,-2.9301,-2.929,-2.9456,-2.9891,-2.9994,-2.9994,-2.9994,-2.9994,-2.9994,-2.9994,-2.9994,-2.9994,-2.9994,-2.9994,-2.9994,-2.9994,-2.9994,-2.9994,-2.9994,-2.9994,-2.9994,-2.9994,-2.9994,-2.9994,-2.9994,-2.9994,-2.9994,-2.9994,-2.9994,-2.9994,-2.9994,-2.9994,-2.9942,-5.385,-5.3423,-5.2981,-5.2886,-5.3107,-5.2839,-5.2881,-5.3121,-5.3142,-5.2878,-5.221,-5.1005,-5.0398,-5.0082,-4.9112,-4.8635,-4.8604,-4.8604,-4.8604,-4.8604,-4.8604,-4.8604,-4.8604,-4.8604,-4.8604,-4.8604,-4.8604,-4.8214,-4.7521,-4.6403,-4.5417,-4.4559,-4.3471,-4.2935,-4.2887,-4.2644,-4.24,-4.2092,-4.1832,-4.1547,-4.1361,-4.1311,-4.1311,-4.1311,-4.1311,-4.1311,-4.1311,-4.1311,-4.1311,-4.1311,-4.1311,-4.1311,-4.1311,-4.1311,-4.1311,-4.1311,-4.1311,-4.1311,-4.1311,-4.1261,-4.0351,-3.8299,-3.7323,-3.6042,-3.3966,-3.3151,-3.2669,-3.2669,-3.2638,-3.2545,-3.2297,-3.2292,-3.195,-3.1278,-3.0864,-3.0512,-3.0087,-2.9839,-2.9528,-2.9125,-2.8876,-2.8907,-2.9001,-2.9063,-2.9321,-2.9808,-2.9994,-2.9994,-2.9994,-2.9994,-2.9984,-2.9984,-2.9994,-2.9994,-2.9994,-2.9994,-2.9994,-2.9994,-2.9994,-2.9994,-2.9994,-2.9994,-2.9994,-2.9994,-2.9994,-2.9994,-2.9994,-2.9994,-2.9994,-2.9994,-2.9994,-2.9994,-2.9994,-2.9994,-2.9942,-5.4103,-5.4103,-5.4024,-5.3597,-5.3202,-5.355,-5.3107,-5.226,-5.2461,-5.216,-5.1323,-5.0479,-4.9954,-4.9601,-4.8958,-4.8604,-4.8604,-4.8604,-4.8604,-4.8604,-4.8604,-4.8604,-4.8604,-4.8604,-4.8604,-4.8604,-4.8604,-4.7734,-4.6447,-4.5944,-4.4869,-4.3423,-4.3115,-4.29,-4.2852,-4.2658,-4.2338,-4.2079,-4.1845,-4.156,-4.1311,-4.1311,-4.1311,-4.1311,-4.1311,-4.1311,-4.1311,-4.1311,-4.1311,-4.1311,-4.1311,-4.1311,-4.1311,-4.1311,-4.1311,-4.1311,-4.1311,-4.1311,-4.1311,-4.1311,-4.0618,-3.9107,-3.7772,-3.641,-3.4925,-3.3537,-3.2794,-3.2784,-3.2898,-3.283,-3.2742,-3.2835,-3.2653,-3.2114,-3.1293,-3.0543,-3.0087,-2.9663,-2.9208,-2.8731,-2.8266,-2.8079,-2.8524,-2.8566,-2.898,-2.9528,-2.9777,-2.9735,-2.9777,-2.9725,-2.9901,-2.9922,-2.9891,-2.9994,-2.9994,-2.9994,-2.9994,-2.9994,-2.9994,-2.9994,-2.9994,-2.9994,-2.9994,-2.9994,-2.9994,-2.9994,-2.9994,-2.9994,-2.9994,-2.9994,-2.9994,-2.9994,-2.9994,-2.9994,-2.9785,-5.4103,-5.4055,-5.3581,-5.3265,-5.3044,-5.276,-5.2381,-5.2007,-5.1942,-5.1701,-5.112,-5.0397,-4.9862,-4.9647,-4.8927,-4.8604,-4.8604,-4.8604,-4.8604,-4.8604,-4.8604,-4.8604,-4.8604,-4.8604,-4.8604,-4.8604,-4.8563,-4.8003,-4.6842,-4.6092,-4.5084,-4.3951,-4.3163,-4.29,-4.2852,-4.2658,-4.24,-4.2079,-4.1845,-4.1547,-4.1361,-4.1311,-4.1311,-4.1311,-4.1311,-4.1311,-4.1311,-4.1311,-4.1311,-4.1311,-4.1311,-4.1311,-4.1311,-4.1311,-4.1311,-4.1311,-4.1311,-4.1311,-4.1311,-4.1311,-4.063,-3.9326,-3.8166,-3.6745,-3.53,-3.3931,-3.3182,-3.3182,-3.3558,-3.366,-3.3115,-3.3445,-3.3639,-3.3211,-3.1844,-3.0764,-3.0494,-2.9798,-2.9125,-2.8659,-2.8193,-2.8028,-2.8041,-2.8123,-2.838,-2.8876,-2.9073,-2.9073,-2.9208,-2.9435,-2.9611,-2.9663,-2.9694,-2.9891,-2.9994,-2.9994,-2.9994,-2.9994,-2.9994,-2.9994,-2.9994,-2.9994,-2.9994,-2.9994,-2.9994,-2.9994,-2.9994,-2.9994,-2.9994,-2.9994,-2.9922,-2.9891,-2.9953,-2.9963,-2.9556,-5.4103,-5.4071,-5.3692,-5.3186,-5.2681,-5.2507,-5.197,-5.1265,-5.1341,-5.1073,-5.0553,-5.0004,-4.9584,-4.9372,-4.8846,-4.8604,-4.8604,-4.8604,-4.8604,-4.8604,-4.8604,-4.8604,-4.8604,-4.8604,-4.8604,-4.8604,-4.8563,-4.7819,-4.6711,-4.6048,-4.5084,-4.3823,-4.3163,-4.2935,-4.2887,-4.2484,-4.2289,-4.2079,-4.1746,-4.1461,-4.1324,-4.1311,-4.1311,-4.1311,-4.1311,-4.1311,-4.1311,-4.1311,-4.1311,-4.1311,-4.1311,-4.1311,-4.1311,-4.1311,-4.1311,-4.1311,-4.1311,-4.1311,-4.1311,-4.1311,-4.0933,-4.0083,-3.8963,-3.7678,-3.6337,-3.4836,-3.392,-3.3998,-3.4312,-3.4099,-3.366,-3.3717,-3.3858,-3.3812,-3.262,-3.1561,-3.1413,-2.9973,-2.9041,-2.8556,-2.8079,-2.7738,-2.7872,-2.7865,-2.8152,-2.8493,-2.8711,-2.869,-2.8731,-2.9032,-2.929,-2.9363,-2.9622,-2.9901,-2.9994,-2.9994,-2.9994,-2.9994,-2.9994,-2.9994,-2.9994,-2.9994,-2.9994,-2.9994,-2.9994,-2.9994,-2.9994,-2.9994,-2.9994,-2.9963,-2.986,-2.9735,-2.9735,-2.9518,-2.9156,-5.4103,-5.4103,-5.4103,-5.3281,-5.2254,-5.2623,-5.1796,-5.0287,-5.0611,-5.0387,-4.9736,-4.9403,-4.9237,-4.8955,-4.8723,-4.8604,-4.8604,-4.8604,-4.8604,-4.8604,-4.8604,-4.8604,-4.8604,-4.8604,-4.8604,-4.8563,-4.8521,-4.742,-4.6211,-4.5734,-4.4652,-4.3437,-4.2935,-4.29,-4.2838,-4.2435,-4.2177,-4.2029,-4.1647,-4.1424,-4.1324,-4.1311,-4.1311,-4.1311,-4.1311,-4.1311,-4.1311,-4.1311,-4.1311,-4.1311,-4.1311,-4.1311,-4.1311,-4.1311,-4.1311,-4.1311,-4.1311,-4.1311,-4.1311,-4.1311,-4.1311,-4.0883,-3.9917,-3.8911,-3.7624,-3.6228,-3.5157,-3.5179,-3.4958,-3.508,-3.4858,-3.3875,-3.3966,-3.4516,-3.3865,-3.2853,-3.2375,-3.0405,-2.8757,-2.8556,-2.7821,-2.7562,-2.7696,-2.7893,-2.7986,-2.8017,-2.8173,-2.8152,-2.8328,-2.8711,-2.8959,-2.9125,-2.9497,-2.9963,-2.9994,-2.9994,-2.9994,-2.9994,-2.9994,-2.9994,-2.9994,-2.9994,-2.9994,-2.9994,-2.9994,-2.9994,-2.9994,-2.9994,-2.9994,-2.988,-2.9746,-2.9477,-2.927,-2.8901,-2.8533,-5.4103,-5.4103,-5.4103,-5.3297,-5.2159,-5.2159,-5.1369,-4.9939,-5.0089,-4.989,-4.9468,-4.9316,-4.9072,-4.8718,-4.8661,-4.8604,-4.8604,-4.8604,-4.8604,-4.8604,-4.8604,-4.8604,-4.8604,-4.8604,-4.8604,-4.8438,-4.7819,-4.6886,-4.5899,-4.5007,-4.4059,-4.3067,-4.29,-4.29,-4.2838,-4.2547,-4.2289,-4.2079,-4.1746,-4.1461,-4.1311,-4.1311,-4.1311,-4.1311,-4.1311,-4.1311,-4.1311,-4.1311,-4.1311,-4.1311,-4.1311,-4.1311,-4.1311,-4.1311,-4.1311,-4.1311,-4.1311,-4.1311,-4.1311,-4.1311,-4.1311,-4.1147,-4.0351,-3.9442,-3.9131,-3.7583,-3.6684,-3.6708,-3.6923,-3.6911,-3.675,-3.5234,-3.5234,-3.5851,-3.4727,-3.3704,-3.4451,-3.2128,-2.9762,-2.8757,-2.7939,-2.7351,-2.7444,-2.7506,-2.7579,-2.762,-2.7641,-2.761,-2.7903,-2.8349,-2.8638,-2.8866,-2.9384,-2.9829,-2.9994,-2.9994,-2.9994,-2.9994,-2.9994,-2.9994,-2.9994,-2.9994,-2.9994,-2.9994,-2.9994,-2.9994,-2.9994,-2.9994,-2.9994,-2.9818,-2.9632,-2.9332,-2.8972,-2.8481,-2.7913,-5.4103,-5.4103,-5.4103,-5.3281,-5.2144,-5.1986,-5.1211,-5.0089,-4.9916,-4.9717,-4.9477,-4.9356,-4.9113,-4.8816,-4.8661,-4.8604,-4.8604,-4.8604,-4.8604,-4.8604,-4.8604,-4.8604,-4.8604,-4.8604,-4.8563,-4.8438,-4.7691,-4.6711,-4.5779,-4.4776,-4.3871,-4.2984,-4.29,-4.29,-4.2838,-4.2547,-4.2239,-4.2029,-4.1696,-4.1411,-4.1324,-4.1311,-4.1311,-4.1311,-4.1311,-4.1311,-4.1311,-4.1311,-4.1311,-4.1311,-4.1311,-4.1311,-4.1311,-4.1311,-4.1311,-4.1311,-4.1311,-4.1311,-4.1311,-4.1311,-4.1311,-4.1311,-4.0668,-4.0134,-3.9597,-3.8493,-3.8031,-3.7885,-3.7885,-3.7885,-3.7779,-3.6468,-3.6414,-3.6991,-3.5882,-3.5207,-3.5509,-3.3149,-3.0511,-2.9483,-2.862,-2.7873,-2.7536,-2.7499,-2.733,-2.7475,-2.7475,-2.7465,-2.7558,-2.7945,-2.8359,-2.8711,-2.9259,-2.9673,-2.9911,-2.9994,-2.9994,-2.9994,-2.9994,-2.9994,-2.9994,-2.9994,-2.9994,-2.9973,-2.9932,-2.9994,-2.9994,-2.9994,-2.9932,-2.9849,-2.9642,-2.9209,-2.8716,-2.8084,-2.7548,-5.4103,-5.4103,-5.4103,-5.3297,-5.2128,-5.2001,-5.1211,-5.0026,-4.9916,-4.9757,-4.9613,-4.9396,-4.9153,-4.898,-4.8702,-4.8604,-4.8604,-4.8604,-4.8604,-4.8604,-4.8604,-4.8604,-4.8604,-4.8604,-4.8563,-4.848,-4.7377,-4.6447,-4.5674,-4.4684,-4.36,-4.2984,-4.29,-4.29,-4.279,-4.2435,-4.2177,-4.2029,-4.171,-4.1361,-4.1324,-4.1311,-4.1311,-4.1311,-4.1311,-4.1311,-4.1311,-4.1311,-4.1311,-4.1311,-4.1311,-4.1311,-4.1311,-4.1311,-4.1311,-4.1311,-4.1311,-4.1311,-4.1311,-4.1311,-4.1311,-4.1311,-4.1261,-4.0883,-4.0032,-3.9545,-3.9248,-3.8988,-3.8832,-3.8425,-3.8108,-3.718,-3.7126,-3.764,-3.7103,-3.6497,-3.6102,-3.4014,-3.2139,-3.0522,-2.9536,-2.8743,-2.8081,-2.7762,-2.7536,-2.7357,-2.7309,-2.734,-2.7444,-2.7603,-2.8059,-2.8504,-2.9032,-2.9611,-2.9901,-2.9715,-2.9756,-2.9725,-2.9787,-2.9715,-2.9704,-2.9559,-2.9497,-2.9818,-2.986,-2.987,-2.9808,-2.9694,-2.9673,-2.9756,-2.9384,-2.8693,-2.8173,-2.7688,-2.7127,-5.4103,-5.4103,-5.4103,-5.3281,-5.2112,-5.2001,-5.1195,-5.0058,-4.9916,-4.9757,-4.9597,-4.9396,-4.9169,-4.8939,-4.8702,-4.8604,-4.8604,-4.8604,-4.8604,-4.8604,-4.8604,-4.8604,-4.8604,-4.8604,-4.8604,-4.813,-4.7016,-4.6003,-4.5417,-4.4106,-4.3328,-4.2984,-4.29,-4.29,-4.2852,-4.2595,-4.2239,-4.2079,-4.1746,-4.1448,-4.1361,-4.1311,-4.1311,-4.1311,-4.1311,-4.1311,-4.1311,-4.1311,-4.1311,-4.1311,-4.1311,-4.1311,-4.1311,-4.1311,-4.1311,-4.1311,-4.1311,-4.1311,-4.1311,-4.1311,-4.1311,-4.1311,-4.1311,-4.1311,-4.0946,-4.0618,-4.03,-4.016,-3.9904,-3.9556,-3.9362,-3.8267,-3.8255,-3.8494,-3.7765,-3.6767,-3.6974,-3.5755,-3.3727,-3.1947,-3.0731,-2.9578,-2.8899,-2.8258,-2.794,-2.7678,-2.7404,-2.7357,-2.7361,-2.7541,-2.7883,-2.8328,-2.8783,-2.9384,-2.9911,-2.957,-2.9373,-2.928,-2.9239,-2.9052,-2.9001,-2.8866,-2.8928,-2.9197,-2.9446,-2.9539,-2.9456,-2.9342,-2.9239,-2.9187,-2.865,-2.8105,-2.7824,-2.7505,-2.6917,-5.4103,-5.4055,-5.3739,-5.2981,-5.2049,-5.1622,-5.0895,-5.001,-4.9876,-4.9717,-4.9477,-4.9316,-4.9128,-4.8841,-4.8676,-4.8604,-4.8604,-4.8604,-4.8604,-4.8604,-4.8604,-4.8604,-4.8604,-4.8604,-4.8604,-4.8072,-4.6798,-4.5824,-4.5689,-4.442,-4.3375,-4.2984,-4.29,-4.29,-4.279,-4.2498,-4.2289,-4.2043,-4.1746,-4.1448,-4.1311,-4.1311,-4.1311,-4.1311,-4.1311,-4.1311,-4.1311,-4.1311,-4.1311,-4.1311,-4.1311,-4.1311,-4.1311,-4.1311,-4.1311,-4.1311,-4.1311,-4.1311,-4.1311,-4.1311,-4.1311,-4.1311,-4.1311,-4.1311,-4.1211,-4.0984,-4.0795,-4.0529,-4.0338,-3.9981,-3.9633,-3.9077,-3.9069,-3.8927,-3.7977,-3.7432,-3.7192,-3.6273,-3.4807,-3.3262,-3.2176,-3.0948,-2.9624,-2.9037,-2.8538,-2.8081,-2.762,-2.7489,-2.7404,-2.7496,-2.7707,-2.811,-2.8514,-2.8897,-2.9363,-2.9177,-2.8959,-2.8876,-2.8721,-2.8524,-2.8504,-2.8462,-2.8411,-2.8493,-2.8752,-2.9001,-2.9032,-2.8887,-2.8752,-2.8649,-2.8452,-2.8136,-2.7752,-2.7321,-2.6718,-5.4024,-5.385,-5.3329,-5.2602,-5.178,-5.1227,-5.0595,-5.001,-4.9916,-4.9717,-4.9396,-4.93,-4.9072,-4.8744,-4.862,-4.8604,-4.8604,-4.8604,-4.8604,-4.8604,-4.8604,-4.8604,-4.8604,-4.8604,-4.8563,-4.8396,-4.7463,-4.6137,-4.5553,-4.442,-4.3553,-4.3115,-4.29,-4.29,-4.279,-4.2498,-4.2239,-4.1944,-4.166,-4.1411,-4.1311,-4.1311,-4.1311,-4.1311,-4.1311,-4.1311,-4.1311,-4.1311,-4.1311,-4.1311,-4.1311,-4.1311,-4.1311,-4.1311,-4.1311,-4.1311,-4.1311,-4.1311,-4.1311,-4.1311,-4.1311,-4.1311,-4.1311,-4.1311,-4.1211,-4.1047,-4.0732,-4.0275,-4.0121,-3.9981,-3.9724,-3.9584,-3.932,-3.8906,-3.8304,-3.7651,-3.7113,-3.6433,-3.5658,-3.4453,-3.3526,-3.2265,-3.0831,-3.0215,-2.9761,-2.8899,-2.8445,-2.7987,-2.7857,-2.7394,-2.7548,-2.7872,-2.8214,-2.8452,-2.8669,-2.8659,-2.8514,-2.8452,-2.8255,-2.8038,-2.811,-2.8193,-2.81,-2.7966,-2.8038,-2.8255,-2.8338,-2.8411,-2.8286,-2.8224,-2.8317,-2.8074,-2.7477,-2.713,-2.6697,-5.3755,-5.3218,-5.3123,-5.2333,-5.1195,-5.103,-5.0563,-4.9963,-4.9916,-4.9773,-4.9517,-4.9356,-4.9169,-4.8898,-4.8661,-4.8604,-4.8604,-4.8604,-4.8604,-4.8604,-4.8604,-4.8604,-4.8604,-4.8604,-4.8604,-4.8438,-4.813,-4.7291,-4.6003,-4.4247,-4.3149,-4.2984,-4.29,-4.29,-4.2887,-4.2498,-4.2338,-4.2079,-4.1782,-4.1498,-4.1361,-4.1311,-4.1311,-4.1311,-4.1311,-4.1311,-4.1311,-4.1311,-4.1311,-4.1311,-4.1311,-4.1311,-4.1311,-4.1311,-4.1311,-4.1311,-4.1311,-4.1311,-4.1311,-4.1311,-4.1311,-4.1311,-4.1311,-4.1311,-4.1261,-4.1097,-4.0795,-4.0504,-4.0287,-4.0019,-3.9751,-3.9309,-3.9045,-3.8542,-3.7952,-3.7462,-3.701,-3.6596,-3.5881,-3.5382,-3.4359,-3.315,-3.1869,-3.1434,-3.0991,-3.0079,-2.9257,-2.8806,-2.8222,-2.7668,-2.734,-2.7655,-2.7821,-2.8038,-2.811,-2.809,-2.8069,-2.8028,-2.7862,-2.7683,-2.7755,-2.7779,-2.7641,-2.7548,-2.762,-2.7672,-2.7738,-2.779,-2.7748,-2.7769,-2.781,-2.75,-2.7051,-2.6769,-2.6579,-5.2997,-5.3044,-5.2238,-5.1559,-5.0958,-5.0563,-5.0216,-4.9963,-4.9916,-4.9797,-4.9597,-4.9396,-4.9113,-4.88,-4.862,-4.8604,-4.8604,-4.8604,-4.8604,-4.8604,-4.8604,-4.8604,-4.8604,-4.8604,-4.8604,-4.8339,-4.7634,-4.6973,-4.5958,-4.519,-4.4153,-4.2984,-4.29,-4.29,-4.2838,-4.2435,-4.2239,-4.1993,-4.171,-4.1424,-4.1311,-4.1311,-4.1311,-4.1311,-4.1311,-4.1311,-4.1311,-4.1311,-4.1311,-4.1311,-4.1311,-4.1311,-4.1311,-4.1311,-4.1311,-4.1311,-4.1311,-4.1311,-4.1311,-4.1311,-4.1311,-4.1311,-4.1311,-4.1311,-4.1261,-4.1161,-4.0997,-4.0744,-4.0643,-4.0326,-3.9879,-3.9436,-3.8906,-3.8365,-3.7588,-3.7161,-3.6845,-3.6619,-3.6119,-3.5717,-3.5186,-3.4061,-3.295,-3.218,-3.1733,-3.108,-3.0125,-2.9349,-2.8585,-2.7762,-2.7541,-2.7438,-2.7521,-2.7631,-2.7652,-2.7603,-2.7624,-2.7593,-2.7593,-2.7455,-2.7403,-2.7361,-2.732,-2.732,-2.7423,-2.7413,-2.733,-2.7403,-2.7489,-2.7455,-2.733,-2.7081,-2.69,-2.6661,-2.6412,-5.2065,-5.246,-5.1417,-5.092,-5.0674,-5.0137,-4.9916,-4.9916,-4.9916,-4.9797,-4.9573,-4.9331,-4.9006,-4.8759,-4.8661,-4.8604,-4.8604,-4.8604,-4.8604,-4.8604,-4.8604,-4.8604,-4.8604,-4.8604,-4.8604,-4.8563,-4.7634,-4.6842,-4.6491,-4.5913,-4.4745,-4.3293,-4.3032,-4.2887,-4.2693,-4.2387,-4.2079,-4.1796,-4.1511,-4.1311,-4.1311,-4.1311,-4.1311,-4.1311,-4.1311,-4.1311,-4.1311,-4.1311,-4.1311,-4.1311,-4.1311,-4.1311,-4.1311,-4.1311,-4.1311,-4.1311,-4.1311,-4.1311,-4.1311,-4.1311,-4.1311,-4.1311,-4.1311,-4.1311,-4.1261,-4.1211,-4.106,-4.0744,-4.0478,-4.0224,-3.9855,-3.9259,-3.8591,-3.7888,-3.7262,-3.687,-3.6518,-3.643,-3.6342,-3.6019,-3.5617,-3.5144,-3.4065,-3.2978,-3.2345,-3.1962,-3.1125,-3.0079,-2.9084,-2.8175,-2.7699,-2.7593,-2.7413,-2.7434,-2.7413,-2.7372,-2.733,-2.732,-2.732,-2.732,-2.732,-2.732,-2.732,-2.732,-2.732,-2.732,-2.732,-2.732,-2.732,-2.7272,-2.7225,-2.7034,-2.6794,-2.6554,-2.6314,-5.111,-5.1101,-5.1006,-5.0595,-5.0026,-4.9947,-4.9916,-4.9916,-4.9916,-4.9757,-4.9517,-4.9225,-4.9037,-4.8914,-4.8718,-4.8604,-4.8604,-4.8604,-4.8604,-4.8604,-4.8604,-4.8604,-4.8604,-4.8604,-4.8604,-4.8578,-4.7904,-4.706,-4.6314,-4.6092,-4.5175,-4.4266,-4.3341,-4.2887,-4.2547,-4.2239,-4.1832,-4.1547,-4.1311,-4.1311,-4.1311,-4.1311,-4.1311,-4.1311,-4.1311,-4.1311,-4.1311,-4.1311,-4.1311,-4.1311,-4.1311,-4.1311,-4.1311,-4.1311,-4.1311,-4.1311,-4.1311,-4.1311,-4.1311,-4.1311,-4.1311,-4.1311,-4.1311,-4.1311,-4.1261,-4.0858,-4.0605,-4.0593,-4.044,-3.9829,-3.9209,-3.8466,-3.8088,-3.7524,-3.7023,-3.6719,-3.6468,-3.6455,-3.6355,-3.6254,-3.5931,-3.5529,-3.5107,-3.402,-3.3244,-3.2832,-3.1737,-3.0678,-2.9669,-2.876,-2.8128,-2.7747,-2.7415,-2.733,-2.734,-2.732,-2.732,-2.732,-2.732,-2.732,-2.732,-2.732,-2.732,-2.732,-2.732,-2.732,-2.732,-2.732,-2.732,-2.7272,-2.7129,-2.6938,-2.6602,-2.6265,-2.6072,-5.0326,-5.0326,-5.0326,-5.0184,-4.9916,-4.9916,-4.9916,-4.9916,-4.9916,-4.9733,-4.9396,-4.9144,-4.8898,-4.8759,-4.8661,-4.8604,-4.8604,-4.8604,-4.8604,-4.8604,-4.8604,-4.8604,-4.8604,-4.8604,-4.8604,-4.848,-4.813,-4.7988,-4.7634,-4.6447,-4.5734,-4.4869,-4.3757,-4.2935,-4.2449,-4.2092,-4.1696,-4.1461,-4.1311,-4.1311,-4.1311,-4.1311,-4.1311,-4.1311,-4.1311,-4.1311,-4.1311,-4.1311,-4.1311,-4.1311,-4.1311,-4.1311,-4.1311,-4.1311,-4.1311,-4.1311,-4.1311,-4.1311,-4.1311,-4.1311,-4.1311,-4.1311,-4.1311,-4.1311,-4.1311,-4.1073,-4.101,-4.0896,-4.058,-3.9931,-3.9397,-3.8702,-3.8035,-3.7358,-3.6857,-3.6531,-3.6417,-3.6417,-3.6405,-3.6317,-3.6157,-3.5931,-3.5567,-3.5073,-3.4347,-3.3665,-3.2438,-3.1327,-3.0408,-2.9543,-2.8899,-2.8222,-2.7893,-2.7526,-2.7489,-2.7452,-2.732,-2.732,-2.732,-2.732,-2.732,-2.732,-2.732,-2.732,-2.732,-2.732,-2.732,-2.732,-2.732,-2.7272,-2.7081,-2.6842,-2.6458,-2.6024,-2.5878,-4.9916,-4.9916,-4.9916,-4.9916,-4.9916,-4.9916,-4.9916,-4.9916,-4.9916,-4.9717,-4.9356,-4.9144,-4.8914,-4.8759,-4.8604,-4.8604,-4.8604,-4.8604,-4.8604,-4.8604,-4.8604,-4.8604,-4.8604,-4.8604,-4.8563,-4.8438,-4.8088,-4.7946,-4.7804,-4.6755,-4.6137,-4.5417,-4.4466,-4.36,-4.2462,-4.2007,-4.1597,-4.1448,-4.1311,-4.1311,-4.1311,-4.1311,-4.1311,-4.1311,-4.1311,-4.1311,-4.1311,-4.1311,-4.1311,-4.1311,-4.1311,-4.1311,-4.1311,-4.1311,-4.1311,-4.1311,-4.1311,-4.1311,-4.1311,-4.1311,-4.1311,-4.1311,-4.1311,-4.1311,-4.1261,-4.1174,-4.0909,-4.0909,-4.0668,-4.0196,-3.9382,-3.8488,-3.7722,-3.7033,-3.6707,-3.6417,-3.6417,-3.6417,-3.6417,-3.638,-3.6292,-3.6169,-3.5931,-3.5554,-3.4977,-3.4286,-3.3463,-3.239,-3.1568,-3.0683,-2.9852,-2.913,-2.8445,-2.8081,-2.7762,-2.7536,-2.7309,-2.732,-2.732,-2.732,-2.732,-2.732,-2.732,-2.732,-2.732,-2.732,-2.732,-2.732,-2.732,-2.732,-2.7034,-2.6699,-2.6352,-2.5965,-2.5868,-4.9916,-4.9916,-4.9916,-4.9916,-4.9916,-4.9916,-4.9916,-4.9876,-4.9836,-4.9733,-4.9493,-4.9159,-4.8955,-4.8857,-4.8661,-4.8604,-4.8604,-4.8604,-4.8604,-4.8604,-4.8604,-4.8604,-4.8604,-4.8604,-4.8604,-4.8604,-4.8381,-4.7988,-4.7505,-4.7334,-4.6755,-4.6048,-4.5372,-4.4466,-4.2693,-4.2043,-4.1733,-4.1696,-4.1498,-4.1597,-4.1311,-4.1411,-4.1547,-4.1311,-4.1311,-4.1311,-4.1311,-4.1311,-4.1311,-4.1311,-4.1311,-4.1311,-4.1311,-4.1311,-4.1311,-4.1311,-4.1311,-4.1311,-4.1311,-4.1311,-4.1311,-4.1311,-4.1311,-4.1311,-4.1211,-4.0959,-4.0707,-4.0858,-4.0338,-3.9437,-3.863,-3.8014,-3.7448,-3.687,-3.6543,-3.6417,-3.6417,-3.6417,-3.6417,-3.6417,-3.6417,-3.6367,-3.6169,-3.5893,-3.5403,-3.4826,-3.4236,-3.3429,-3.256,-3.1612,-3.0668,-2.9943,-2.9176,-2.8491,-2.8081,-2.7584,-2.7357,-2.732,-2.732,-2.732,-2.732,-2.732,-2.732,-2.732,-2.732,-2.732,-2.732,-2.732,-2.732,-2.7272,-2.6842,-2.6506,-2.6207,-2.5955,-2.5868,-4.9916,-4.9916,-4.9916,-4.9916,-4.9916,-4.9916,-4.9916,-4.9836,-4.9637,-4.9477,-4.9331,-4.8924,-4.8718,-4.8702,-4.8661,-4.8604,-4.8604,-4.8604,-4.8604,-4.8604,-4.8604,-4.8604,-4.8604,-4.8604,-4.8604,-4.8604,-4.8563,-4.8521,-4.8229,-4.803,-4.7548,-4.6886,-4.6078,-4.5084,-4.4298,-4.3735,-4.3355,-4.2709,-4.2806,-4.2806,-4.1597,-4.1832,-4.1918,-4.1311,-4.1311,-4.1311,-4.1311,-4.1311,-4.1311,-4.1311,-4.1311,-4.1311,-4.1311,-4.1311,-4.1311,-4.1311,-4.1311,-4.1311,-4.1311,-4.1311,-4.1311,-4.1311,-4.1311,-4.1311,-4.1261,-4.1174,-4.106,-4.0858,-4.0402,-3.9588,-3.8836,-3.8263,-3.7586,-3.6757,-3.6417,-3.6417,-3.6417,-3.6417,-3.6417,-3.6417,-3.6417,-3.6417,-3.6317,-3.6157,-3.5755,-3.5215,-3.4625,-3.396,-3.3125,-3.2168,-3.1226,-3.0633,-2.9897,-2.913,-2.8445,-2.7998,-2.7499,-2.732,-2.732,-2.732,-2.732,-2.732,-2.732,-2.732,-2.732,-2.732,-2.732,-2.732,-2.732,-2.7177,-2.6842,-2.6544,-2.6352,-2.611,-2.5868,-4.9916,-4.9916,-4.9916,-4.9916,-4.9916,-4.9916,-4.9916,-4.9836,-4.9477,-4.9275,-4.9194,-4.8811,-4.8604,-4.8604,-4.8604,-4.8604,-4.8604,-4.8604,-4.8604,-4.8604,-4.8604,-4.8604,-4.8604,-4.8604,-4.8604,-4.8604,-4.8604,-4.8563,-4.848,-4.8563,-4.8214,-4.7591,-4.6827,-4.6491,-4.5899,-4.5161,-4.4205,-4.3606,-4.3559,-4.2999,-4.2199,-4.2016,-4.1868,-4.1448,-4.1311,-4.1311,-4.1311,-4.1311,-4.1311,-4.1311,-4.1311,-4.1311,-4.1311,-4.1311,-4.1311,-4.1311,-4.1311,-4.1311,-4.1311,-4.1311,-4.1311,-4.1311,-4.1311,-4.1311,-4.1261,-4.1161,-4.106,-4.0858,-4.0605,-3.9878,-3.9003,-3.839,-3.7662,-3.6845,-3.648,-3.648,-3.6417,-3.6417,-3.6417,-3.6417,-3.6417,-3.6417,-3.6405,-3.6342,-3.6153,-3.5554,-3.4989,-3.4374,-3.3759,-3.2839,-3.2115,-3.1672,-3.0871,-3.0034,-2.9268,-2.8491,-2.7951,-2.7404,-2.732,-2.732,-2.732,-2.732,-2.732,-2.732,-2.732,-2.732,-2.732,-2.732,-2.732,-2.7225,-2.6938,-2.6688,-2.6544,-2.6207,-2.5868,-4.9916,-4.9916,-4.9916,-4.9916,-4.9916,-4.9916,-4.9916,-4.9836,-4.9477,-4.9275,-4.9275,-4.8826,-4.8604,-4.8604,-4.8604,-4.8604,-4.8604,-4.8604,-4.8604,-4.8604,-4.8604,-4.8604,-4.8604,-4.8604,-4.8604,-4.8604,-4.8604,-4.8604,-4.8604,-4.8604,-4.8521,-4.8412,-4.7919,-4.7536,-4.6915,-4.6062,-4.5052,-4.4577,-4.4298,-4.3592,-4.2744,-4.215,-4.1881,-4.1498,-4.1311,-4.1311,-4.1311,-4.1311,-4.1311,-4.1311,-4.1311,-4.1311,-4.1311,-4.1311,-4.1311,-4.1311,-4.1311,-4.1311,-4.1311,-4.1311,-4.1311,-4.1311,-4.1311,-4.1311,-4.1261,-4.1147,-4.101,-4.0757,-4.0427,-3.9766,-3.9058,-3.8441,-3.7751,-3.7149,-3.6644,-3.6531,-3.6443,-3.6417,-3.6417,-3.6417,-3.6417,-3.6417,-3.6417,-3.6367,-3.6317,-3.5943,-3.5516,-3.5391,-3.47,-3.3709,-3.3164,-3.3056,-3.2196,-3.1071,-3.017,-2.9037,-2.8128,-2.7452,-2.732,-2.732,-2.732,-2.732,-2.732,-2.732,-2.732,-2.732,-2.732,-2.732,-2.732,-2.7177,-2.6976,-2.6747,-2.6496,-2.6159,-2.582,-4.9916,-4.9916,-4.9916,-4.9916,-4.9916,-4.9916,-4.9916,-4.9836,-4.9477,-4.9275,-4.9275,-4.8826,-4.8604,-4.8604,-4.8604,-4.8604,-4.8604,-4.8604,-4.8604,-4.8604,-4.8604,-4.8604,-4.8604,-4.8604,-4.8604,-4.8604,-4.8604,-4.8604,-4.8604,-4.8604,-4.8412,-4.816,-4.8133,-4.788,-4.7437,-4.6829,-4.6166,-4.5658,-4.5463,-4.4517,-4.3579,-4.3143,-4.2479,-4.1881,-4.1597,-4.1597,-4.1597,-4.1547,-4.1498,-4.1411,-4.1311,-4.1311,-4.1311,-4.1311,-4.1311,-4.1311,-4.1311,-4.1311,-4.1311,-4.1311,-4.1311,-4.1311,-4.1311,-4.1311,-4.1261,-4.1147,-4.0997,-4.0694,-4.0377,-3.9855,-3.9222,-3.8592,-3.7989,-3.7387,-3.686,-3.6581,-3.6493,-3.6417,-3.6417,-3.6417,-3.6417,-3.6417,-3.6417,-3.6405,-3.6329,-3.6179,-3.6006,-3.5918,-3.5579,-3.4562,-3.3947,-3.384,-3.3069,-3.1817,-3.0476,-2.936,-2.8351,-2.7584,-2.7452,-2.7309,-2.732,-2.732,-2.732,-2.732,-2.732,-2.732,-2.732,-2.732,-2.732,-2.7119,-2.6928,-2.6688,-2.6458,-2.611,-2.582,-4.9916,-4.9916,-4.9916,-4.9916,-4.9876,-4.9812,-4.9797,-4.9717,-4.9437,-4.9235,-4.9128,-4.8785,-4.8604,-4.8604,-4.8604,-4.8604,-4.8604,-4.8604,-4.8604,-4.8604,-4.8604,-4.8604,-4.8604,-4.8604,-4.8604,-4.8604,-4.8604,-4.8604,-4.8563,-4.8495,-4.8328,-4.8175,-4.8007,-4.7709,-4.7424,-4.7207,-4.6931,-4.6594,-4.6211,-4.5494,-4.4854,-4.4158,-4.3321,-4.2722,-4.2444,-4.2395,-4.2382,-4.2395,-4.2297,-4.2016,-4.1918,-4.1634,-4.1498,-4.1311,-4.1311,-4.1311,-4.1311,-4.1311,-4.1311,-4.1311,-4.1311,-4.1311,-4.1311,-4.1311,-4.1261,-4.1147,-4.0946,-4.0694,-4.0415,-4.0045,-3.9424,-3.8793,-3.819,-3.76,-3.7111,-3.6669,-3.6543,-3.643,-3.6417,-3.6417,-3.6417,-3.6417,-3.6417,-3.6417,-3.638,-3.6254,-3.6094,-3.5994,-3.5793,-3.5253,-3.4613,-3.4329,-3.3429,-3.2361,-3.1033,-2.9852,-2.8945,-2.8081,-2.7489,-2.7404,-2.7357,-2.732,-2.732,-2.732,-2.732,-2.732,-2.732,-2.732,-2.7272,-2.7119,-2.7023,-2.689,-2.6602,-2.612,-2.5878,-4.9916,-4.9916,-4.9916,-4.9916,-4.9876,-4.9677,-4.9597,-4.9557,-4.9356,-4.9169,-4.898,-4.8718,-4.8604,-4.8604,-4.8604,-4.8604,-4.8604,-4.8604,-4.8604,-4.8604,-4.8604,-4.8604,-4.8604,-4.8604,-4.8604,-4.8604,-4.8604,-4.8604,-4.8521,-4.8495,-4.837,-4.826,-4.7922,-4.7624,-4.751,-4.7352,-4.7164,-4.7077,-4.658,-4.5913,-4.5539,-4.4946,-4.4359,-4.4172,-4.4125,-4.4125,-4.4172,-4.4078,-4.3876,-4.3225,-4.266,-4.2248,-4.1634,-4.1311,-4.1311,-4.1311,-4.1311,-4.1311,-4.1311,-4.1311,-4.1311,-4.1311,-4.1311,-4.1261,-4.1147,-4.1161,-4.101,-4.0744,-4.0478,-4.0211,-3.9652,-3.907,-3.8466,-3.7852,-3.7337,-3.6857,-3.6493,-3.6417,-3.6417,-3.6417,-3.6417,-3.6417,-3.6417,-3.6417,-3.6417,-3.6304,-3.6194,-3.6094,-3.5956,-3.568,-3.5303,-3.4813,-3.3868,-3.2892,-3.1735,-3.0592,-2.9646,-2.8806,-2.7951,-2.7452,-2.7309,-2.732,-2.732,-2.732,-2.732,-2.732,-2.732,-2.732,-2.732,-2.7262,-2.7167,-2.7129,-2.6747,-2.6265,-2.6024,-4.9916,-4.9916,-4.9916,-4.9916,-4.9876,-4.9677,-4.9533,-4.9372,-4.9144,-4.9037,-4.8955,-4.8718,-4.8604,-4.8604,-4.8604,-4.8604,-4.8604,-4.8604,-4.8604,-4.8604,-4.8604,-4.8604,-4.8604,-4.8604,-4.8604,-4.8604,-4.8604,-4.8604,-4.8578,-4.8495,-4.8328,-4.8091,-4.7837,-4.7681,-4.7439,-4.7309,-4.7266,-4.7266,-4.7019,-4.6447,-4.5928,-4.5598,-4.5175,-4.473,-4.4452,-4.4545,-4.4545,-4.4406,-4.4266,-4.389,-4.3129,-4.2333,-4.1361,-4.1311,-4.1311,-4.1311,-4.1311,-4.1311,-4.1311,-4.1311,-4.1311,-4.1311,-4.1261,-4.1147,-4.1097,-4.1161,-4.106,-4.0808,-4.0491,-4.0236,-3.9867,-3.9285,-3.8693,-3.8128,-3.7563,-3.701,-3.6493,-3.643,-3.6417,-3.6417,-3.6417,-3.6417,-3.6417,-3.6417,-3.6417,-3.6392,-3.6367,-3.6317,-3.6317,-3.6081,-3.583,-3.529,-3.4399,-3.3373,-3.2402,-3.1388,-3.0468,-2.9289,-2.8312,-2.7794,-2.7367,-2.732,-2.732,-2.732,-2.732,-2.732,-2.732,-2.732,-2.7309,-2.7309,-2.7214,-2.7129,-2.6842,-2.641,-2.6207,-4.9916,-4.9916,-4.9916,-4.9916,-4.9836,-4.9597,-4.9396,-4.9235,-4.8965,-4.8816,-4.88,-4.8661,-4.8604,-4.8604,-4.8604,-4.8604,-4.8604,-4.8604,-4.8604,-4.8604,-4.8604,-4.8604,-4.8604,-4.8604,-4.8604,-4.8604,-4.8604,-4.8563,-4.8578,-4.837,-4.816,-4.7964,-4.7837,-4.7596,-4.7309,-4.7309,-4.7309,-4.7309,-4.7309,-4.6975,-4.6403,-4.6314,-4.6255,-4.5718,-4.5627,-4.5582,-4.5627,-4.5522,-4.5021,-4.4125,-4.2854,-4.2052,-4.1411,-4.1311,-4.1311,-4.1311,-4.1311,-4.1311,-4.1311,-4.1311,-4.1311,-4.1311,-4.1147,-4.0984,-4.0933,-4.0946,-4.0694,-4.044,-4.0147,-3.989,-3.9826,-3.9422,-3.9032,-3.8555,-3.7939,-3.7349,-3.6807,-3.6417,-3.6417,-3.6417,-3.6417,-3.6417,-3.6417,-3.6417,-3.6417,-3.6417,-3.6405,-3.6392,-3.6405,-3.6417,-3.6144,-3.5843,-3.5002,-3.4392,-3.3687,-3.2554,-3.1382,-3.0147,-2.8924,-2.8156,-2.7731,-2.7473,-2.732,-2.7404,-2.7404,-2.732,-2.732,-2.7272,-2.732,-2.7309,-2.7225,-2.7081,-2.6784,-2.6544,-2.6294,-4.9876,-4.9876,-4.9916,-4.9916,-4.9836,-4.9477,-4.9275,-4.9235,-4.8826,-4.8604,-4.862,-4.8604,-4.8604,-4.8604,-4.8604,-4.8604,-4.8604,-4.8604,-4.8604,-4.8604,-4.8604,-4.8604,-4.8604,-4.8604,-4.8604,-4.8604,-4.8604,-4.8563,-4.8521,-4.8286,-4.8091,-4.7895,-4.7639,-4.7309,-4.7309,-4.7309,-4.7309,-4.7309,-4.7309,-4.7309,-4.7266,-4.7309,-4.7121,-4.7164,-4.7309,-4.7309,-4.7266,-4.6975,-4.6136,-4.5067,-4.3464,-4.2479,-4.2016,-4.1967,-4.1782,-4.1819,-4.172,-4.167,-4.1584,-4.1461,-4.1361,-4.1261,-4.1047,-4.0883,-4.0833,-4.0593,-4.0338,-4.0134,-3.9839,-3.9788,-3.9788,-3.9622,-3.9283,-3.8831,-3.8203,-3.76,-3.7046,-3.648,-3.643,-3.643,-3.6417,-3.6417,-3.6417,-3.6417,-3.6417,-3.6417,-3.6417,-3.6417,-3.6417,-3.6417,-3.6317,-3.6144,-3.573,-3.5219,-3.4652,-3.3575,-3.2251,-3.1491,-3.0305,-2.908,-2.8141,-2.8062,-2.7888,-2.7631,-2.7584,-2.7357,-2.7262,-2.7214,-2.7262,-2.7225,-2.7034,-2.6842,-2.6747,-2.6496,-2.6294,-4.9757,-4.9916,-4.9916,-4.9916,-4.9836,-4.9477,-4.9275,-4.9235,-4.8826,-4.8604,-4.8604,-4.8604,-4.8604,-4.8604,-4.8604,-4.8604,-4.8604,-4.8604,-4.8604,-4.8604,-4.8604,-4.8604,-4.8604,-4.8604,-4.8604,-4.8604,-4.8563,-4.8537,-4.8453,-4.8286,-4.8049,-4.7709,-4.7681,-4.7424,-4.7309,-4.7309,-4.7309,-4.7309,-4.7309,-4.7309,-4.7309,-4.7309,-4.7309,-4.7309,-4.7309,-4.7309,-4.7309,-4.7309,-4.7077,-4.6462,-4.5326,-4.3876,-4.3177,-4.295,-4.2902,-4.2382,-4.2271,-4.2186,-4.2003,-4.1498,-4.1298,-4.1211,-4.0997,-4.0681,-4.0593,-4.0338,-4.0147,-3.9942,-3.9788,-3.9942,-3.9929,-3.9736,-3.9446,-3.8793,-3.8153,-3.7638,-3.7086,-3.6732,-3.6505,-3.6455,-3.6417,-3.6417,-3.6417,-3.6417,-3.6417,-3.6417,-3.6417,-3.6417,-3.6417,-3.6417,-3.6417,-3.6342,-3.6254,-3.5604,-3.4835,-3.4163,-3.3076,-3.2468,-3.1761,-3.066,-2.9697,-2.8959,-2.8672,-2.8325,-2.7731,-2.7309,-2.7262,-2.7119,-2.7034,-2.6948,-2.6747,-2.6554,-2.6506,-2.64,-2.6197]},{"header":{"parameterUnit":"m.s-1","parameterCategory":1,"la1":31.0,"la2":29.5877,"lo1":-88.7671,"lo2":-86.6584,"dy":0.0162,"dx":0.0185,"nx":115,"ny":88,"refTime":"2023-08-01T00:00:00:Z","depth":0,"parameterNumber":3,"parameterNumberName":"V-component_of_WINDS"},"data":[0.0,0.0,0.0,0.0,0.0,0.0,0.0,0.0,0.0,0.0,0.0,0.0,0.0,0.0,0.0,0.0,0.0,0.0,0.0,0.0,0.0,0.0,0.0,0.0,0.0,0.0,0.0,0.0,0.0,0.0,0.0,0.0,0.0,0.0,0.0,0.0,0.0,0.0,0.0,0.0,0.0,0.0,0.0,0.0,0.0,0.0,0.0,0.0,0.0,0.0,0.0,0.0,0.0,0.0,0.0,0.0,0.0,0.0,0.0,0.0,0.0,0.0,0.0,0.0,0.0,0.0,0.0,0.0,0.0,0.0,0.0,0.0,0.0,0.0,0.0,0.0,0.0,0.0,0.0,0.0,0.0,0.0,0.0,0.0,0.0,0.0,0.0,0.0,0.0,0.0,0.0,0.0,0.0,0.0,0.0,0.0,0.0,0.0,0.0,0.0,0.0,0.0,0.0,0.0,0.0,0.0,0.0,0.0,0.0,0.0,0.0,0.0,0.0,0.0,0.0,0.0,0.0,0.0,0.0,0.0,0.0,0.0,0.0,0.0,0.0,0.0,0.0,0.0,0.0,0.0,0.0,0.0,0.0,0.0,0.0,0.0,0.0,0.0,0.0,0.0,0.0,0.0,0.0,0.0,0.0,0.0,0.0,0.0,0.0,0.0,0.0,0.0,0.0,0.0,0.0,0.0,0.0,0.0,0.0,0.0,0.0,0.0,0.0,0.0,0.0,0.0,0.0,0.0,0.0,0.0,0.0,0.0,0.0,0.0,0.0,0.0,0.0,0.0,0.0,0.0,0.0,0.0,0.0,0.0,0.0,0.0,0.0,0.0,0.0,0.0,0.0,0.0,0.0,0.0,0.0,0.0,0.0,0.0,0.0,0.0,0.0,0.0,0.0,0.0,0.0,0.0,0.0,0.0,0.0,0.0,0.0,0.0,0.0,0.0,0.0,0.0,0.0,0.0,0.0,0.0,0.0,0.0,0.0,0.0,0.0,0.0,0.0,0.0,0.0,0.0,0.0,0.0,0.0,0.0,0.0,0.0,0.0,0.0,0.0,0.0,0.0,0.0,0.0,0.0,0.0,0.0,0.0,0.0,0.0,0.0,0.0,0.0,0.0,0.0,0.0,0.0,0.0,0.0,0.0,0.0,0.0,0.0,0.0,0.0,0.0,0.0,0.0,0.0,0.0,0.0,0.0,0.0,0.0,0.0,0.0,0.0,0.0,0.0,0.0,0.0,0.0,0.0,0.0,0.0,0.0,0.0,0.0,0.0,0.0,0.0,0.0,0.0,0.0,0.0,0.0,0.0,0.0,0.0,0.0,0.0,0.0,0.0,0.0,0.0,0.0,0.0,0.0,0.0,0.0,0.0,0.0,0.0,0.0,0.0,0.0,0.0,0.0,0.0,0.0,0.0,0.0,0.0,0.0,0.0,0.0,0.0,0.0,0.0,0.0,0.0,0.0,0.0,0.0,0.0,0.0,0.0,0.0,0.0,0.0,0.0,0.0,0.0,0.0,0.0,0.0,0.0,0.0,0.0,0.0,0.0,0.0,0.0,0.0,0.0,0.0,0.0,0.0,0.0,0.0,0.0,0.0,0.0,0.0,0.0,0.0,0.0,0.0,0.0,0.0,0.0,0.0,0.0,0.0,0.0,0.0,0.0,0.0,0.0,0.0,0.0,0.0,0.0,0.0,0.0,0.0,0.0,0.0,0.0,0.0,0.0,0.0,0.0,0.0,0.0,0.0,0.0,0.0,0.0,0.0,0.0,0.0,0.0,0.0,0.0,0.0,0.0,0.0,0.0,0.0,0.0,0.0,0.0,0.0,0.0,0.0,0.0,0.0,0.0,0.0,0.0,0.0,0.0,0.0,0.0,0.0,0.0,0.0,0.0,0.0,0.0,0.0,0.0,0.0,0.0,0.0,0.0,0.0,0.0,0.0,0.0,0.0,0.0,0.0,0.0,0.0,0.0,0.0,0.0,0.0,0.0,0.0,0.0,0.0,0.0,0.0,0.0,0.0,0.0,0.0,0.0,0.0,0.0,0.0,0.0,0.0,0.0,0.0,0.0,0.0,0.0,0.0,0.0,0.0,0.0,0.0,0.0,0.0,0.0,0.0,0.0,0.0,0.0,0.0,0.0,0.0,0.0,0.0,0.0,0.0,0.0,0.0,0.0,0.0,0.0,0.0,0.0,0.0,0.0,0.0,0.0,0.0,0.0,0.0,0.0,0.0,0.0,0.0,0.0,0.0,0.0,0.0,0.0,0.0,0.0,0.0,0.0,0.0,0.0,0.0,0.0,0.0,0.0,0.0,0.0,0.0,0.0,0.0,0.0,0.0,0.0,0.0,0.0,0.0,0.0,0.0,0.0,0.0,0.0,0.0,0.0,0.0,0.0,0.0,0.0,0.0,0.0,0.0,0.0,0.0,0.0,0.0,0.0,0.0,0.0,0.0,0.0,0.0,0.0,0.0,0.0,0.0,0.0,0.0,0.0,0.0,0.0,0.0,0.0,0.0,0.0,0.0,0.0,0.0,0.0,0.0,0.0,0.0,0.0,0.0,0.0,0.0,0.0,0.0,0.0,0.0,0.0,0.0,0.0,0.0,0.0,0.0,0.0,0.0,0.0,0.0,0.0,0.0,0.0,0.0,0.0,0.0,0.0,0.0,0.0,0.0,0.0,0.0,0.0,0.0,0.0,0.0,0.0,0.0,0.0,0.0,0.0,0.0,0.0,0.0,0.0,0.0,0.0,0.0,0.0,0.0,0.0,0.0,0.0,0.0,0.0,0.0,0.0,0.0,0.0,0.0,0.0,0.0,0.0,0.0,0.0,0.0,0.0,0.0,0.0,0.0,0.0,0.0,0.0,0.0,0.0,0.0,0.0,0.0,0.0,0.0,0.0,0.0,0.0,0.0,0.0,0.0,0.0,0.0,0.0,0.0,0.0,0.0,0.0,0.0,0.0,0.0,0.0,0.0,0.0,0.0,0.0,0.0,0.0,0.0,0.0,0.0,0.0,0.0,0.0,0.0,0.0,0.0,0.0,0.0,0.0,0.0,0.0,0.0,0.0,0.0,0.0,0.0,0.0,0.0,0.0,0.0,0.0,0.0,0.0,0.0,0.0,0.0,0.0,0.0,0.0,0.0,0.0,0.0,0.0,0.0,0.0,0.0,0.0,0.0,0.0,0.0,0.0,0.0,0.0,0.0,0.0,0.0,0.0,0.0,0.0,0.0,0.0,0.0,0.0,0.0,0.0,0.0,0.0,0.0,0.0,0.0,0.0,0.0,0.0,0.0,0.0,0.0,0.0,0.0,0.0,0.0,0.0,0.0,0.0,0.0,0.0,0.0,0.0,0.0,0.0,0.0,0.0,0.0,0.0,0.0,0.0,0.0,0.0,0.0,0.0,0.0,0.0,0.0,0.0,0.0,0.0,0.0,0.0,0.0,0.0,0.0,0.0,0.0,0.0,0.0,0.0,0.0,0.0,0.0,0.0,0.0,0.0,0.0,0.0,0.0,0.0,0.0,0.0,0.0,0.0,0.0,0.0,0.0,0.0,0.0,0.0,0.0,0.0,0.0,0.0,0.0,0.0,0.0,0.0,0.0,0.0,0.0,0.0,0.0,0.0,0.0,0.0,0.0,0.0,0.0,0.0,0.0,0.0,0.0,0.0,0.0,0.0,0.0,0.0,0.0,0.0,0.0,0.0,0.0,0.0,0.0,0.0,0.0,0.0,0.0,0.0,0.0,0.0,0.0,0.0,0.0,0.0,0.0,0.0,0.0,0.0,0.0,0.0,0.0,0.0,0.0,0.0,0.0,0.0,0.0,0.0,0.0,0.0,0.0,0.0,0.0,0.0,0.0,0.0,0.0,0.0,0.0,0.0,0.0,0.0,0.0,0.0,0.0,0.0,0.0,0.0,0.0,0.0,0.0,0.0,0.0,0.0,0.0,0.0,0.0,0.0,0.0,0.0,0.0,0.0,0.0,0.0,0.0,0.0,0.0,0.0,0.0,0.0,0.0,0.0,0.0,0.0,0.0,0.0,0.0,0.0,0.0,0.0,0.0,0.0,0.0,0.0,0.0,0.0,0.0,0.0,0.0,0.0,0.0,0.0,0.0,0.0,0.0,0.0,0.0,0.0,0.0,0.0,0.0,0.0,0.0,0.0,0.0,0.0,0.0,0.0,0.0,0.0,0.0,0.0,0.0,0.0,0.0,0.0,0.0,0.0,0.0,0.0,0.0,0.0,0.0,0.0,0.0,0.0,0.0,0.0,-2.377,0.0,0.0,0.0,0.0,0.0,0.0,0.0,0.0,0.0,0.0,0.0,0.0,0.0,0.0,0.0,0.0,0.0,0.0,0.0,0.0,0.0,0.0,0.0,0.0,0.0,0.0,0.0,0.0,0.0,0.0,0.0,0.0,0.0,0.0,0.0,0.0,0.0,0.0,0.0,0.0,0.0,0.0,0.0,0.0,0.0,0.0,0.0,0.0,0.0,0.0,0.0,0.0,0.0,0.0,0.0,0.0,0.0,0.0,0.0,0.0,0.0,0.0,0.0,0.0,0.0,0.0,0.0,0.0,0.0,0.0,0.0,0.0,0.0,0.0,0.0,0.0,0.0,0.0,0.0,0.0,0.0,0.0,0.0,0.0,0.0,0.0,0.0,0.0,0.0,0.0,0.0,0.0,0.0,0.0,0.0,0.0,0.0,0.0,0.0,0.0,0.0,0.0,0.0,0.0,0.0,0.0,0.0,0.0,0.0,0.0,-2.5276,-2.5218,-2.5052,-2.4803,-2.446,0.0,0.0,0.0,0.0,0.0,0.0,0.0,0.0,0.0,0.0,0.0,0.0,0.0,0.0,0.0,0.0,0.0,0.0,0.0,0.0,0.0,0.0,0.0,0.0,0.0,0.0,0.0,0.0,0.0,0.0,0.0,0.0,0.0,0.0,0.0,0.0,0.0,0.0,0.0,0.0,0.0,0.0,0.0,0.0,0.0,0.0,0.0,0.0,0.0,0.0,0.0,0.0,0.0,0.0,0.0,0.0,0.0,0.0,0.0,0.0,0.0,0.0,0.0,0.0,0.0,0.0,0.0,0.0,0.0,0.0,0.0,0.0,0.0,0.0,0.0,0.0,0.0,0.0,0.0,0.0,0.0,0.0,0.0,0.0,0.0,0.0,0.0,0.0,0.0,0.0,0.0,0.0,0.0,0.0,0.0,0.0,0.0,0.0,0.0,0.0,0.0,0.0,0.0,0.0,0.0,0.0,0.0,0.0,0.0,0.0,0.0,0.0,-2.5182,-2.5028,-2.4885,0.0,0.0,0.0,0.0,0.0,0.0,0.0,0.0,0.0,0.0,0.0,0.0,0.0,0.0,0.0,0.0,0.0,0.0,0.0,0.0,0.0,0.0,0.0,0.0,0.0,0.0,0.0,0.0,0.0,0.0,0.0,0.0,0.0,0.0,0.0,0.0,0.0,0.0,0.0,0.0,0.0,0.0,0.0,0.0,0.0,0.0,0.0,0.0,0.0,0.0,0.0,0.0,0.0,0.0,0.0,0.0,0.0,0.0,0.0,0.0,0.0,0.0,0.0,0.0,0.0,0.0,0.0,0.0,0.0,0.0,0.0,0.0,0.0,0.0,0.0,0.0,0.0,0.0,0.0,0.0,0.0,0.0,0.0,0.0,0.0,0.0,0.0,0.0,0.0,0.0,0.0,0.0,0.0,0.0,0.0,0.0,0.0,0.0,0.0,0.0,0.0,0.0,0.0,0.0,0.0,0.0,0.0,0.0,0.0,0.0,-2.5312,-2.5312,-2.517,0.0,-2.4409,0.0,0.0,0.0,0.0,0.0,0.0,0.0,0.0,0.0,0.0,0.0,0.0,0.0,0.0,0.0,0.0,0.0,0.0,0.0,0.0,0.0,0.0,0.0,0.0,0.0,0.0,0.0,0.0,0.0,0.0,0.0,0.0,0.0,0.0,0.0,0.0,0.0,0.0,0.0,0.0,0.0,0.0,0.0,0.0,0.0,0.0,0.0,0.0,0.0,0.0,0.0,0.0,0.0,0.0,0.0,0.0,0.0,0.0,0.0,0.0,0.0,0.0,0.0,0.0,0.0,0.0,0.0,0.0,0.0,0.0,0.0,0.0,0.0,0.0,0.0,0.0,0.0,0.0,0.0,0.0,0.0,0.0,0.0,0.0,0.0,0.0,0.0,0.0,0.0,0.0,0.0,0.0,0.0,0.0,0.0,0.0,0.0,0.0,0.0,0.0,0.0,0.0,0.0,0.0,0.0,0.0,0.0,0.0,0.0,0.0,-2.5418,-2.5312,-2.5241,-2.511,0.0,0.0,0.0,0.0,0.0,0.0,0.0,0.0,0.0,0.0,0.0,0.0,0.0,0.0,0.0,0.0,0.0,0.0,0.0,0.0,0.0,0.0,0.0,0.0,0.0,0.0,0.0,0.0,0.0,0.0,0.0,0.0,0.0,0.0,0.0,0.0,0.0,0.0,0.0,0.0,0.0,0.0,0.0,0.0,0.0,0.0,0.0,0.0,0.0,0.0,0.0,0.0,0.0,0.0,0.0,0.0,0.0,0.0,0.0,0.0,0.0,0.0,0.0,0.0,0.0,0.0,0.0,0.0,0.0,0.0,0.0,0.0,0.0,0.0,0.0,0.0,0.0,0.0,0.0,0.0,0.0,0.0,0.0,0.0,0.0,0.0,0.0,0.0,0.0,0.0,0.0,0.0,0.0,0.0,0.0,0.0,0.0,0.0,0.0,0.0,0.0,0.0,0.0,0.0,0.0,0.0,0.0,0.0,0.0,0.0,-2.5606,-2.55,-2.5312,-2.5312,-2.5312,-2.5312,0.0,0.0,0.0,0.0,0.0,0.0,0.0,0.0,0.0,0.0,0.0,0.0,0.0,0.0,0.0,0.0,0.0,0.0,0.0,0.0,0.0,0.0,0.0,0.0,0.0,0.0,0.0,0.0,0.0,0.0,0.0,0.0,0.0,0.0,0.0,0.0,0.0,0.0,0.0,0.0,0.0,0.0,0.0,0.0,0.0,0.0,0.0,0.0,0.0,0.0,0.0,0.0,0.0,0.0,0.0,0.0,0.0,0.0,0.0,0.0,0.0,0.0,0.0,0.0,0.0,0.0,0.0,0.0,0.0,0.0,0.0,0.0,0.0,0.0,0.0,0.0,0.0,0.0,0.0,0.0,0.0,0.0,0.0,0.0,0.0,0.0,0.0,0.0,0.0,0.0,0.0,0.0,0.0,0.0,0.0,0.0,0.0,0.0,0.0,0.0,0.0,0.0,0.0,0.0,0.0,0.0,0.0,0.0,-2.5875,-2.5723,-2.55,-2.5312,-2.5312,-2.5312,0.0,0.0,0.0,0.0,0.0,0.0,0.0,0.0,0.0,0.0,0.0,0.0,0.0,0.0,0.0,0.0,0.0,0.0,0.0,0.0,0.0,0.0,0.0,0.0,0.0,0.0,0.0,0.0,0.0,0.0,0.0,0.0,0.0,0.0,0.0,0.0,0.0,0.0,0.0,0.0,0.0,0.0,0.0,0.0,0.0,0.0,0.0,0.0,0.0,0.0,0.0,0.0,0.0,0.0,0.0,0.0,0.0,0.0,0.0,0.0,0.0,0.0,0.0,0.0,0.0,0.0,0.0,0.0,0.0,0.0,0.0,0.0,0.0,0.0,0.0,0.0,0.0,0.0,0.0,0.0,0.0,0.0,0.0,0.0,0.0,0.0,0.0,0.0,0.0,0.0,0.0,0.0,0.0,0.0,0.0,0.0,0.0,0.0,0.0,0.0,0.0,0.0,0.0,0.0,0.0,0.0,0.0,0.0,0.0,-2.6097,-2.5758,-2.5488,-2.5312,-2.5312,-2.5312,0.0,0.0,0.0,0.0,0.0,0.0,0.0,0.0,0.0,0.0,0.0,0.0,0.0,0.0,0.0,0.0,0.0,0.0,0.0,0.0,0.0,0.0,0.0,0.0,0.0,0.0,0.0,0.0,0.0,0.0,0.0,0.0,0.0,0.0,0.0,0.0,0.0,0.0,0.0,0.0,0.0,0.0,0.0,0.0,0.0,0.0,0.0,0.0,0.0,0.0,0.0,0.0,0.0,0.0,0.0,0.0,0.0,0.0,0.0,0.0,0.0,0.0,0.0,0.0,0.0,0.0,0.0,0.0,0.0,0.0,0.0,0.0,0.0,0.0,0.0,0.0,0.0,0.0,0.0,0.0,0.0,0.0,0.0,0.0,0.0,0.0,0.0,0.0,0.0,0.0,0.0,0.0,0.0,0.0,0.0,0.0,0.0,0.0,0.0,0.0,0.0,0.0,0.0,0.0,0.0,0.0,0.0,0.0,0.0,-2.6616,0.0,-2.6009,-2.5829,-2.5661,-2.5564,0.0,0.0,0.0,0.0,0.0,0.0,0.0,0.0,0.0,0.0,0.0,0.0,0.0,0.0,0.0,0.0,0.0,0.0,0.0,0.0,0.0,0.0,0.0,0.0,0.0,0.0,0.0,0.0,0.0,0.0,0.0,0.0,0.0,0.0,0.0,0.0,0.0,0.0,0.0,0.0,0.0,0.0,0.0,0.0,0.0,0.0,0.0,0.0,0.0,0.0,0.0,0.0,0.0,0.0,0.0,0.0,0.0,0.0,0.0,0.0,0.0,0.0,0.0,0.0,0.0,0.0,0.0,0.0,0.0,0.0,0.0,0.0,0.0,0.0,0.0,0.0,0.0,0.0,0.0,0.0,0.0,0.0,0.0,0.0,0.0,0.0,0.0,0.0,0.0,0.0,0.0,0.0,0.0,0.0,0.0,0.0,0.0,0.0,0.0,0.0,0.0,0.0,0.0,0.0,0.0,0.0,0.0,0.0,-2.7209,-2.7484,-2.731,-2.7074,-2.6885,-2.6406,-2.6117,0.0,0.0,0.0,0.0,0.0,0.0,0.0,0.0,0.0,0.0,0.0,0.0,0.0,0.0,0.0,0.0,0.0,0.0,0.0,0.0,0.0,0.0,0.0,0.0,0.0,0.0,0.0,0.0,0.0,0.0,0.0,0.0,0.0,0.0,0.0,0.0,0.0,0.0,0.0,0.0,0.0,0.0,0.0,0.0,0.0,0.0,0.0,0.0,0.0,0.0,0.0,0.0,0.0,0.0,0.0,0.0,0.0,0.0,0.0,0.0,0.0,0.0,0.0,0.0,0.0,0.0,0.0,0.0,0.0,0.0,0.0,0.0,0.0,0.0,0.0,0.0,0.0,0.0,0.0,0.0,0.0,0.0,0.0,0.0,0.0,0.0,0.0,0.0,0.0,0.0,0.0,0.0,0.0,0.0,0.0,0.0,0.0,0.0,0.0,0.0,0.0,0.0,0.0,0.0,0.0,0.0,0.0,0.0,0.0,-2.806,-2.7998,-2.7884,-2.7706,-2.7384,-2.6863,0.0,0.0,0.0,0.0,0.0,0.0,0.0,0.0,0.0,0.0,0.0,0.0,0.0,0.0,0.0,0.0,0.0,0.0,0.0,0.0,0.0,0.0,0.0,0.0,0.0,0.0,0.0,0.0,0.0,0.0,0.0,0.0,0.0,0.0,0.0,0.0,0.0,0.0,0.0,0.0,0.0,0.0,0.0,0.0,0.0,0.0,0.0,0.0,0.0,0.0,0.0,0.0,0.0,0.0,0.0,0.0,0.0,0.0,0.0,0.0,0.0,0.0,0.0,0.0,0.0,0.0,0.0,0.0,0.0,0.0,0.0,0.0,0.0,0.0,0.0,0.0,0.0,0.0,0.0,0.0,0.0,0.0,0.0,0.0,0.0,0.0,0.0,0.0,0.0,0.0,0.0,0.0,0.0,0.0,0.0,0.0,0.0,0.0,0.0,0.0,0.0,0.0,0.0,0.0,0.0,0.0,0.0,0.0,0.0,-2.9707,-2.9542,-2.9457,-2.9309,-2.8642,-2.7897,-2.7031,0.0,0.0,0.0,0.0,0.0,0.0,0.0,0.0,0.0,0.0,0.0,0.0,0.0,0.0,0.0,0.0,0.0,0.0,0.0,0.0,0.0,0.0,0.0,0.0,0.0,0.0,0.0,0.0,0.0,0.0,0.0,0.0,0.0,0.0,0.0,0.0,0.0,0.0,0.0,0.0,0.0,0.0,0.0,0.0,0.0,0.0,0.0,0.0,0.0,0.0,0.0,0.0,0.0,0.0,0.0,0.0,0.0,0.0,0.0,0.0,0.0,0.0,0.0,0.0,0.0,0.0,0.0,0.0,0.0,0.0,0.0,0.0,0.0,0.0,0.0,0.0,0.0,0.0,0.0,0.0,0.0,0.0,0.0,0.0,0.0,0.0,0.0,0.0,0.0,0.0,0.0,0.0,0.0,0.0,0.0,0.0,0.0,0.0,0.0,0.0,0.0,0.0,0.0,0.0,0.0,0.0,0.0,0.0,-3.2164,-3.1907,-3.1645,-3.1327,-3.0091,-2.916,0.0,0.0,0.0,0.0,0.0,0.0,0.0,0.0,0.0,0.0,0.0,0.0,0.0,0.0,0.0,0.0,0.0,0.0,0.0,0.0,0.0,0.0,0.0,0.0,0.0,0.0,0.0,0.0,0.0,0.0,0.0,0.0,0.0,0.0,0.0,0.0,0.0,0.0,0.0,0.0,0.0,0.0,0.0,0.0,0.0,0.0,0.0,0.0,0.0,0.0,0.0,0.0,0.0,0.0,0.0,0.0,0.0,0.0,0.0,0.0,0.0,0.0,0.0,0.0,0.0,0.0,0.0,0.0,0.0,0.0,0.0,0.0,0.0,0.0,0.0,0.0,0.0,0.0,0.0,0.0,0.0,0.0,0.0,0.0,0.0,0.0,0.0,0.0,0.0,0.0,0.0,0.0,0.0,0.0,0.0,0.0,0.0,0.0,0.0,0.0,0.0,0.0,0.0,0.0,0.0,0.0,0.0,0.0,0.0,-3.4335,-3.4864,-3.4252,-3.2475,-3.1528,-3.0477,0.0,0.0,0.0,0.0,0.0,0.0,0.0,0.0,0.0,0.0,0.0,0.0,0.0,0.0,0.0,0.0,0.0,0.0,0.0,0.0,0.0,0.0,0.0,0.0,0.0,0.0,0.0,0.0,0.0,0.0,0.0,0.0,0.0,0.0,0.0,0.0,0.0,0.0,0.0,0.0,0.0,0.0,0.0,0.0,0.0,0.0,0.0,0.0,0.0,0.0,0.0,0.0,0.0,0.0,0.0,0.0,0.0,0.0,0.0,0.0,0.0,0.0,0.0,0.0,0.0,0.0,0.0,0.0,0.0,0.0,0.0,0.0,0.0,0.0,0.0,0.0,0.0,0.0,0.0,0.0,0.0,0.0,0.0,0.0,0.0,0.0,0.0,0.0,0.0,0.0,0.0,0.0,0.0,0.0,0.0,0.0,0.0,0.0,0.0,0.0,0.0,0.0,0.0,0.0,0.0,0.0,0.0,0.0,-3.4568,-3.5235,-3.6591,-3.6383,-3.4554,-3.3109,-3.1633,0.0,0.0,0.0,0.0,0.0,0.0,0.0,0.0,0.0,0.0,0.0,0.0,0.0,0.0,0.0,0.0,0.0,0.0,0.0,0.0,0.0,0.0,0.0,0.0,0.0,0.0,0.0,0.0,0.0,0.0,0.0,0.0,0.0,0.0,0.0,0.0,0.0,0.0,0.0,0.0,0.0,0.0,0.0,0.0,0.0,0.0,0.0,0.0,0.0,0.0,0.0,0.0,0.0,0.0,0.0,0.0,0.0,0.0,0.0,0.0,0.0,0.0,0.0,0.0,0.0,0.0,0.0,0.0,0.0,0.0,0.0,0.0,0.0,0.0,0.0,0.0,0.0,0.0,0.0,0.0,0.0,0.0,0.0,0.0,0.0,0.0,0.0,0.0,0.0,0.0,0.0,0.0,0.0,0.0,0.0,0.0,0.0,0.0,0.0,0.0,0.0,0.0,0.0,0.0,0.0,0.0,0.0,0.0,-3.5707,-3.5624,-3.7554,-3.8061,-3.6927,-3.4715,-3.2765,0.0,0.0,0.0,0.0,0.0,0.0,0.0,0.0,0.0,0.0,0.0,0.0,0.0,0.0,0.0,0.0,0.0,0.0,0.0,0.0,0.0,0.0,0.0,0.0,0.0,0.0,0.0,0.0,0.0,0.0,0.0,0.0,0.0,0.0,0.0,0.0,0.0,0.0,0.0,0.0,0.0,0.0,0.0,0.0,0.0,0.0,0.0,0.0,0.0,0.0,0.0,0.0,0.0,0.0,0.0,0.0,0.0,0.0,0.0,0.0,0.0,0.0,0.0,0.0,0.0,0.0,0.0,0.0,0.0,0.0,0.0,0.0,0.0,0.0,0.0,0.0,0.0,0.0,0.0,0.0,0.0,0.0,0.0,0.0,0.0,0.0,0.0,0.0,0.0,0.0,0.0,0.0,0.0,0.0,0.0,0.0,0.0,0.0,0.0,0.0,0.0,0.0,0.0,0.0,0.0,0.0,0.0,0.0,-3.6715,-3.75,-3.8545,-3.8733,-3.7856,-3.5917,-3.423,0.0,0.0,0.0,0.0,0.0,0.0,0.0,0.0,0.0,0.0,0.0,0.0,0.0,0.0,0.0,0.0,0.0,0.0,0.0,0.0,0.0,0.0,0.0,0.0,0.0,0.0,0.0,0.0,0.0,0.0,0.0,0.0,0.0,0.0,0.0,0.0,0.0,0.0,0.0,0.0,0.0,0.0,0.0,0.0,0.0,0.0,0.0,0.0,-3.0221,0.0,0.0,0.0,0.0,0.0,0.0,0.0,0.0,0.0,0.0,0.0,0.0,0.0,0.0,0.0,0.0,0.0,0.0,0.0,0.0,0.0,0.0,0.0,0.0,0.0,0.0,0.0,0.0,0.0,0.0,0.0,0.0,0.0,0.0,0.0,0.0,0.0,0.0,0.0,0.0,0.0,0.0,0.0,0.0,0.0,0.0,0.0,0.0,0.0,0.0,0.0,0.0,0.0,0.0,0.0,0.0,0.0,0.0,0.0,-3.653,-3.7468,-3.8265,-3.8402,-3.7876,-3.6887,-3.5476,0.0,0.0,0.0,0.0,0.0,0.0,0.0,0.0,0.0,0.0,0.0,0.0,0.0,0.0,0.0,0.0,0.0,0.0,0.0,0.0,0.0,0.0,0.0,0.0,0.0,0.0,0.0,0.0,0.0,0.0,0.0,0.0,0.0,0.0,0.0,0.0,0.0,0.0,0.0,0.0,0.0,0.0,0.0,0.0,0.0,0.0,0.0,0.0,0.0,0.0,0.0,0.0,0.0,0.0,0.0,0.0,0.0,0.0,0.0,0.0,0.0,0.0,0.0,0.0,0.0,0.0,0.0,0.0,0.0,0.0,0.0,0.0,0.0,0.0,0.0,0.0,0.0,0.0,0.0,0.0,0.0,0.0,0.0,0.0,0.0,0.0,0.0,0.0,0.0,0.0,0.0,0.0,0.0,0.0,0.0,0.0,0.0,0.0,0.0,0.0,0.0,0.0,0.0,0.0,0.0,0.0,0.0,-3.5071,-3.611,-3.6946,-3.7665,-3.7916,-3.768,-3.7618,-3.6466,-3.401,0.0,0.0,0.0,0.0,0.0,0.0,0.0,0.0,0.0,0.0,0.0,0.0,0.0,0.0,0.0,0.0,0.0,0.0,0.0,0.0,0.0,0.0,0.0,0.0,0.0,0.0,0.0,0.0,0.0,0.0,0.0,0.0,0.0,0.0,0.0,0.0,0.0,0.0,-2.7893,-2.9331,0.0,0.0,0.0,0.0,0.0,0.0,0.0,0.0,-3.2801,0.0,0.0,0.0,0.0,0.0,0.0,0.0,0.0,0.0,0.0,0.0,0.0,0.0,0.0,0.0,0.0,0.0,0.0,0.0,0.0,0.0,0.0,0.0,0.0,0.0,0.0,0.0,0.0,0.0,0.0,0.0,0.0,0.0,0.0,0.0,0.0,0.0,0.0,0.0,0.0,0.0,0.0,0.0,0.0,0.0,0.0,0.0,0.0,0.0,0.0,0.0,0.0,0.0,0.0,0.0,0.0,-3.4662,-3.5731,-3.6775,-3.7753,-3.7903,-3.7953,-3.7916,-3.773,-3.6762,-3.5003,0.0,0.0,0.0,0.0,0.0,0.0,0.0,0.0,0.0,0.0,0.0,0.0,0.0,0.0,0.0,0.0,0.0,0.0,0.0,0.0,0.0,0.0,0.0,0.0,0.0,0.0,0.0,0.0,0.0,0.0,0.0,0.0,0.0,0.0,0.0,0.0,0.0,0.0,0.0,-3.0768,-3.1707,0.0,0.0,0.0,0.0,0.0,0.0,0.0,0.0,-3.3965,0.0,0.0,0.0,0.0,0.0,0.0,0.0,0.0,0.0,0.0,0.0,0.0,0.0,0.0,0.0,0.0,0.0,0.0,0.0,0.0,0.0,0.0,0.0,0.0,0.0,0.0,0.0,0.0,0.0,0.0,0.0,0.0,0.0,0.0,0.0,0.0,0.0,0.0,0.0,0.0,0.0,0.0,0.0,0.0,0.0,0.0,0.0,0.0,0.0,0.0,0.0,0.0,0.0,0.0,0.0,-3.4846,-3.6011,-3.6786,-3.7161,-3.7149,-3.7197,-3.7161,-3.7291,-3.6618,0.0,0.0,0.0,0.0,0.0,0.0,0.0,0.0,0.0,0.0,0.0,0.0,0.0,0.0,0.0,0.0,0.0,0.0,0.0,0.0,0.0,0.0,0.0,0.0,0.0,0.0,0.0,0.0,0.0,0.0,0.0,0.0,0.0,0.0,0.0,0.0,0.0,0.0,0.0,0.0,-3.1903,-3.3038,-3.4451,0.0,0.0,0.0,0.0,0.0,0.0,-3.5601,-3.4913,0.0,0.0,0.0,0.0,0.0,0.0,0.0,0.0,0.0,0.0,0.0,0.0,0.0,0.0,0.0,0.0,0.0,0.0,0.0,0.0,0.0,0.0,0.0,0.0,0.0,0.0,0.0,0.0,0.0,0.0,0.0,0.0,0.0,0.0,0.0,0.0,0.0,0.0,0.0,0.0,0.0,0.0,0.0,0.0,0.0,0.0,0.0,0.0,0.0,0.0,0.0,0.0,0.0,0.0,0.0,-3.4787,-3.5996,-3.657,-3.643,-3.6417,-3.6417,-3.6417,-3.6832,-3.6295,0.0,0.0,0.0,0.0,0.0,0.0,0.0,0.0,0.0,0.0,0.0,0.0,0.0,0.0,0.0,0.0,0.0,0.0,0.0,0.0,0.0,0.0,0.0,0.0,0.0,0.0,0.0,0.0,0.0,0.0,0.0,0.0,0.0,0.0,0.0,0.0,0.0,0.0,0.0,0.0,0.0,-3.4112,-3.5634,-3.5434,0.0,0.0,0.0,0.0,-3.7215,-3.6666,0.0,0.0,0.0,0.0,0.0,0.0,0.0,0.0,0.0,0.0,0.0,0.0,0.0,0.0,0.0,0.0,0.0,0.0,0.0,0.0,0.0,0.0,0.0,0.0,0.0,0.0,0.0,0.0,0.0,0.0,0.0,0.0,0.0,0.0,0.0,0.0,0.0,0.0,0.0,0.0,0.0,0.0,0.0,0.0,0.0,0.0,0.0,0.0,0.0,0.0,0.0,0.0,0.0,0.0,0.0,0.0,-3.4809,-3.5649,-3.6208,-3.6417,-3.6417,-3.6417,-3.6417,-3.6468,-3.5906,0.0,0.0,0.0,0.0,0.0,0.0,0.0,0.0,0.0,0.0,0.0,0.0,0.0,0.0,0.0,0.0,0.0,0.0,0.0,0.0,0.0,0.0,0.0,0.0,0.0,0.0,0.0,0.0,0.0,0.0,0.0,0.0,0.0,0.0,0.0,0.0,0.0,0.0,0.0,0.0,0.0,-3.4376,-3.6234,-3.6564,-3.6674,0.0,0.0,-3.7567,-3.7817,-3.77,0.0,0.0,0.0,0.0,0.0,0.0,0.0,0.0,0.0,0.0,0.0,0.0,0.0,0.0,0.0,0.0,0.0,0.0,0.0,0.0,0.0,0.0,0.0,0.0,0.0,0.0,0.0,0.0,0.0,0.0,0.0,0.0,0.0,0.0,0.0,0.0,0.0,0.0,0.0,0.0,0.0,0.0,0.0,0.0,0.0,0.0,0.0,0.0,0.0,0.0,0.0,0.0,0.0,0.0,0.0,-3.4936,-3.5289,-3.65,-3.6902,-3.6443,-3.6707,-3.687,-3.687,-3.6883,-3.6458,0.0,0.0,0.0,0.0,0.0,0.0,0.0,0.0,0.0,0.0,0.0,0.0,0.0,0.0,0.0,0.0,0.0,0.0,0.0,0.0,0.0,0.0,0.0,0.0,0.0,0.0,0.0,0.0,0.0,0.0,0.0,0.0,0.0,0.0,0.0,0.0,0.0,0.0,0.0,0.0,0.0,0.0,-3.6694,-3.7296,0.0,0.0,0.0,-3.813,-3.8376,0.0,0.0,0.0,0.0,0.0,0.0,0.0,0.0,0.0,0.0,0.0,0.0,0.0,0.0,0.0,0.0,0.0,0.0,0.0,0.0,0.0,0.0,0.0,0.0,0.0,0.0,0.0,0.0,0.0,0.0,0.0,0.0,0.0,0.0,0.0,0.0,0.0,0.0,0.0,0.0,0.0,0.0,0.0,0.0,0.0,0.0,0.0,0.0,0.0,0.0,0.0,0.0,0.0,0.0,0.0,0.0,0.0,-3.5914,-3.7281,-3.76,-3.687,-3.7174,-3.74,-3.7387,-3.7387,0.0,0.0,0.0,0.0,0.0,0.0,0.0,0.0,0.0,0.0,0.0,0.0,0.0,0.0,0.0,0.0,0.0,0.0,0.0,0.0,0.0,0.0,0.0,0.0,0.0,0.0,0.0,-2.7312,0.0,0.0,0.0,0.0,0.0,0.0,0.0,0.0,0.0,0.0,0.0,0.0,0.0,0.0,-3.5583,-3.6995,-3.7962,-3.8662,0.0,0.0,-3.8612,-3.8906,-3.8652,-3.8072,0.0,0.0,0.0,0.0,0.0,0.0,0.0,0.0,0.0,0.0,0.0,0.0,0.0,0.0,0.0,0.0,0.0,0.0,0.0,0.0,0.0,0.0,0.0,0.0,0.0,0.0,0.0,0.0,0.0,0.0,0.0,0.0,0.0,0.0,0.0,0.0,0.0,0.0,0.0,0.0,0.0,0.0,0.0,0.0,0.0,0.0,0.0,0.0,0.0,0.0,0.0,0.0,0.0,0.0,0.0,-3.6711,-3.7554,-3.7977,-3.7902,-3.7927,-3.7952,-3.7952,-3.7952,-3.7462,0.0,0.0,0.0,0.0,0.0,0.0,0.0,0.0,0.0,0.0,0.0,0.0,0.0,0.0,0.0,0.0,0.0,0.0,0.0,0.0,0.0,0.0,0.0,0.0,0.0,0.0,0.0,0.0,0.0,0.0,0.0,0.0,0.0,0.0,0.0,0.0,0.0,0.0,0.0,0.0,0.0,-3.6387,-3.7104,-3.8562,-3.9529,0.0,0.0,-3.9529,-3.9358,-3.9358,-3.8972,-3.7963,0.0,0.0,0.0,0.0,0.0,0.0,0.0,0.0,0.0,0.0,0.0,0.0,0.0,0.0,0.0,0.0,0.0,0.0,0.0,0.0,0.0,0.0,0.0,0.0,0.0,0.0,0.0,0.0,0.0,0.0,0.0,0.0,0.0,0.0,0.0,0.0,0.0,0.0,0.0,0.0,0.0,0.0,0.0,0.0,0.0,0.0,0.0,0.0,0.0,0.0,0.0,0.0,0.0,-3.5849,-3.6773,-3.7966,-3.8366,-3.804,-3.8354,-3.8542,-3.8542,-3.8542,-3.8391,0.0,0.0,0.0,0.0,0.0,0.0,0.0,0.0,0.0,0.0,0.0,0.0,0.0,0.0,0.0,0.0,0.0,0.0,0.0,0.0,0.0,0.0,0.0,0.0,0.0,0.0,0.0,0.0,-3.3506,-3.3679,-3.3231,0.0,0.0,0.0,0.0,0.0,0.0,0.0,0.0,0.0,0.0,-3.6633,-3.7779,-3.9238,0.0,0.0,-3.9844,-4.0056,-3.9661,-3.9711,-3.9571,-3.8974,-3.8488,0.0,0.0,0.0,0.0,0.0,0.0,0.0,0.0,0.0,0.0,0.0,0.0,0.0,0.0,0.0,0.0,0.0,0.0,0.0,0.0,0.0,0.0,0.0,0.0,0.0,0.0,0.0,0.0,0.0,0.0,0.0,0.0,0.0,0.0,0.0,0.0,0.0,0.0,0.0,0.0,0.0,0.0,0.0,0.0,0.0,0.0,0.0,0.0,0.0,0.0,0.0,0.0,-3.623,-3.7181,-3.8442,-3.8931,-3.8517,-3.8906,-3.912,-3.917,-3.912,-3.9044,0.0,0.0,0.0,0.0,0.0,0.0,0.0,0.0,0.0,0.0,0.0,0.0,0.0,0.0,0.0,0.0,0.0,0.0,0.0,0.0,0.0,0.0,0.0,0.0,0.0,0.0,0.0,0.0,-3.4911,-3.4795,-3.3766,0.0,0.0,0.0,0.0,0.0,0.0,0.0,0.0,0.0,0.0,-3.7257,-3.8447,-3.9649,-4.025,-3.9803,-4.0231,-4.0424,-4.0001,-4.0051,-4.0143,-4.0114,0.0,0.0,0.0,0.0,0.0,0.0,0.0,0.0,0.0,0.0,0.0,0.0,0.0,0.0,0.0,0.0,0.0,0.0,0.0,0.0,0.0,0.0,0.0,0.0,0.0,0.0,0.0,0.0,0.0,0.0,-2.1507,0.0,0.0,0.0,0.0,0.0,0.0,0.0,0.0,0.0,0.0,0.0,0.0,0.0,0.0,0.0,0.0,0.0,0.0,0.0,0.0,0.0,0.0,-3.6645,-3.7915,-3.9082,-3.9659,-3.9634,-3.9672,-3.9659,-3.9659,-3.9672,-3.9421,-3.8932,0.0,0.0,0.0,0.0,0.0,0.0,0.0,0.0,0.0,0.0,0.0,0.0,0.0,0.0,0.0,0.0,0.0,0.0,0.0,0.0,0.0,0.0,0.0,0.0,0.0,0.0,-3.3645,-3.4955,-3.5358,0.0,0.0,0.0,0.0,0.0,0.0,0.0,0.0,0.0,0.0,-3.7165,-3.8487,-3.8944,-3.9699,-4.0335,-4.0486,-4.0662,-4.073,-4.0539,-4.0489,-4.0734,0.0,0.0,0.0,0.0,0.0,0.0,0.0,0.0,0.0,0.0,0.0,0.0,0.0,0.0,0.0,0.0,0.0,0.0,0.0,0.0,0.0,0.0,0.0,0.0,0.0,0.0,0.0,-2.3096,-2.4355,0.0,0.0,0.0,0.0,0.0,0.0,0.0,0.0,0.0,0.0,0.0,-2.8668,-2.882,0.0,0.0,0.0,0.0,0.0,0.0,0.0,0.0,0.0,0.0,0.0,0.0,-3.708,-3.8015,-3.912,-3.9697,-3.9697,-3.9697,-3.9697,-3.9697,-3.9697,-3.9829,-4.014,0.0,0.0,0.0,0.0,0.0,0.0,0.0,0.0,0.0,0.0,0.0,0.0,0.0,0.0,0.0,0.0,0.0,0.0,0.0,0.0,0.0,0.0,0.0,0.0,0.0,-3.4607,0.0,0.0,0.0,0.0,0.0,0.0,0.0,0.0,0.0,0.0,0.0,-3.6616,-3.7703,-3.852,-3.9234,-3.9918,-4.0748,-4.1333,0.0,0.0,0.0,0.0,0.0,0.0,0.0,0.0,0.0,0.0,0.0,0.0,0.0,0.0,-4.0144,-3.8488,-3.8954,-3.9776,-4.041,0.0,0.0,0.0,0.0,0.0,0.0,0.0,0.0,0.0,0.0,0.0,0.0,0.0,0.0,0.0,0.0,-2.6574,0.0,0.0,0.0,0.0,0.0,0.0,0.0,0.0,-3.0108,-3.0087,-2.9839,-3.0291,-3.0845,0.0,-3.2926,-3.3193,0.0,0.0,0.0,0.0,0.0,0.0,0.0,0.0,-3.7465,-3.8304,-3.922,-3.9697,-3.9697,-3.9697,-3.9697,-3.9697,-4.0032,-4.0437,-4.0929,-4.0893,-4.0643,0.0,0.0,0.0,0.0,0.0,0.0,0.0,0.0,0.0,0.0,0.0,0.0,0.0,0.0,0.0,0.0,0.0,0.0,0.0,0.0,0.0,0.0,0.0,-3.5558,0.0,0.0,0.0,0.0,0.0,0.0,0.0,0.0,0.0,-3.5735,-3.6962,-3.8147,-3.8911,-3.9504,-4.0118,-4.0687,0.0,0.0,0.0,0.0,0.0,0.0,0.0,-4.2701,-4.375,-4.4253,-4.4594,-4.4772,-4.4264,-4.3822,-4.3791,0.0,0.0,-4.1249,-4.1501,-4.2258,-4.2824,-4.3164,-4.3553,-4.4122,-4.4252,-4.4252,0.0,0.0,0.0,0.0,0.0,0.0,0.0,0.0,-2.6855,-2.714,0.0,-2.7791,0.0,0.0,0.0,0.0,0.0,-2.9401,0.0,0.0,-3.1567,-3.1536,-3.0867,-3.2436,-3.3027,-3.26,-3.4546,-3.5716,-3.6063,-3.5892,0.0,0.0,0.0,0.0,0.0,0.0,-3.7825,-3.8881,-3.9408,-3.9697,-3.9697,-3.9697,-3.9749,-3.9788,-4.0693,-4.1219,-4.1343,-4.2249,-4.2473,-4.1868,-4.0657,0.0,0.0,0.0,0.0,0.0,0.0,0.0,0.0,0.0,0.0,0.0,0.0,0.0,0.0,0.0,0.0,0.0,0.0,0.0,0.0,-3.577,0.0,0.0,0.0,0.0,0.0,0.0,0.0,0.0,0.0,0.0,-3.6207,-3.8345,-3.9763,-3.9165,0.0,0.0,0.0,0.0,-4.2013,-4.2478,-4.2494,-4.2589,-4.2748,-4.333,-4.409,-4.5177,0.0,0.0,-4.6683,-4.5994,-4.5405,-4.5405,-4.6108,-4.6024,-4.3793,-4.4035,-4.4605,-4.4638,-4.526,-4.5831,-4.5864,-4.5864,-4.5864,-2.5305,0.0,0.0,0.0,0.0,-2.5,-2.6045,-2.7754,-2.7871,-2.8462,-2.9371,-2.9478,0.0,0.0,0.0,0.0,0.0,0.0,-3.0787,-3.101,-3.1777,-3.1655,-3.086,-3.1827,-3.2737,-3.3571,-3.4912,-3.643,-3.8041,-3.8378,-3.7942,-3.6812,0.0,0.0,0.0,0.0,-3.8605,-3.8881,-3.9408,-3.9697,-3.9697,-3.9697,-4.0032,-4.0743,-4.1032,-4.19,-4.3341,-4.3662,-4.3839,-4.3775,-4.3011,0.0,0.0,0.0,0.0,0.0,0.0,0.0,0.0,0.0,0.0,0.0,0.0,0.0,0.0,0.0,0.0,0.0,0.0,0.0,-3.6637,-3.6928,-3.6996,0.0,0.0,0.0,0.0,0.0,0.0,0.0,0.0,0.0,-3.8576,-3.9274,-4.0047,0.0,0.0,-4.1768,-4.2045,-4.2816,-4.3637,-4.4381,-4.4478,0.0,0.0,-4.5145,-4.5162,-4.6142,-4.6979,-4.7572,-4.7637,-4.7374,-4.7242,-4.7225,-4.7456,-4.7357,-4.6861,-4.6811,-4.6976,-4.7025,-4.7207,-4.7355,-4.7371,-4.7371,-4.7355,-2.8103,-2.7437,-2.6199,-2.6074,-2.6738,-2.6707,-2.7725,-2.9326,-2.9326,-2.9756,-3.0536,-3.0975,-3.0794,-3.0113,-3.0053,0.0,0.0,0.0,-3.1778,-3.1824,-3.2884,-3.2704,-3.1537,-3.3013,-3.3817,-3.4022,-3.5897,-3.7518,-3.8704,-3.937,-3.9294,-3.8479,0.0,0.0,-3.8693,-3.9245,-3.9634,-3.9848,-4.0174,-4.035,-4.0337,-4.0136,-4.0503,-4.1522,-4.1736,-4.2633,-4.4219,-4.4712,-4.4984,-4.5077,-4.4514,-4.3488,0.0,0.0,0.0,0.0,0.0,0.0,0.0,0.0,0.0,0.0,0.0,-3.4027,-3.4559,0.0,0.0,0.0,-3.6916,-3.7391,-3.8138,-3.7958,0.0,0.0,0.0,0.0,0.0,0.0,0.0,-3.7279,-3.9107,-4.0402,-4.0353,-4.0436,-4.0798,-4.1511,-4.2301,-4.2864,-4.3008,0.0,-4.4816,-4.5338,-4.5419,-4.5647,-4.6252,-4.6122,-4.6238,-4.7077,-4.7637,-4.8001,-4.8001,-4.8001,-4.8001,-4.8001,-4.8001,-4.8001,-4.8001,-4.8001,-4.8001,-4.8001,-4.8001,-4.8001,-4.8001,-4.8001,-4.8001,-2.9853,-3.0229,-2.7409,-2.7163,-2.8628,-2.8648,-2.9616,-3.115,-3.116,-3.116,-3.1276,-3.2352,-3.254,-3.2037,-3.1918,0.0,-3.1277,-3.249,-3.2989,-3.301,-3.4626,-3.4284,-3.2426,-3.5285,-3.5748,-3.4133,-3.7285,-3.8703,-3.8512,-3.9331,-3.9685,-3.9697,-3.9735,-3.976,-3.9785,-4.0262,-4.0736,-4.1275,-4.1263,-4.1275,-4.1263,-4.0842,-4.1116,-4.221,-4.2664,-4.3402,-4.4406,-4.5398,-4.588,-4.5866,-4.53,-4.469,-4.4052,0.0,0.0,0.0,0.0,0.0,0.0,0.0,0.0,0.0,0.0,0.0,0.0,0.0,0.0,0.0,-3.8411,0.0,-3.9364,-3.8796,0.0,0.0,0.0,-3.7522,-3.7726,-3.8345,-3.8884,-3.9235,0.0,0.0,-4.1561,-4.1691,-4.189,-4.227,-4.3376,-4.4195,-4.4119,-4.5043,-4.5693,-4.5726,-4.5776,-4.5856,-4.618,-4.6594,-4.7157,-4.7786,-4.8001,-4.8001,-4.8001,-4.8001,-4.8001,-4.8001,-4.8001,-4.8001,-4.8001,-4.8001,-4.8001,-4.8001,-4.8001,-4.8001,-4.8001,-4.8001,-4.8001,-3.0255,-3.1399,-3.0888,-3.102,-3.1641,-3.1641,-3.2384,-3.3551,-3.3561,-3.3561,-3.3618,-3.3843,-3.3441,-3.2556,-3.2519,-3.2426,-3.2349,-3.3514,-3.4061,-3.4095,-3.4994,-3.4812,-3.379,-3.5375,-3.6116,-3.6156,-3.7242,-3.8254,-3.9072,-3.9519,-3.9581,-3.9438,-4.0007,-4.0325,-4.0325,-4.045,-4.0789,-4.1275,-4.1275,-4.1275,-4.1329,-4.1554,-4.221,-4.3228,-4.3671,-4.4466,-4.5504,-4.579,-4.588,-4.588,-4.5735,-4.5358,-4.469,-4.3311,0.0,0.0,0.0,0.0,0.0,0.0,0.0,0.0,0.0,-3.7184,-3.7546,0.0,-3.8475,0.0,-3.9149,-3.9245,-3.9358,-3.8796,0.0,0.0,-3.7808,-3.7696,-3.8383,-3.8959,-3.9509,-3.9984,-4.1081,-4.186,-4.1961,-4.2553,-4.3251,-4.3988,-4.4142,-4.4438,-4.5107,-4.5989,-4.6579,-4.6628,-4.7025,-4.7438,-4.7438,-4.7603,-4.7785,-4.7968,-4.8001,-4.8001,-4.8001,-4.8001,-4.8001,-4.8001,-4.8001,-4.8001,-4.8001,-4.8001,-4.8001,-4.8001,-4.8001,-4.8001,-4.8001,-4.8001,-4.8001,-3.0197,-3.1574,-3.1842,-3.2804,-3.4022,-3.3628,-3.3658,-3.4075,-3.4293,-3.4151,-3.377,-3.4515,-3.4494,-3.392,-3.4148,-3.3966,-3.3572,-3.4681,-3.5111,-3.4943,-3.6033,-3.5948,-3.482,-3.6302,-3.6844,-3.6567,-3.7606,-3.8396,-3.905,-3.9218,-3.931,-3.9322,-3.9725,-4.0052,-4.0302,-4.0646,-4.0974,-4.1275,-4.1275,-4.1544,-4.1985,-4.2061,-4.2817,-4.4262,-4.4305,-4.4805,-4.588,-4.588,-4.588,-4.588,-4.588,-4.5721,-4.5329,-4.4124,-4.2818,0.0,0.0,0.0,0.0,0.0,0.0,0.0,0.0,0.0,0.0,0.0,-3.9778,-4.0262,-4.0284,-4.0304,-4.0304,-3.9982,-3.9791,-3.9791,-3.9453,-3.9424,-3.9903,-4.0525,-4.1007,-4.13,-4.2239,-4.2857,-4.2799,-4.3465,-4.4266,-4.5086,-4.5294,-4.5611,-4.6103,-4.686,-4.7388,-4.7404,-4.7736,-4.8001,-4.8001,-4.8001,-4.8001,-4.8001,-4.8001,-4.8001,-4.8001,-4.8001,-4.8001,-4.8001,-4.8001,-4.8001,-4.8001,-4.8001,-4.8001,-4.8001,-4.8001,-4.8001,-4.8001,-4.8001,-4.8001,-3.0187,-3.1747,-3.2004,-3.3596,-3.5916,-3.5124,-3.4582,-3.4195,-3.4637,-3.435,-3.363,-3.4921,-3.5489,-3.5512,-3.5971,-3.5619,-3.4725,-3.5893,-3.6195,-3.5844,-3.7322,-3.718,-3.5832,-3.7534,-3.7708,-3.6569,-3.8027,-3.8736,-3.8736,-3.8788,-3.8945,-3.9206,-3.927,-3.9559,-4.0031,-4.073,-4.1137,-4.1275,-4.1342,-4.1851,-4.2814,-4.2576,-4.3255,-4.5001,-4.4744,-4.4957,-4.5835,-4.588,-4.588,-4.588,-4.588,-4.588,-4.5851,-4.4763,-4.3776,0.0,-4.1337,0.0,0.0,0.0,0.0,0.0,0.0,0.0,0.0,-4.1003,-4.1232,-4.1505,-4.1544,-4.1555,-4.1555,-4.1687,-4.168,-4.1502,-4.1586,-4.1653,-4.1656,-4.2221,-4.2617,-4.2726,-4.3317,-4.3731,-4.3764,-4.439,-4.5102,-4.5831,-4.6394,-4.6793,-4.7073,-4.757,-4.7951,-4.8001,-4.8001,-4.8001,-4.8001,-4.8001,-4.8001,-4.8001,-4.8001,-4.8001,-4.8001,-4.8001,-4.8001,-4.8001,-4.8001,-4.8001,-4.8001,-4.8001,-4.8001,-4.8001,-4.8001,-4.8001,-4.8001,-4.8001,-4.8001,-3.1785,-3.3909,-3.4179,-3.5289,-3.685,-3.697,-3.7061,-3.7169,-3.7275,-3.7204,-3.6986,-3.6306,-3.6028,-3.6039,-3.6131,-3.6068,-3.5959,-3.7108,-3.7595,-3.7512,-3.7832,-3.782,-3.75,-3.7873,-3.8039,-3.8027,-3.8303,-3.8461,-3.8461,-3.8684,-3.8736,-3.8579,-3.905,-3.936,-3.9472,0.0,0.0,0.0,-4.1732,-4.2144,-4.2605,-4.3476,-4.4255,-4.4871,-4.5346,0.0,-4.588,-4.588,-4.588,-4.588,-4.588,0.0,0.0,0.0,0.0,0.0,0.0,0.0,0.0,0.0,0.0,0.0,-4.0193,-4.0507,-4.0781,-4.1156,-4.1618,-4.2209,-4.2304,-4.2299,-4.2299,-4.2883,-4.2792,-4.1589,-4.2027,-4.2391,-4.2413,-4.2539,-4.2772,-4.3372,-4.4034,-4.4473,-4.4522,-4.5135,-4.5847,-4.6527,-4.6808,-4.7139,-4.7703,-4.7901,-4.8001,-4.8001,-4.8001,-4.8001,-4.8001,-4.8001,-4.8001,-4.8001,-4.8001,-4.8001,-4.8001,-4.8001,-4.8001,-4.8001,-4.8001,-4.8001,-4.8001,-4.8001,-4.8001,-4.8001,-4.8001,-4.8001,-4.8001,-4.8001,-4.8001,-3.2244,0.0,-3.4803,-3.5685,0.0,-3.7382,-3.7691,-3.7797,-3.7933,-3.7829,-3.7536,-3.6944,-3.6679,-3.669,-3.6937,-3.7108,-3.7108,-3.7761,-3.7974,-3.7974,-3.7974,-3.7974,-3.7974,-3.7974,-3.8039,-3.8198,-3.821,-3.825,-3.8409,-3.8409,-3.8409,-3.8409,-3.8841,-3.905,-3.905,-3.9478,-4.0207,-4.1246,-4.1505,-4.2197,-4.3341,-4.4035,-4.4662,-4.5302,0.0,0.0,0.0,0.0,0.0,0.0,0.0,0.0,0.0,0.0,0.0,-4.3558,-4.289,-4.2107,-4.1178,-4.1076,-4.1131,-4.1237,-4.1636,-4.1804,-4.1585,-4.2401,-4.3099,-4.3464,-4.383,-4.4069,-4.4088,-4.4468,-4.443,-4.3696,-4.3928,-4.4187,-4.4179,-4.4192,-4.4333,-4.4629,-4.5003,-4.5235,-4.5251,-4.5881,-4.6444,-4.6858,-4.7222,-4.757,-4.7918,-4.8001,-4.8001,-4.8001,-4.8001,-4.8001,-4.8001,-4.8001,-4.8001,-4.8001,-4.8001,-4.8001,-4.8001,-4.8001,-4.8001,-4.8001,-4.8001,-4.8001,-4.8001,-4.8001,-4.8001,-4.8001,-4.8001,-4.8001,-4.8001,-4.8001,-4.8001,-3.2768,-3.4814,-3.5091,-3.5751,-3.6766,-3.7262,-3.7596,-3.7691,0.0,0.0,0.0,-3.7336,-3.7324,-3.736,-3.7793,-3.7974,-3.7974,-3.7974,-3.7974,-3.7974,-3.7974,-3.7974,-3.7974,-3.7974,-3.7974,-3.7974,-3.7974,-3.8092,-3.8303,-3.8092,-3.808,-3.8356,-3.8579,-3.8881,-3.9193,-3.9711,-4.0554,-4.1654,-4.1468,-4.2279,-4.4186,-4.4373,-4.4851,-4.579,-4.588,-4.588,-4.588,-4.588,-4.588,-4.588,-4.588,-4.588,-4.5866,-4.5358,-4.4792,-4.4182,-4.3529,-4.2905,-4.2295,-4.2165,-4.216,-4.2392,-4.2743,-4.2813,-4.2551,-4.3762,-4.451,-4.451,-4.5251,-4.5683,-4.5701,-4.5881,-4.5906,-4.5807,-4.5901,-4.593,-4.5798,-4.5798,-4.5715,-4.5798,-4.5881,-4.5997,-4.6013,-4.6626,-4.709,-4.7173,-4.7603,-4.8001,-4.8001,-4.8001,-4.8001,-4.8001,-4.8001,-4.8001,-4.8001,-4.8001,-4.8001,-4.8001,-4.8001,-4.8001,-4.8001,-4.8001,-4.8001,-4.8001,-4.8001,-4.8001,-4.8001,-4.8001,-4.8001,-4.8001,-4.8001,-4.8001,-4.8001,-4.8001,-4.8001,-3.4803,-3.6048,-3.6102,-3.632,-3.67,-3.7024,-3.7453,-3.7945,-3.7986,-3.7938,-3.7878,-3.793,-3.7866,-3.7878,-3.795,-3.7974,-3.7974,-3.7974,-3.7974,0.0,-3.7974,-3.7974,-3.7974,-3.7974,-3.7974,-3.7974,-3.7974,-3.8039,-3.8027,-3.8027,-3.8027,-3.8092,-3.8303,-3.9156,-4.0452,-4.0818,-4.195,-4.3782,-4.2536,-4.2612,-4.4026,-4.4694,-4.517,-4.5549,-4.579,-4.588,-4.588,-4.588,-4.588,-4.588,-4.588,-4.588,-4.588,-4.5838,-4.5459,-4.4792,-4.4182,-4.3558,-4.2905,-4.2382,-4.216,-4.2392,-4.2607,-4.2845,-4.317,-4.3982,-4.451,-4.4548,-4.53,-4.5683,-4.5718,-4.6295,-4.6415,-4.5895,-4.6355,-4.6493,-4.5947,-4.5881,-4.5897,-4.5914,-4.6378,-4.6742,-4.6808,-4.7371,-4.7785,-4.7835,-4.7901,-4.8001,-4.8001,-4.8001,-4.8001,-4.8001,-4.8001,-4.8001,-4.8001,-4.8001,-4.8001,-4.8001,-4.8001,-4.8001,-4.8001,-4.8001,-4.8001,-4.8001,-4.8001,-4.8001,-4.8001,-4.8001,-4.8001,-4.8001,-4.8001,-4.8001,-4.8001,-4.8001,-4.8001,-3.5212,-3.6266,-3.6266,-3.6375,-3.6538,-3.6916,-3.7358,-3.7785,-3.7933,-3.7974,-3.7974,-3.7974,-3.7974,-3.7974,-3.7974,-3.7974,-3.7974,-3.7974,-3.7974,-3.7974,-3.7974,-3.7974,-3.7974,-3.7974,-3.7974,-3.7974,-3.7974,-3.7974,-3.7974,-3.7974,-3.7974,-3.8027,-3.825,-3.9208,-4.0692,-4.0956,-4.2084,-4.4219,-4.3592,-4.3796,-4.4972,-4.5367,-4.5595,-4.57,-4.5835,-4.588,-4.588,-4.588,-4.588,-4.588,-4.588,-4.588,-4.588,-4.588,-4.559,-4.4922,-4.4327,-4.3689,-4.3036,-4.2536,-4.2366,-4.2541,-4.2729,-4.2996,-4.3305,-4.4434,-4.5316,-4.5737,-4.648,-4.6963,-4.6929,-4.6862,-4.6835,-4.6946,-4.6913,-4.6881,-4.6992,-4.699,-4.6974,-4.7023,-4.7289,-4.7487,-4.7504,-4.7785,-4.8001,-4.8001,-4.8001,-4.8001,-4.8001,-4.8001,-4.8001,-4.8001,-4.8001,-4.8001,-4.8001,-4.8001,-4.8001,-4.8001,-4.8001,-4.8001,-4.8001,-4.8001,-4.8001,-4.8001,-4.8001,-4.8001,-4.8001,-4.8001,-4.8001,-4.8001,-4.8001,-4.8001,-4.8001,-4.8001,-4.8001,-3.5433,-3.6266,-3.6266,-3.632,-3.644,-3.6808,-3.7251,-3.7596,-3.7838,-3.7933,-3.7974,-3.7974,-3.7974,-3.7974,-3.7974,-3.7974,-3.7974,-3.7974,-3.7974,-3.7974,-3.7974,-3.7974,-3.7974,-3.7974,-3.7974,-3.7974,-3.7974,-3.7974,-3.7974,-3.7974,-3.7974,-3.808,-3.8502,-3.9506,-4.103,-4.133,-4.2558,-4.4499,-4.4652,-4.5049,-4.5895,-4.588,-4.588,-4.588,-4.588,-4.588,-4.588,-4.588,-4.588,-4.588,-4.588,-4.588,-4.588,-4.588,-4.5663,-4.5111,-4.44,-4.3631,-4.2847,-4.2519,-4.2433,-4.2607,-4.2795,-4.3061,-4.3551,-4.4662,-4.5645,-4.6253,-4.6878,-4.7454,-4.7521,-4.7152,-4.7118,-4.7853,-4.7438,-4.7355,-4.7886,-4.8001,-4.8001,-4.8001,-4.8001,-4.7984,-4.8001,-4.8001,-4.8001,-4.8001,-4.8001,-4.8001,-4.8001,-4.8001,-4.8001,-4.8001,-4.8001,-4.8001,-4.8001,-4.8001,-4.8001,-4.8001,-4.8001,-4.8001,-4.8001,-4.8001,-4.8001,-4.8001,-4.8001,-4.8001,-4.8001,-4.8001,-4.8001,-4.8001,-4.8001,-4.8001,-4.8001,-4.8001,-4.8001,-3.6211,-3.6266,-3.6266,-3.6429,-3.6646,-3.67,-3.7036,-3.7542,-3.7649,-3.7785,-3.7974,-3.7974,-3.7974,-3.7974,-3.7974,-3.7974,-3.7974,-3.7974,-3.7974,-3.7974,-3.7974,-3.7974,-3.7974,-3.7974,-3.7974,-3.7974,-3.7974,-3.7974,-3.7974,-3.7974,-3.8027,-3.8133,-3.9221,-4.049,-4.1798,-4.3006,-4.434,-4.5685,-4.5745,-4.579,-4.588,-4.588,-4.588,-4.588,-4.588,-4.588,-4.588,-4.588,-4.588,-4.588,-4.588,-4.588,-4.588,-4.588,-4.5851,-4.5735,-4.4661,-4.3471,-4.2353,-4.2162,-4.2201,-4.2433,-4.2622,-4.3115,-4.3989,-4.4412,-4.4624,-4.4983,-4.5536,-4.634,-4.6811,-4.6846,-4.7152,-4.7853,-4.7853,-4.7919,-4.7968,-4.8001,-4.8001,-4.8001,-4.8001,-4.8001,-4.8001,-4.8001,-4.8001,-4.8001,-4.8001,-4.8001,-4.8001,-4.8001,-4.8001,-4.8001,-4.8001,-4.8001,-4.8001,-4.8001,-4.8001,-4.8001,-4.8001,-4.8001,-4.8001,-4.8001,-4.8001,-4.8001,-4.8001,-4.8001,-4.8001,-4.8001,-4.8001,-4.8001,-4.8001,-4.8001,-4.8001,-4.8001,-4.8001,-3.6266,-3.6266,-3.6266,-3.6375,-3.6483,-3.6646,-3.6928,-3.7304,-3.753,-3.7744,-3.7986,-3.7974,-3.7974,-3.7974,-3.7974,-3.7974,-3.7974,-3.7974,-3.7974,-3.7974,-3.7974,-3.7974,-3.7974,-3.7974,-3.7974,-3.7974,-3.7974,-3.7974,-3.7974,-3.7974,-3.8344,-3.8948,-3.9506,-4.078,-4.2724,-4.3422,-4.442,-4.5835,-4.588,-4.588,-4.588,-4.588,-4.588,-4.588,-4.588,-4.588,-4.588,-4.588,-4.588,-4.588,-4.588,-4.588,-4.588,-4.588,-4.588,-4.5808,-4.4705,-4.3587,-4.2687,-4.2295,-4.2242,-4.2541,-4.2662,-4.3195,-4.422,-4.4043,-4.432,-4.5665,-4.6182,-4.6673,-4.7337,-4.7067,-4.7118,-4.7737,-4.7605,-4.7488,-4.7968,-4.8001,-4.8001,-4.8001,-4.8001,-4.8001,-4.8001,-4.8001,-4.8001,-4.8001,-4.8001,-4.8001,-4.8001,-4.8001,-4.8001,-4.8001,-4.8001,-4.8001,-4.8001,-4.8001,-4.8001,-4.8001,-4.8001,-4.8001,-4.8001,-4.8001,-4.8001,-4.8001,-4.8001,-4.8001,-4.8001,-4.8001,-4.8001,-4.8001,-4.8001,-4.8001,-4.8001,-4.8001,-4.8001,-3.6484,-3.6449,-3.6335,-3.6266,-3.632,-3.6483,-3.6766,-3.7059,-3.7458,-3.7852,-3.8095,-3.8214,-3.8214,-3.819,-3.8058,-3.7974,-3.7974,-3.7974,-3.7974,-3.7974,-3.7974,-3.7974,-3.7974,-3.7974,-3.7974,-3.7974,-3.7974,-3.7974,-3.7974,-3.7974,-3.8542,-3.9506,-3.9853,-4.118,-4.3232,-4.3721,-4.4545,-4.5685,-4.5835,-4.588,-4.588,-4.588,-4.588,-4.588,-4.588,-4.588,-4.588,-4.588,-4.588,-4.588,-4.588,-4.588,-4.588,-4.588,-4.5808,-4.5576,-4.4763,-4.395,-4.3297,-4.2861,-4.2877,-4.3423,-4.3342,-4.3838,-4.4856,-4.4462,-4.4924,-4.6718,-4.6941,-4.7118,-4.7787,-4.7471,-4.7454,-4.7902,-4.7438,-4.7404,-4.7935,-4.8001,-4.8001,-4.8001,-4.8001,-4.8001,-4.8001,-4.8001,-4.8001,-4.8001,-4.8001,-4.8001,-4.8001,-4.8001,-4.8001,-4.8001,-4.8001,-4.8001,-4.8001,-4.8001,-4.8001,-4.8001,-4.8001,-4.8001,-4.8001,-4.8001,-4.8001,-4.8001,-4.8001,-4.8001,-4.8001,-4.8001,-4.8001,-4.8001,-4.8001,-4.8001,-4.8001,-4.8001,-4.8001,-3.6945,-3.692,-3.6472,-3.63,-3.6277,-3.6355,-3.6518,-3.6948,-3.7563,-3.8103,-3.8454,-3.8635,-3.8767,-3.8707,-3.8214,-3.7974,-3.7974,-3.7974,-3.7974,-3.7974,-3.7974,-3.7974,-3.7974,-3.7974,-3.7974,-3.7974,-3.7974,-3.7974,-3.7974,-3.8027,-3.8542,-3.9609,-4.0617,-4.1851,-4.3273,-4.4387,-4.517,-4.5518,-4.5745,-4.588,-4.588,-4.588,-4.588,-4.588,-4.588,-4.588,-4.588,-4.588,-4.588,-4.588,-4.588,-4.588,-4.588,-4.588,-4.5619,-4.5068,-4.4893,-4.4574,-4.4037,-4.3848,-4.4231,-4.5136,-4.4757,-4.53,-4.698,-4.6175,-4.6228,-4.7726,-4.7364,-4.7298,-4.7935,-4.7919,-4.7853,-4.7968,-4.7968,-4.7935,-4.7968,-4.8001,-4.8001,-4.8001,-4.8001,-4.8001,-4.8001,-4.8001,-4.8001,-4.8001,-4.8001,-4.8001,-4.8001,-4.8001,-4.8001,-4.8001,-4.8001,-4.8001,-4.8001,-4.8001,-4.8001,-4.8001,-4.8001,-4.8001,-4.8001,-4.8001,-4.8001,-4.8001,-4.8001,-4.8001,-4.8001,-4.8001,-4.8001,-4.8001,-4.8001,-4.8001,-4.8001,-4.8001,-4.8001,-3.7322,-3.7023,-3.684,-3.6759,-3.6759,-3.6759,-3.7208,-3.7965,-3.8307,-3.8678,-3.9096,-3.8917,-3.8773,-3.8791,-3.8226,-3.7974,-3.7974,-3.7974,-3.7974,-3.7974,-3.7974,-3.7974,-3.7974,-3.7974,-3.7974,-3.7974,-3.7974,-3.7974,-3.808,-3.8699,-3.9545,-4.0604,-4.1703,-4.2902,-4.4073,-4.4676,-4.5092,-4.5458,-4.5609,-4.573,-4.588,-4.588,-4.588,-4.588,-4.588,-4.588,-4.588,-4.588,-4.588,-4.588,-4.588,-4.588,-4.588,-4.588,-4.5793,-4.5532,-4.5126,-4.4792,-4.456,-4.4211,-4.4492,-4.5585,-4.56,-4.6327,-4.7854,-4.7664,-4.7686,-4.8828,-4.863,-4.8444,-4.848,-4.8299,-4.8017,-4.8001,-4.8001,-4.8001,-4.8001,-4.8001,-4.8001,-4.8001,-4.8001,-4.8001,-4.7951,-4.8001,-4.8001,-4.8001,-4.8001,-4.8001,-4.8001,-4.8001,-4.8001,-4.8001,-4.8001,-4.8001,-4.8001,-4.8001,-4.8001,-4.8001,-4.8001,-4.8001,-4.8001,-4.8001,-4.8001,-4.8001,-4.8001,-4.8001,-4.8001,-4.8001,-4.8001,-4.8001,-4.8001,-4.8001,-4.8001,-4.8001,-4.8001,-3.7747,-3.7322,-3.7276,-3.7276,-3.7276,-3.7265,-3.7696,-3.847,-3.8803,-3.9167,-3.9419,-3.9199,-3.908,-3.8948,-3.831,-3.7974,-3.7974,-3.7974,-3.7974,-3.7974,-3.7974,-3.7974,-3.7974,-3.7974,-3.7974,-3.7974,-3.7974,-3.8133,-3.8594,-3.9248,-4.0363,-4.1716,-4.2488,-4.3396,-4.449,-4.4737,-4.5014,-4.5321,-4.5458,-4.564,-4.588,-4.588,-4.588,-4.588,-4.588,-4.588,-4.588,-4.588,-4.588,-4.588,-4.588,-4.588,-4.588,-4.588,-4.588,-4.5822,-4.5459,-4.5198,-4.5169,-4.4835,-4.5253,-4.6671,-4.6671,-4.7486,-4.9592,-4.9142,-4.9337,-5.0016,-4.9857,-4.9407,-4.9339,-4.9011,-4.8531,-4.815,-4.8001,-4.8001,-4.8001,-4.8001,-4.7868,-4.7669,-4.7587,-4.762,-4.7636,-4.7636,-4.7752,-4.7951,-4.8001,-4.8001,-4.8001,-4.8001,-4.8001,-4.8001,-4.8001,-4.8001,-4.8001,-4.8001,-4.8001,-4.8001,-4.8001,-4.8001,-4.8001,-4.8001,-4.8001,-4.8001,-4.8001,-4.8001,-4.8001,-4.8001,-4.8001,-4.8001,-4.8001,-4.8001,-4.8001,-4.8001,-4.8001,-3.8275,-3.7816,-3.7781,-3.7758,-3.7781,-3.7735,-3.7826,-3.8193,-3.9066,-3.9539,-3.9651,-3.9535,-3.9525,-3.9357,-3.8443,-3.7974,-3.7974,-3.7974,-3.7974,-3.7974,-3.7974,-3.7974,-3.7974,-3.7974,-3.7974,-3.7974,-3.7974,-3.853,-3.9299,-3.9648,-4.0755,-4.2341,-4.2792,-4.3505,-4.4397,-4.4705,-4.4922,-4.5124,-4.5367,-4.5595,-4.5895,-4.588,-4.588,-4.588,-4.588,-4.588,-4.588,-4.588,-4.588,-4.588,-4.588,-4.588,-4.588,-4.588,-4.588,-4.588,-4.5851,-4.5851,-4.5837,-4.5809,-4.6533,-4.8059,-4.8099,-4.8932,-5.0985,-5.0721,-5.0395,-5.1006,-5.0749,-5.0252,-5.0236,-5.0154,-4.9558,-4.8315,-4.8133,-4.8133,-4.8017,-4.8001,-4.7736,-4.7156,-4.7023,-4.6924,-4.6924,-4.7023,-4.7289,-4.7835,-4.8001,-4.8001,-4.8001,-4.8001,-4.8001,-4.8001,-4.8001,-4.8001,-4.8001,-4.8001,-4.8001,-4.8001,-4.8001,-4.8001,-4.8001,-4.8001,-4.8001,-4.8001,-4.8001,-4.8001,-4.8001,-4.8001,-4.8001,-4.8001,-4.8001,-4.8001,-4.8001,-4.8001,-4.8033,-3.8791,-3.8309,-3.793,-3.8011,-3.8252,-3.7953,-3.8275,-3.9175,-3.9779,-4.0115,-4.0204,-3.9826,-3.9609,-3.9357,-3.8467,-3.7974,-3.7974,-3.7974,-3.7974,-3.7974,-3.7974,-3.7974,-3.7974,-3.7974,-3.7974,-3.7974,-3.7974,-3.8198,-3.8752,-4.002,-4.1119,-4.1815,-4.3204,-4.4007,-4.435,-4.4644,-4.4876,-4.5124,-4.5367,-4.564,-4.588,-4.588,-4.588,-4.588,-4.588,-4.588,-4.588,-4.588,-4.588,-4.588,-4.588,-4.588,-4.588,-4.588,-4.588,-4.588,-4.588,-4.588,-4.588,-4.597,-4.677,-4.8424,-4.8753,-4.9891,-5.1855,-5.1908,-5.1691,-5.2009,-5.181,-5.1545,-5.1082,-5.0949,-5.032,-4.8928,-4.8763,-4.8498,-4.8067,-4.7984,-4.7653,-4.7057,-4.6908,-4.6908,-4.6891,-4.6874,-4.7139,-4.7835,-4.8001,-4.8001,-4.8001,-4.8001,-4.8001,-4.8001,-4.8001,-4.8001,-4.8001,-4.8001,-4.8001,-4.8001,-4.8001,-4.8001,-4.8001,-4.8001,-4.8001,-4.8001,-4.8001,-4.8001,-4.8001,-4.8001,-4.8001,-4.8001,-4.8001,-4.8001,-4.8001,-4.8001,-4.8033,-3.9124,-3.8814,-3.8493,-3.8424,-3.8585,-3.839,-3.8597,-3.9128,-3.9593,-3.9847,-3.9791,-3.9404,-3.9199,-3.9128,-3.8371,-3.7998,-3.7974,-3.7974,-3.7974,-3.7974,-3.7974,-3.7974,-3.7974,-3.7974,-3.7974,-3.7974,-3.7974,-3.8437,-3.926,-4.0516,-4.1617,-4.2563,-4.3757,-4.4364,-4.4411,-4.4644,-4.4876,-4.5138,-4.5353,-4.564,-4.5835,-4.588,-4.588,-4.588,-4.588,-4.588,-4.588,-4.588,-4.588,-4.588,-4.588,-4.588,-4.588,-4.588,-4.588,-4.588,-4.588,-4.588,-4.588,-4.5925,-4.6624,-4.8149,-4.886,-4.9836,-5.1438,-5.2036,-5.2409,-5.2409,-5.2359,-5.221,-5.1812,-5.1678,-5.1131,-5.0055,-4.9392,-4.8829,-4.815,-4.7752,-4.7255,-4.6609,-4.6212,-4.6262,-4.6411,-4.651,-4.6924,-4.7703,-4.8001,-4.8001,-4.8001,-4.8001,-4.7984,-4.7984,-4.8001,-4.8001,-4.8001,-4.8001,-4.8001,-4.8001,-4.8001,-4.8001,-4.8001,-4.8001,-4.8001,-4.8001,-4.8001,-4.8001,-4.8001,-4.8001,-4.8001,-4.8001,-4.8001,-4.8001,-4.8001,-4.8001,-4.8033,-3.9308,-3.9308,-3.9251,-3.8941,-3.8654,-3.8906,-3.8585,-3.8056,-3.8642,-3.8949,-3.8762,-3.8646,-3.8592,-3.8665,-3.825,-3.7974,-3.7974,-3.7974,-3.7974,-3.7974,-3.7974,-3.7974,-3.7974,-3.7974,-3.7974,-3.7974,-3.7974,-3.9,-4.0465,-4.1006,-4.2208,-4.3804,-4.4162,-4.4425,-4.4472,-4.4658,-4.4908,-4.5124,-4.5367,-4.5654,-4.588,-4.588,-4.588,-4.588,-4.588,-4.588,-4.588,-4.588,-4.588,-4.588,-4.588,-4.588,-4.588,-4.588,-4.588,-4.588,-4.588,-4.588,-4.588,-4.588,-4.6417,-4.7546,-4.8564,-4.9544,-5.0697,-5.1765,-5.2354,-5.2338,-5.2266,-5.2285,-5.2272,-5.2167,-5.1751,-5.1144,-4.9837,-4.8879,-4.815,-4.7471,-4.6742,-4.598,-4.5235,-4.4937,-4.5649,-4.5715,-4.6378,-4.7255,-4.7653,-4.7587,-4.7653,-4.757,-4.7852,-4.7885,-4.7835,-4.8001,-4.8001,-4.8001,-4.8001,-4.8001,-4.8001,-4.8001,-4.8001,-4.8001,-4.8001,-4.8001,-4.8001,-4.8001,-4.8001,-4.8001,-4.8001,-4.8001,-4.8001,-4.8001,-4.8001,-4.8001,-4.8016,-3.9308,-3.9274,-3.8929,-3.87,-3.8539,-3.8332,-3.8057,-3.7872,-3.826,-3.8519,-3.8609,-3.8496,-3.852,-3.8701,-3.8226,-3.7974,-3.7974,-3.7974,-3.7974,-3.7974,-3.7974,-3.7974,-3.7974,-3.7974,-3.7974,-3.7974,-3.8027,-3.8699,-4.0007,-4.0869,-4.195,-4.3191,-4.4115,-4.4425,-4.4472,-4.4658,-4.4876,-4.5124,-4.5367,-4.564,-4.5835,-4.588,-4.588,-4.588,-4.588,-4.588,-4.588,-4.588,-4.588,-4.588,-4.588,-4.588,-4.588,-4.588,-4.588,-4.588,-4.588,-4.588,-4.588,-4.588,-4.6432,-4.739,-4.8304,-4.932,-5.0413,-5.1508,-5.2086,-5.2086,-5.1798,-5.1709,-5.2106,-5.1871,-5.1186,-5.0415,-4.9626,-4.8994,-4.8564,-4.7686,-4.6609,-4.5864,-4.5119,-4.4854,-4.4984,-4.5116,-4.5417,-4.6212,-4.6527,-4.6527,-4.6742,-4.7106,-4.7388,-4.7471,-4.752,-4.7835,-4.8001,-4.8001,-4.8001,-4.8001,-4.8001,-4.8001,-4.8001,-4.8001,-4.8001,-4.8001,-4.8001,-4.8001,-4.8001,-4.8001,-4.8001,-4.8001,-4.7885,-4.7835,-4.7934,-4.7951,-4.7996,-3.9308,-3.9285,-3.901,-3.8642,-3.8275,-3.8149,-3.7758,-3.7332,-3.7559,-3.7792,-3.7836,-3.7852,-3.8048,-3.8228,-3.8077,-3.7974,-3.7974,-3.7974,-3.7974,-3.7974,-3.7974,-3.7974,-3.7974,-3.7974,-3.7974,-3.7974,-3.8027,-3.8896,-4.016,-4.0919,-4.195,-4.3348,-4.4115,-4.4364,-4.4411,-4.4769,-4.4954,-4.5124,-4.5458,-4.5745,-4.5895,-4.588,-4.588,-4.588,-4.588,-4.588,-4.588,-4.588,-4.588,-4.588,-4.588,-4.588,-4.588,-4.588,-4.588,-4.588,-4.588,-4.588,-4.588,-4.588,-4.6165,-4.6828,-4.7689,-4.8661,-4.9671,-5.0805,-5.1492,-5.1487,-5.1231,-5.1397,-5.1709,-5.1672,-5.1275,-5.0603,-4.9635,-4.8949,-4.8603,-4.7276,-4.6362,-4.5698,-4.4937,-4.439,-4.4605,-4.4702,-4.5052,-4.5599,-4.5947,-4.5914,-4.598,-4.646,-4.6874,-4.699,-4.7404,-4.7852,-4.8001,-4.8001,-4.8001,-4.8001,-4.8001,-4.8001,-4.8001,-4.8001,-4.8001,-4.8001,-4.8001,-4.8001,-4.8001,-4.8001,-4.8001,-4.7951,-4.7785,-4.7587,-4.7587,-4.7469,-4.7578,-3.9308,-3.9308,-3.9308,-3.8711,-3.7965,-3.8321,-3.7632,-3.6619,-3.6771,-3.6945,-3.6971,-3.7059,-3.7441,-3.7649,-3.7981,-3.7974,-3.7974,-3.7974,-3.7974,-3.7974,-3.7974,-3.7974,-3.7974,-3.7974,-3.7974,-3.8027,-3.808,-3.9351,-4.0705,-4.1269,-4.2466,-4.3818,-4.4364,-4.4425,-4.4457,-4.4815,-4.5032,-4.517,-4.5549,-4.5805,-4.5895,-4.588,-4.588,-4.588,-4.588,-4.588,-4.588,-4.588,-4.588,-4.588,-4.588,-4.588,-4.588,-4.588,-4.588,-4.588,-4.588,-4.588,-4.588,-4.588,-4.588,-4.621,-4.6944,-4.7731,-4.8702,-4.975,-5.056,-5.0592,-5.0745,-5.0685,-5.0838,-5.1545,-5.1438,-5.0575,-4.9505,-4.8706,-4.7661,-4.6486,-4.5687,-4.5698,-4.4522,-4.4108,-4.4324,-4.4638,-4.4787,-4.4837,-4.5086,-4.5052,-4.5334,-4.5947,-4.6344,-4.6609,-4.7206,-4.7951,-4.8001,-4.8001,-4.8001,-4.8001,-4.8001,-4.8001,-4.8001,-4.8001,-4.8001,-4.8001,-4.8001,-4.8001,-4.8001,-4.8001,-4.8001,-4.7819,-4.7603,-4.7288,-4.6956,-4.6703,-4.6676,-3.9308,-3.9308,-3.9308,-3.8723,-3.7896,-3.7896,-3.7322,-3.6366,-3.6392,-3.6665,-3.6939,-3.7078,-3.74,-3.7892,-3.7933,-3.7974,-3.7974,-3.7974,-3.7974,-3.7974,-3.7974,-3.7974,-3.7974,-3.7974,-3.7974,-3.8185,-3.8896,-3.9956,-4.1056,-4.2061,-4.3108,-4.4209,-4.4425,-4.4425,-4.4457,-4.4737,-4.4954,-4.5124,-4.5458,-4.5745,-4.588,-4.588,-4.588,-4.588,-4.588,-4.588,-4.588,-4.588,-4.588,-4.588,-4.588,-4.588,-4.588,-4.588,-4.588,-4.588,-4.588,-4.588,-4.588,-4.588,-4.588,-4.6001,-4.6624,-4.7319,-4.7576,-4.8759,-4.9463,-4.9494,-4.9334,-4.9318,-4.9439,-5.0554,-5.0554,-4.9686,-4.9024,-4.8359,-4.6985,-4.5671,-4.5179,-4.5248,-4.4495,-4.3664,-4.3813,-4.3913,-4.4029,-4.4095,-4.4128,-4.4078,-4.4655,-4.5367,-4.5831,-4.6195,-4.7023,-4.7736,-4.8001,-4.8001,-4.8001,-4.8001,-4.8001,-4.8001,-4.8001,-4.8001,-4.8001,-4.8001,-4.8001,-4.8001,-4.8001,-4.8001,-4.8001,-4.7719,-4.7421,-4.7056,-4.6704,-4.625,-4.5774,-3.9308,-3.9308,-3.9308,-3.8711,-3.7885,-3.777,-3.7207,-3.6392,-3.6266,-3.6538,-3.6862,-3.7024,-3.7346,-3.7797,-3.7933,-3.7974,-3.7974,-3.7974,-3.7974,-3.7974,-3.7974,-3.7974,-3.7974,-3.7974,-3.8027,-3.8185,-3.9052,-4.016,-4.1219,-4.2306,-4.33,-4.4317,-4.4425,-4.4425,-4.4457,-4.4737,-4.5,-4.517,-4.5504,-4.579,-4.5895,-4.588,-4.588,-4.588,-4.588,-4.588,-4.588,-4.588,-4.588,-4.588,-4.588,-4.588,-4.588,-4.588,-4.588,-4.588,-4.588,-4.588,-4.588,-4.588,-4.588,-4.588,-4.6373,-4.6784,-4.7189,-4.8069,-4.846,-4.8599,-4.8599,-4.8599,-4.8682,-4.9623,-4.9662,-4.8867,-4.8161,-4.7471,-4.6486,-4.5106,-4.4393,-4.4755,-4.3966,-4.3542,-4.3432,-4.3479,-4.3631,-4.3863,-4.3863,-4.3847,-4.3995,-4.4721,-4.5384,-4.5947,-4.6825,-4.7487,-4.7868,-4.8001,-4.8001,-4.8001,-4.8001,-4.8001,-4.8001,-4.8001,-4.8001,-4.7968,-4.7901,-4.8001,-4.8001,-4.8001,-4.7901,-4.7769,-4.7438,-4.6971,-4.6404,-4.5829,-4.5287,-3.9308,-3.9308,-3.9308,-3.8723,-3.7873,-3.7781,-3.7207,-3.6346,-3.6266,-3.6483,-3.6712,-3.697,-3.7292,-3.7584,-3.788,-3.7974,-3.7974,-3.7974,-3.7974,-3.7974,-3.7974,-3.7974,-3.7974,-3.7974,-3.8027,-3.8133,-3.9403,-4.0465,-4.1306,-4.2404,-4.36,-4.4317,-4.4425,-4.4425,-4.4504,-4.4815,-4.5032,-4.517,-4.5518,-4.5835,-4.5895,-4.588,-4.588,-4.588,-4.588,-4.588,-4.588,-4.588,-4.588,-4.588,-4.588,-4.588,-4.588,-4.588,-4.588,-4.588,-4.588,-4.588,-4.588,-4.588,-4.588,-4.588,-4.5925,-4.621,-4.6872,-4.7233,-4.7505,-4.7719,-4.7846,-4.8198,-4.8449,-4.9116,-4.9157,-4.8394,-4.7277,-4.661,-4.6001,-4.4629,-4.3933,-4.41,-4.338,-4.2714,-4.3035,-4.3265,-4.3432,-4.3568,-4.3598,-4.3648,-4.3813,-4.4175,-4.4903,-4.5616,-4.646,-4.7388,-4.7852,-4.7554,-4.762,-4.757,-4.7669,-4.7554,-4.7537,-4.7305,-4.7206,-4.7719,-4.7785,-4.7802,-4.7703,-4.752,-4.7487,-4.762,-4.7023,-4.6142,-4.5637,-4.5293,-4.4925,-3.9308,-3.9308,-3.9308,-3.8711,-3.7862,-3.7781,-3.7196,-3.6369,-3.6266,-3.6483,-3.67,-3.697,-3.7304,-3.7637,-3.788,-3.7974,-3.7974,-3.7974,-3.7974,-3.7974,-3.7974,-3.7974,-3.7974,-3.7974,-3.7974,-3.8542,-3.9802,-4.0969,-4.1617,-4.306,-4.3899,-4.4317,-4.4425,-4.4425,-4.4472,-4.469,-4.5,-4.5124,-4.5458,-4.573,-4.5835,-4.588,-4.588,-4.588,-4.588,-4.588,-4.588,-4.588,-4.588,-4.588,-4.588,-4.588,-4.588,-4.588,-4.588,-4.588,-4.588,-4.588,-4.588,-4.588,-4.588,-4.588,-4.588,-4.588,-4.618,-4.6417,-4.6668,-4.6814,-4.7032,-4.7351,-4.7538,-4.8324,-4.8309,-4.7642,-4.695,-4.6223,-4.5354,-4.4055,-4.2975,-4.3371,-4.259,-4.1949,-4.2443,-4.2896,-4.3127,-4.3342,-4.3539,-4.3568,-4.3681,-4.4075,-4.4622,-4.5334,-4.6063,-4.7023,-4.7868,-4.7322,-4.7007,-4.6858,-4.6792,-4.6493,-4.6411,-4.6195,-4.6295,-4.6725,-4.7123,-4.7272,-4.7139,-4.6957,-4.6792,-4.6709,-4.5962,-4.5197,-4.5072,-4.4993,-4.4687,-3.9308,-3.9274,-3.9044,-3.8493,-3.7816,-3.7506,-3.6978,-3.6335,-3.632,-3.6538,-3.6862,-3.7078,-3.7358,-3.7732,-3.7945,-3.7974,-3.7974,-3.7974,-3.7974,-3.7974,-3.7974,-3.7974,-3.7974,-3.7974,-3.7974,-3.8582,-4.0058,-4.1169,-4.1319,-4.2709,-4.3851,-4.4317,-4.4425,-4.4425,-4.4504,-4.4783,-4.4954,-4.5184,-4.5458,-4.573,-4.588,-4.588,-4.588,-4.588,-4.588,-4.588,-4.588,-4.588,-4.588,-4.588,-4.588,-4.588,-4.588,-4.588,-4.588,-4.588,-4.588,-4.588,-4.588,-4.588,-4.588,-4.588,-4.588,-4.588,-4.597,-4.6121,-4.6314,-4.6521,-4.6712,-4.7019,-4.7337,-4.7722,-4.75,-4.6909,-4.6275,-4.5611,-4.4719,-4.3324,-4.2887,-4.2669,-4.2027,-4.1729,-4.1917,-4.2349,-4.271,-4.3035,-4.3355,-4.3462,-4.3539,-4.3896,-4.434,-4.4986,-4.5632,-4.6245,-4.699,-4.6692,-4.6344,-4.6212,-4.5963,-4.5649,-4.5616,-4.5549,-4.5467,-4.5599,-4.6013,-4.6411,-4.646,-4.6228,-4.6013,-4.5847,-4.5533,-4.5246,-4.4956,-4.4693,-4.4465,-3.9251,-3.9124,-3.8746,-3.8217,-3.762,-3.7219,-3.6759,-3.6335,-3.6266,-3.6538,-3.697,-3.7066,-3.74,-3.7826,-3.7986,-3.7974,-3.7974,-3.7974,-3.7974,-3.7974,-3.7974,-3.7974,-3.7974,-3.7974,-3.8027,-3.8238,-3.9299,-4.0818,-4.1468,-4.2709,-4.3648,-4.4162,-4.4425,-4.4425,-4.4504,-4.4783,-4.5,-4.5276,-4.5564,-4.579,-4.588,-4.588,-4.588,-4.588,-4.588,-4.588,-4.588,-4.588,-4.588,-4.588,-4.588,-4.588,-4.588,-4.588,-4.588,-4.588,-4.588,-4.588,-4.588,-4.588,-4.588,-4.588,-4.588,-4.588,-4.597,-4.609,-4.6343,-4.6741,-4.6873,-4.7019,-4.7236,-4.7174,-4.686,-4.6367,-4.5648,-4.487,-4.4327,-4.3419,-4.259,-4.2168,-4.1587,-4.139,-4.1476,-4.1492,-4.1819,-4.2443,-4.2772,-4.3096,-4.3204,-4.3522,-4.3979,-4.4605,-4.5152,-4.5533,-4.5881,-4.5864,-4.5632,-4.5533,-4.5218,-4.487,-4.4986,-4.5119,-4.497,-4.4754,-4.487,-4.5218,-4.5351,-4.5467,-4.5268,-4.5168,-4.5317,-4.5147,-4.462,-4.449,-4.4432,-3.9055,-3.8665,-3.8596,-3.8022,-3.7196,-3.6991,-3.6736,-3.63,-3.6266,-3.6495,-3.6808,-3.7024,-3.7304,-3.7691,-3.7933,-3.7974,-3.7974,-3.7974,-3.7974,-3.7974,-3.7974,-3.7974,-3.7974,-3.7974,-3.7974,-3.8185,-3.8542,-3.9506,-4.0969,-4.2916,-4.4101,-4.4317,-4.4425,-4.4425,-4.4411,-4.4783,-4.4908,-4.5124,-4.5398,-4.5685,-4.5835,-4.588,-4.588,-4.588,-4.588,-4.588,-4.588,-4.588,-4.588,-4.588,-4.588,-4.588,-4.588,-4.588,-4.588,-4.588,-4.588,-4.588,-4.588,-4.588,-4.588,-4.588,-4.588,-4.588,-4.5925,-4.6046,-4.6314,-4.6594,-4.6756,-4.696,-4.706,-4.6743,-4.6429,-4.5933,-4.5229,-4.4646,-4.4107,-4.3614,-4.2761,-4.2261,-4.1866,-4.1212,-4.0882,-4.0873,-4.094,-4.1591,-4.2173,-4.2506,-4.2943,-4.3325,-4.3648,-4.4257,-4.4522,-4.487,-4.4986,-4.4953,-4.492,-4.4854,-4.4589,-4.4194,-4.431,-4.4456,-4.4128,-4.3979,-4.4095,-4.4178,-4.439,-4.4473,-4.4406,-4.444,-4.4506,-4.4331,-4.4035,-4.4115,-4.4344,-3.8504,-3.8539,-3.7953,-3.746,-3.7023,-3.6736,-3.6484,-3.63,-3.6266,-3.6429,-3.67,-3.697,-3.7346,-3.7785,-3.7986,-3.7974,-3.7974,-3.7974,-3.7974,-3.7974,-3.7974,-3.7974,-3.7974,-3.7974,-3.7974,-3.8279,-3.9092,-3.9853,-4.1019,-4.1864,-4.3012,-4.4317,-4.4425,-4.4425,-4.4457,-4.4815,-4.5,-4.523,-4.5518,-4.5805,-4.588,-4.588,-4.588,-4.588,-4.588,-4.588,-4.588,-4.588,-4.588,-4.588,-4.588,-4.588,-4.588,-4.588,-4.588,-4.588,-4.588,-4.588,-4.588,-4.588,-4.588,-4.588,-4.588,-4.588,-4.5925,-4.6015,-4.6135,-4.6358,-4.6447,-4.6697,-4.6899,-4.6481,-4.606,-4.552,-4.4796,-4.4287,-4.3813,-4.3544,-4.3045,-4.2566,-4.2119,-4.1504,-4.0872,-4.0637,-4.0616,-4.0873,-4.1558,-4.211,-4.2679,-4.3265,-4.3545,-4.391,-4.4042,-4.4111,-4.4144,-4.4175,-4.4208,-4.4158,-4.4158,-4.383,-4.3747,-4.3681,-4.3615,-4.3615,-4.378,-4.3764,-4.3631,-4.3747,-4.3992,-4.383,-4.3631,-4.3763,-4.3898,-4.4044,-4.4284,-3.7827,-3.8114,-3.7356,-3.6911,-3.6817,-3.6427,-3.6266,-3.6266,-3.6266,-3.6429,-3.6766,-3.7089,-3.7518,-3.7838,-3.7933,-3.7974,-3.7974,-3.7974,-3.7974,-3.7974,-3.7974,-3.7974,-3.7974,-3.7974,-3.7974,-3.8027,-3.9092,-4.0007,-4.0414,-4.1069,-4.2368,-4.396,-4.427,-4.4411,-4.4597,-4.4862,-4.5124,-4.5413,-4.57,-4.588,-4.588,-4.588,-4.588,-4.588,-4.588,-4.588,-4.588,-4.588,-4.588,-4.588,-4.588,-4.588,-4.588,-4.588,-4.588,-4.588,-4.588,-4.588,-4.588,-4.588,-4.588,-4.588,-4.588,-4.588,-4.5925,-4.597,-4.6105,-4.6358,-4.6565,-4.6682,-4.6561,-4.617,-4.5585,-4.5053,-4.4407,-4.3843,-4.3424,-4.3319,-4.3215,-4.2925,-4.2447,-4.1976,-4.1324,-4.0724,-4.0481,-4.0362,-4.0839,-4.1591,-4.2317,-4.2974,-4.3375,-4.3627,-4.3764,-4.3797,-4.3764,-4.3698,-4.3631,-4.3615,-4.3615,-4.3615,-4.3615,-4.3615,-4.3615,-4.3615,-4.3615,-4.3615,-4.3615,-4.3615,-4.3615,-4.3645,-4.3674,-4.3793,-4.3939,-4.4085,-4.4229,-3.7048,-3.7127,-3.7058,-3.6759,-3.6346,-3.6289,-3.6266,-3.6266,-3.6266,-3.6483,-3.6808,-3.7262,-3.7542,-3.7702,-3.7892,-3.7974,-3.7974,-3.7974,-3.7974,-3.7974,-3.7974,-3.7974,-3.7974,-3.7974,-3.7974,-3.8039,-3.8792,-3.9751,-4.0617,-4.0869,-4.1851,-4.284,-4.3912,-4.4411,-4.4737,-4.5,-4.5353,-4.564,-4.588,-4.588,-4.588,-4.588,-4.588,-4.588,-4.588,-4.588,-4.588,-4.588,-4.588,-4.588,-4.588,-4.588,-4.588,-4.588,-4.588,-4.588,-4.588,-4.588,-4.588,-4.588,-4.588,-4.588,-4.588,-4.588,-4.5925,-4.6284,-4.6506,-4.6491,-4.6624,-4.6634,-4.6316,-4.5741,-4.5191,-4.462,-4.4122,-4.3663,-4.3364,-4.3349,-4.323,-4.311,-4.2821,-4.2342,-4.1931,-4.1361,-4.0507,-4.0364,-4.0439,-4.1176,-4.1884,-4.2538,-4.3005,-4.3344,-4.3555,-4.3631,-4.3648,-4.3615,-4.3615,-4.3615,-4.3615,-4.3615,-4.3615,-4.3615,-4.3615,-4.3615,-4.3615,-4.3615,-4.3615,-4.3615,-4.3615,-4.3645,-4.3734,-4.3852,-4.4056,-4.4258,-4.4372,-3.6564,-3.6564,-3.6564,-3.6461,-3.6266,-3.6266,-3.6266,-3.6266,-3.6266,-3.6549,-3.697,-3.737,-3.7691,-3.7838,-3.7933,-3.7974,-3.7974,-3.7974,-3.7974,-3.7974,-3.7974,-3.7974,-3.7974,-3.7974,-3.7974,-3.8133,-3.8542,-3.8687,-3.9092,-4.0465,-4.1269,-4.2208,-4.3471,-4.4364,-4.483,-4.5138,-4.5504,-4.5745,-4.588,-4.588,-4.588,-4.588,-4.588,-4.588,-4.588,-4.588,-4.588,-4.588,-4.588,-4.588,-4.588,-4.588,-4.588,-4.588,-4.588,-4.588,-4.588,-4.588,-4.588,-4.588,-4.588,-4.588,-4.588,-4.588,-4.588,-4.612,-4.615,-4.6225,-4.6476,-4.6547,-4.5925,-4.5414,-4.4929,-4.4325,-4.3828,-4.3439,-4.3305,-4.3305,-4.329,-4.3185,-4.309,-4.2821,-4.2387,-4.1985,-4.1115,-4.0387,-4.0507,-4.0734,-4.1472,-4.1997,-4.2443,-4.2943,-4.3157,-4.3416,-4.3462,-4.3509,-4.3615,-4.3615,-4.3615,-4.3615,-4.3615,-4.3615,-4.3615,-4.3615,-4.3615,-4.3615,-4.3615,-4.3615,-4.3615,-4.3645,-4.3763,-4.391,-4.4143,-4.44,-4.4485,-3.6266,-3.6266,-3.6266,-3.6266,-3.6266,-3.6266,-3.6266,-3.6266,-3.6266,-3.6538,-3.7024,-3.737,-3.7702,-3.7838,-3.7974,-3.7974,-3.7974,-3.7974,-3.7974,-3.7974,-3.7974,-3.7974,-3.7974,-3.7974,-3.8027,-3.8185,-3.8594,-3.8739,-3.8884,-4.0109,-4.0818,-4.1617,-4.266,-4.36,-4.4844,-4.5244,-4.5595,-4.573,-4.588,-4.588,-4.588,-4.588,-4.588,-4.588,-4.588,-4.588,-4.588,-4.588,-4.588,-4.588,-4.588,-4.588,-4.588,-4.588,-4.588,-4.588,-4.588,-4.588,-4.588,-4.588,-4.588,-4.588,-4.588,-4.588,-4.5925,-4.603,-4.6239,-4.6239,-4.6373,-4.6241,-4.5705,-4.5263,-4.4657,-4.4037,-4.3648,-4.3305,-4.3305,-4.3305,-4.3305,-4.326,-4.3155,-4.3105,-4.2821,-4.2372,-4.1683,-4.0861,-4.0504,-4.072,-4.114,-4.1561,-4.1754,-4.2285,-4.2772,-4.3035,-4.3265,-4.3432,-4.3598,-4.3615,-4.3615,-4.3615,-4.3615,-4.3615,-4.3615,-4.3615,-4.3615,-4.3615,-4.3615,-4.3615,-4.3615,-4.3615,-4.3793,-4.3998,-4.4184,-4.4412,-4.4468,-3.6266,-3.6266,-3.6266,-3.6266,-3.6266,-3.6266,-3.6266,-3.632,-3.6375,-3.6549,-3.6874,-3.7382,-3.7649,-3.7744,-3.7933,-3.7974,-3.7974,-3.7974,-3.7974,-3.7974,-3.7974,-3.7974,-3.7974,-3.7974,-3.7974,-3.7974,-3.8226,-3.8687,-3.9248,-3.9454,-4.0109,-4.0919,-4.1667,-4.266,-4.4597,-4.5184,-4.5444,-4.5504,-4.5685,-4.5595,-4.588,-4.579,-4.564,-4.588,-4.588,-4.588,-4.588,-4.588,-4.588,-4.588,-4.588,-4.588,-4.588,-4.588,-4.588,-4.588,-4.588,-4.588,-4.588,-4.588,-4.588,-4.588,-4.588,-4.588,-4.597,-4.6194,-4.6417,-4.6284,-4.6712,-4.6379,-4.5834,-4.5203,-4.453,-4.3843,-4.3454,-4.3305,-4.3305,-4.3305,-4.3305,-4.3305,-4.3305,-4.3245,-4.3105,-4.2776,-4.2192,-4.1504,-4.0801,-4.0734,-4.0934,-4.1105,-4.1256,-4.1689,-4.2253,-4.2741,-4.3035,-4.3402,-4.3568,-4.3615,-4.3615,-4.3615,-4.3615,-4.3615,-4.3615,-4.3615,-4.3615,-4.3615,-4.3615,-4.3615,-4.3615,-4.3645,-4.391,-4.4114,-4.427,-4.4395,-4.4468,-3.6266,-3.6266,-3.6266,-3.6266,-3.6266,-3.6266,-3.6266,-3.6375,-3.6646,-3.6862,-3.7089,-3.7625,-3.7892,-3.788,-3.7933,-3.7974,-3.7974,-3.7974,-3.7974,-3.7974,-3.7974,-3.7974,-3.7974,-3.7974,-3.7974,-3.7974,-3.8027,-3.808,-3.8449,-3.8635,-3.9196,-3.9956,-4.0856,-4.195,-4.2778,-4.3355,-4.3735,-4.442,-4.4326,-4.4326,-4.5595,-4.5353,-4.5247,-4.588,-4.588,-4.588,-4.588,-4.588,-4.588,-4.588,-4.588,-4.588,-4.588,-4.588,-4.588,-4.588,-4.588,-4.588,-4.588,-4.588,-4.588,-4.588,-4.588,-4.588,-4.5925,-4.603,-4.6105,-4.6284,-4.6683,-4.6147,-4.5171,-4.5198,-4.4695,-4.3708,-4.3305,-4.3305,-4.3305,-4.3305,-4.3305,-4.3305,-4.3305,-4.3305,-4.3185,-4.309,-4.2611,-4.1968,-4.1265,-4.0472,-4.0453,-4.0622,-4.0786,-4.1209,-4.1722,-4.2285,-4.2772,-4.3113,-4.3479,-4.3615,-4.3615,-4.3615,-4.3615,-4.3615,-4.3615,-4.3615,-4.3615,-4.3615,-4.3615,-4.3615,-4.3615,-4.3704,-4.391,-4.4068,-4.4184,-4.4327,-4.4468,-3.6266,-3.6266,-3.6266,-3.6266,-3.6266,-3.6266,-3.6266,-3.6375,-3.6862,-3.7131,-3.7239,-3.7708,-3.7974,-3.7974,-3.7974,-3.7974,-3.7974,-3.7974,-3.7974,-3.7974,-3.7974,-3.7974,-3.7974,-3.7974,-3.7974,-3.7974,-3.7974,-3.8027,-3.8133,-3.8027,-3.8437,-3.9144,-3.9994,-4.0414,-4.1056,-4.1838,-4.2875,-4.3511,-4.3559,-4.4139,-4.4957,-4.5155,-4.5293,-4.573,-4.588,-4.588,-4.588,-4.588,-4.588,-4.588,-4.588,-4.588,-4.588,-4.588,-4.588,-4.588,-4.588,-4.588,-4.588,-4.588,-4.588,-4.588,-4.588,-4.588,-4.5925,-4.6015,-4.6105,-4.6284,-4.6506,-4.6077,-4.5465,-4.555,-4.4784,-4.3813,-4.3379,-4.3379,-4.3305,-4.3305,-4.3305,-4.3305,-4.3305,-4.3305,-4.329,-4.3215,-4.2991,-4.2372,-4.1698,-4.0965,-4.0232,-4.0283,-4.0465,-4.0813,-4.1153,-4.1624,-4.219,-4.2741,-4.3143,-4.3539,-4.3615,-4.3615,-4.3615,-4.3615,-4.3615,-4.3615,-4.3615,-4.3615,-4.3615,-4.3615,-4.3615,-4.3674,-4.3852,-4.3981,-4.4068,-4.427,-4.4468,-3.6266,-3.6266,-3.6266,-3.6266,-3.6266,-3.6266,-3.6266,-3.6375,-3.6862,-3.7131,-3.7131,-3.772,-3.7974,-3.7974,-3.7974,-3.7974,-3.7974,-3.7974,-3.7974,-3.7974,-3.7974,-3.7974,-3.7974,-3.7974,-3.7974,-3.7974,-3.7974,-3.7974,-3.7974,-3.7974,-3.808,-3.825,-3.8804,-3.9272,-3.9981,-4.0932,-4.2012,-4.2488,-4.2778,-4.3497,-4.4359,-4.5003,-4.5307,-4.5685,-4.588,-4.588,-4.588,-4.588,-4.588,-4.588,-4.588,-4.588,-4.588,-4.588,-4.588,-4.588,-4.588,-4.588,-4.588,-4.588,-4.588,-4.588,-4.588,-4.588,-4.5925,-4.6001,-4.615,-4.6373,-4.6609,-4.6457,-4.6239,-4.5609,-4.499,-4.4272,-4.3574,-4.3439,-4.3334,-4.3305,-4.3305,-4.3305,-4.3305,-4.3305,-4.3305,-4.3245,-4.3185,-4.2836,-4.2327,-4.2177,-4.1354,-4.0172,-4.032,-4.0459,-4.0749,-4.0953,-4.1525,-4.2349,-4.3005,-4.3509,-4.3615,-4.3615,-4.3615,-4.3615,-4.3615,-4.3615,-4.3615,-4.3615,-4.3615,-4.3615,-4.3615,-4.3704,-4.3805,-4.3969,-4.4097,-4.4298,-4.4497,-3.6266,-3.6266,-3.6266,-3.6266,-3.6266,-3.6266,-3.6266,-3.6375,-3.6862,-3.7131,-3.7131,-3.772,-3.7974,-3.7974,-3.7974,-3.7974,-3.7974,-3.7974,-3.7974,-3.7974,-3.7974,-3.7974,-3.7974,-3.7974,-3.7974,-3.7974,-3.7974,-3.7974,-3.7974,-3.7974,-3.825,-3.8566,-3.8631,-3.8945,-3.9453,-4.0173,-4.0844,-4.1382,-4.1568,-4.2523,-4.3484,-4.3998,-4.4666,-4.5307,-4.5595,-4.5595,-4.5595,-4.564,-4.5685,-4.579,-4.588,-4.588,-4.588,-4.588,-4.588,-4.588,-4.588,-4.588,-4.588,-4.588,-4.588,-4.588,-4.588,-4.588,-4.5925,-4.6001,-4.6135,-4.6403,-4.6653,-4.6561,-4.633,-4.5789,-4.5173,-4.4556,-4.3928,-4.3499,-4.3394,-4.3305,-4.3305,-4.3305,-4.3305,-4.3305,-4.3305,-4.329,-4.32,-4.3021,-4.291,-4.2806,-4.2402,-4.119,-4.0457,-4.0598,-4.0474,-4.0724,-4.1374,-4.2126,-4.2834,-4.3402,-4.3509,-4.3598,-4.3615,-4.3615,-4.3615,-4.3615,-4.3615,-4.3615,-4.3615,-4.3615,-4.3615,-4.3717,-4.3835,-4.3981,-4.4143,-4.4327,-4.4497,-3.6266,-3.6266,-3.6266,-3.6266,-3.632,-3.644,-3.6429,-3.6538,-3.6916,-3.7185,-3.7358,-3.7773,-3.7974,-3.7974,-3.7974,-3.7974,-3.7974,-3.7974,-3.7974,-3.7974,-3.7974,-3.7974,-3.7974,-3.7974,-3.7974,-3.7974,-3.7974,-3.7974,-3.8027,-3.8145,-3.8356,-3.8579,-3.8788,-3.9154,-3.953,-3.9788,-4.0083,-4.0415,-4.0794,-4.1505,-4.2195,-4.2923,-4.3796,-4.4434,-4.4727,-4.4773,-4.4759,-4.4773,-4.4865,-4.5155,-4.5247,-4.5535,-4.5685,-4.588,-4.588,-4.588,-4.588,-4.588,-4.588,-4.588,-4.588,-4.588,-4.588,-4.588,-4.5925,-4.6001,-4.618,-4.6403,-4.6594,-4.6681,-4.6364,-4.6028,-4.5412,-4.4811,-4.4227,-4.3604,-4.3454,-4.3319,-4.3305,-4.3305,-4.3305,-4.3305,-4.3305,-4.3305,-4.326,-4.311,-4.3015,-4.2895,-4.2656,-4.2013,-4.125,-4.1003,-4.0734,-4.0593,-4.1276,-4.1851,-4.2412,-4.3035,-4.3462,-4.3539,-4.3568,-4.3615,-4.3615,-4.3615,-4.3615,-4.3615,-4.3615,-4.3615,-4.3645,-4.3717,-4.3776,-4.3881,-4.4056,-4.4344,-4.4485,-3.6266,-3.6266,-3.6266,-3.6266,-3.632,-3.6592,-3.67,-3.6754,-3.7024,-3.7304,-3.7584,-3.7892,-3.7974,-3.7974,-3.7974,-3.7974,-3.7974,-3.7974,-3.7974,-3.7974,-3.7974,-3.7974,-3.7974,-3.7974,-3.7974,-3.7974,-3.7974,-3.7974,-3.808,-3.8145,-3.8303,-3.8473,-3.8893,-3.9258,-3.9426,-3.9645,-3.9839,-3.9942,-4.0402,-4.1069,-4.1455,-4.2097,-4.2744,-4.2937,-4.2985,-4.2985,-4.2937,-4.3033,-4.3211,-4.389,-4.4466,-4.4911,-4.5535,-4.588,-4.588,-4.588,-4.588,-4.588,-4.588,-4.588,-4.588,-4.588,-4.588,-4.5925,-4.6001,-4.6015,-4.615,-4.6358,-4.6565,-4.677,-4.6632,-4.6254,-4.5741,-4.511,-4.4496,-4.3828,-4.3394,-4.3305,-4.3305,-4.3305,-4.3305,-4.3305,-4.3305,-4.3305,-4.3305,-4.317,-4.3135,-4.3015,-4.2851,-4.2521,-4.2073,-4.1489,-4.0904,-4.0618,-4.0986,-4.1531,-4.1948,-4.2506,-4.3143,-4.3509,-4.3598,-4.3615,-4.3615,-4.3615,-4.3615,-4.3615,-4.3615,-4.3615,-4.3615,-4.3628,-4.3687,-4.3734,-4.3969,-4.4258,-4.44,-3.6266,-3.6266,-3.6266,-3.6266,-3.632,-3.6592,-3.682,-3.7036,-3.737,-3.7542,-3.7649,-3.7892,-3.7974,-3.7974,-3.7974,-3.7974,-3.7974,-3.7974,-3.7974,-3.7974,-3.7974,-3.7974,-3.7974,-3.7974,-3.7974,-3.7974,-3.7974,-3.7974,-3.8039,-3.8145,-3.8356,-3.8684,-3.8998,-3.9218,-3.9542,-3.9697,-3.9749,-3.9749,-3.9981,-4.0554,-4.1082,-4.1419,-4.1851,-4.2355,-4.2647,-4.255,-4.255,-4.2695,-4.284,-4.3225,-4.3984,-4.4805,-4.5835,-4.588,-4.588,-4.588,-4.588,-4.588,-4.588,-4.588,-4.588,-4.588,-4.5925,-4.6001,-4.6046,-4.6015,-4.6105,-4.6328,-4.658,-4.68,-4.6885,-4.6508,-4.6112,-4.5439,-4.4766,-4.4107,-4.3394,-4.3319,-4.3305,-4.3305,-4.3305,-4.3305,-4.3305,-4.3305,-4.3305,-4.3275,-4.3245,-4.3185,-4.3185,-4.3,-4.2701,-4.2058,-4.0995,-4.0755,-4.101,-4.1277,-4.1743,-4.2318,-4.2978,-4.3314,-4.3585,-4.3615,-4.3615,-4.3615,-4.3615,-4.3615,-4.3615,-4.3615,-4.3598,-4.3598,-4.3658,-4.3734,-4.391,-4.4172,-4.427,-3.6266,-3.6266,-3.6266,-3.6266,-3.6375,-3.67,-3.697,-3.7185,-3.7572,-3.7797,-3.7785,-3.7933,-3.7974,-3.7974,-3.7974,-3.7974,-3.7974,-3.7974,-3.7974,-3.7974,-3.7974,-3.7974,-3.7974,-3.7974,-3.7974,-3.7974,-3.7974,-3.8027,-3.8039,-3.8303,-3.8566,-3.8841,-3.8998,-3.9322,-3.9697,-3.9697,-3.9697,-3.9697,-3.9697,-4.0032,-4.0605,-4.0706,-4.0743,-4.1345,-4.1445,-4.1495,-4.1445,-4.1531,-4.2075,-4.2985,-4.428,-4.5095,-4.579,-4.588,-4.588,-4.588,-4.588,-4.588,-4.588,-4.588,-4.588,-4.588,-4.6001,-4.6121,-4.6165,-4.618,-4.6403,-4.6624,-4.6902,-4.7121,-4.7149,-4.6877,-4.6516,-4.5948,-4.5214,-4.4511,-4.3768,-4.3305,-4.3305,-4.3305,-4.3305,-4.3305,-4.3305,-4.3305,-4.3305,-4.3305,-4.329,-4.3275,-4.329,-4.3305,-4.3075,-4.2716,-4.1713,-4.1078,-4.123,-4.1387,-4.1551,-4.2167,-4.278,-4.315,-4.3424,-4.3542,-4.3615,-4.3539,-4.3539,-4.3615,-4.3615,-4.3645,-4.3615,-4.3598,-4.3674,-4.3763,-4.3923,-4.4068,-4.4196,-3.632,-3.632,-3.6266,-3.6266,-3.6375,-3.6862,-3.7131,-3.7185,-3.772,-3.7974,-3.7986,-3.7974,-3.7974,-3.7974,-3.7974,-3.7974,-3.7974,-3.7974,-3.7974,-3.7974,-3.7974,-3.7974,-3.7974,-3.7974,-3.7974,-3.7974,-3.7974,-3.8027,-3.808,-3.8409,-3.8684,-3.8958,-3.927,-3.9697,-3.9697,-3.9697,-3.9697,-3.9697,-3.9697,-3.9697,-3.9749,-3.9697,-3.989,-3.9839,-3.9697,-3.9697,-3.9749,-4.0032,-4.0908,-4.2025,-4.3654,-4.4666,-4.5155,-4.5201,-4.5398,-4.5338,-4.5429,-4.5475,-4.558,-4.5745,-4.5835,-4.5925,-4.609,-4.621,-4.6254,-4.6491,-4.6712,-4.6887,-4.7164,-4.7207,-4.7207,-4.7219,-4.6815,-4.6277,-4.5529,-4.4811,-4.4052,-4.3379,-4.3319,-4.3319,-4.3305,-4.3305,-4.3305,-4.3305,-4.3305,-4.3305,-4.3305,-4.3305,-4.3305,-4.3305,-4.3185,-4.3075,-4.2581,-4.2066,-4.1573,-4.1648,-4.1747,-4.1885,-4.2487,-4.2911,-4.323,-4.3211,-4.3253,-4.3372,-4.3402,-4.3568,-4.3628,-4.3658,-4.3628,-4.3674,-4.3793,-4.391,-4.3969,-4.4097,-4.4196,-3.6483,-3.6266,-3.6266,-3.6266,-3.6375,-3.6862,-3.7131,-3.7185,-3.772,-3.7974,-3.7974,-3.7974,-3.7974,-3.7974,-3.7974,-3.7974,-3.7974,-3.7974,-3.7974,-3.7974,-3.7974,-3.7974,-3.7974,-3.7974,-3.7974,-3.7974,-3.8027,-3.8092,-3.8198,-3.8409,-3.8736,-3.9154,-3.9218,-3.953,-3.9697,-3.9697,-3.9697,-3.9697,-3.9697,-3.9697,-3.9697,-3.9697,-3.9697,-3.9697,-3.9697,-3.9697,-3.9697,-3.9697,-3.9942,-4.0567,-4.1716,-4.3211,-4.3937,-4.4186,-4.4233,-4.4759,-4.4837,-4.4943,-4.5141,-4.5685,-4.5866,-4.597,-4.6135,-4.6388,-4.6491,-4.6712,-4.6902,-4.7077,-4.7207,-4.7077,-4.7062,-4.7251,-4.701,-4.6232,-4.5469,-4.4855,-4.4197,-4.3678,-4.3409,-4.3349,-4.3305,-4.3305,-4.3305,-4.3305,-4.3305,-4.3305,-4.3305,-4.3305,-4.3305,-4.3305,-4.3305,-4.3215,-4.311,-4.2432,-4.17,-4.2001,-4.2145,-4.2123,-4.2244,-4.2785,-4.3009,-4.2733,-4.2809,-4.3203,-4.3424,-4.3598,-4.3628,-4.3717,-4.3793,-4.3868,-4.3969,-4.4085,-4.4114,-4.4155,-4.4253]}]]